Wetterdaten: Mittwoch, 03.05.2023
Datum Zeit Temp. 2m Temp +5 cm Feuchte A. Luftdruck Regen Wind Richtung Richtung Sonnenschein UV Solar Taupunkt Windchill Windben
03.05.2023 00:00 0,8 C -1,1 C 88 % 1028,9 hPa 0,0 l/m 0,0 km/h (0 Bft) N 0 0 min 0,0 UV-I 0 W/m -1,0 C 0,8 C 0,0 km/h (0 Bft)
03.05.2023 00:01 0,9 C -1,7 C 88 % 1028,9 hPa 0,0 l/m 0,0 km/h (0 Bft) N 0 0 min 0,0 UV-I 0 W/m -0,9 C 0,9 C 0,0 km/h (0 Bft)
03.05.2023 00:02 0,9 C -1,7 C 88 % 1028,8 hPa 0,0 l/m 0,0 km/h (0 Bft) N 0 0 min 0,0 UV-I 0 W/m -0,9 C 0,9 C 0,0 km/h (0 Bft)
03.05.2023 00:03 0,9 C -1,1 C 88 % 1028,8 hPa 0,0 l/m 0,0 km/h (0 Bft) N 0 0 min 0,0 UV-I 0 W/m -0,9 C 0,9 C 0,0 km/h (0 Bft)
03.05.2023 00:04 0,9 C -1,1 C 88 % 1028,8 hPa 0,0 l/m 0,0 km/h (0 Bft) N 0 0 min 0,0 UV-I 0 W/m -0,9 C 0,9 C 0,0 km/h (0 Bft)
03.05.2023 00:05 0,9 C -1,1 C 88 % 1028,9 hPa 0,0 l/m 0,0 km/h (0 Bft) N 0 0 min 0,0 UV-I 0 W/m -0,9 C 0,9 C 0,0 km/h (0 Bft)
03.05.2023 00:06 1,0 C -1,1 C 88 % 1028,9 hPa 0,0 l/m 0,0 km/h (0 Bft) N 0 0 min 0,0 UV-I 0 W/m -0,8 C 1,0 C 0,0 km/h (0 Bft)
03.05.2023 00:07 1,0 C -1,1 C 89 % 1028,9 hPa 0,0 l/m 0,0 km/h (0 Bft) N 360 0 min 0,0 UV-I 0 W/m -0,6 C 1,0 C 1,6 km/h (1 Bft)
03.05.2023 00:08 1,1 C -1,1 C 89 % 1028,9 hPa 0,0 l/m 0,0 km/h (0 Bft) N 360 0 min 0,0 UV-I 0 W/m -0,5 C 1,1 C 1,6 km/h (1 Bft)
03.05.2023 00:09 1,1 C -1,1 C 89 % 1028,9 hPa 0,0 l/m 0,0 km/h (0 Bft) N 360 0 min 0,0 UV-I 0 W/m -0,5 C 1,1 C 1,6 km/h (1 Bft)
03.05.2023 00:10 1,1 C -1,1 C 88 % 1029,0 hPa 0,0 l/m 1,6 km/h (1 Bft) N 360 0 min 0,0 UV-I 0 W/m -0,7 C 1,1 C 3,2 km/h (1 Bft)
03.05.2023 00:11 1,1 C -1,1 C 88 % 1029,0 hPa 0,0 l/m 3,2 km/h (1 Bft) N 360 0 min 0,0 UV-I 0 W/m -0,7 C 1,1 C 4,8 km/h (1 Bft)
03.05.2023 00:12 1,2 C -1,1 C 88 % 1028,9 hPa 0,0 l/m 3,2 km/h (1 Bft) N 360 0 min 0,0 UV-I 0 W/m -0,6 C 1,2 C 4,8 km/h (1 Bft)
03.05.2023 00:13 1,2 C -1,1 C 88 % 1029,0 hPa 0,0 l/m 1,6 km/h (1 Bft) N 360 0 min 0,0 UV-I 0 W/m -0,6 C 1,2 C 4,8 km/h (1 Bft)
03.05.2023 00:14 1,1 C -1,1 C 88 % 1029,0 hPa 0,0 l/m 1,6 km/h (1 Bft) N 360 0 min 0,0 UV-I 0 W/m -0,7 C 1,1 C 3,2 km/h (1 Bft)
03.05.2023 00:15 0,9 C -1,1 C 88 % 1028,9 hPa 0,0 l/m 0,0 km/h (0 Bft) N 360 0 min 0,0 UV-I 0 W/m -0,9 C 0,9 C 1,6 km/h (1 Bft)
03.05.2023 00:16 0,7 C -1,7 C 88 % 1028,9 hPa 0,0 l/m 0,0 km/h (0 Bft) N 360 0 min 0,0 UV-I 0 W/m -1,1 C 0,7 C 1,6 km/h (1 Bft)
03.05.2023 00:17 0,6 C -1,7 C 87 % 1029,0 hPa 0,0 l/m 0,0 km/h (0 Bft) N 360 0 min 0,0 UV-I 0 W/m -1,3 C 0,6 C 1,6 km/h (1 Bft)
03.05.2023 00:18 0,4 C -1,7 C 88 % 1028,9 hPa 0,0 l/m 0,0 km/h (0 Bft) N 360 0 min 0,0 UV-I 0 W/m -1,3 C 0,4 C 1,6 km/h (1 Bft)
03.05.2023 00:19 0,4 C -1,7 C 88 % 1029,0 hPa 0,0 l/m 0,0 km/h (0 Bft) N 0 0 min 0,0 UV-I 0 W/m -1,3 C 0,4 C 0,0 km/h (0 Bft)
03.05.2023 00:20 0,4 C -1,7 C 88 % 1029,0 hPa 0,0 l/m 0,0 km/h (0 Bft) N 0 0 min 0,0 UV-I 0 W/m -1,3 C 0,4 C 0,0 km/h (0 Bft)
03.05.2023 00:21 0,4 C -1,7 C 88 % 1029,0 hPa 0,0 l/m 0,0 km/h (0 Bft) N 360 0 min 0,0 UV-I 0 W/m -1,3 C 0,4 C 1,6 km/h (1 Bft)
03.05.2023 00:22 0,4 C -1,7 C 88 % 1029,0 hPa 0,0 l/m 1,6 km/h (1 Bft) N 360 0 min 0,0 UV-I 0 W/m -1,3 C 0,4 C 3,2 km/h (1 Bft)
03.05.2023 00:23 0,4 C -1,7 C 88 % 1029,1 hPa 0,0 l/m 1,6 km/h (1 Bft) N 360 0 min 0,0 UV-I 0 W/m -1,3 C 0,4 C 3,2 km/h (1 Bft)
03.05.2023 00:24 0,4 C -1,7 C 88 % 1029,1 hPa 0,0 l/m 0,0 km/h (0 Bft) N 360 0 min 0,0 UV-I 0 W/m -1,3 C 0,4 C 1,6 km/h (1 Bft)
03.05.2023 00:25 0,4 C -1,7 C 88 % 1029,1 hPa 0,0 l/m 1,6 km/h (1 Bft) N 360 0 min 0,0 UV-I 0 W/m -1,3 C 0,4 C 3,2 km/h (1 Bft)
03.05.2023 00:26 0,4 C -1,7 C 88 % 1029,0 hPa 0,0 l/m 3,2 km/h (1 Bft) N 360 0 min 0,0 UV-I 0 W/m -1,3 C 0,4 C 3,2 km/h (1 Bft)
03.05.2023 00:27 0,4 C -1,7 C 88 % 1029,2 hPa 0,0 l/m 1,6 km/h (1 Bft) N 360 0 min 0,0 UV-I 0 W/m -1,3 C 0,4 C 3,2 km/h (1 Bft)
03.05.2023 00:28 0,3 C -1,7 C 88 % 1029,1 hPa 0,0 l/m 1,6 km/h (1 Bft) N 360 0 min 0,0 UV-I 0 W/m -1,4 C 0,3 C 3,2 km/h (1 Bft)
03.05.2023 00:29 0,4 C -1,7 C 89 % 1029,2 hPa 0,0 l/m 0,0 km/h (0 Bft) N 360 0 min 0,0 UV-I 0 W/m -1,2 C 0,4 C 1,6 km/h (1 Bft)
03.05.2023 00:30 0,4 C -1,1 C 89 % 1029,1 hPa 0,0 l/m 0,0 km/h (0 Bft) N 360 0 min 0,0 UV-I 0 W/m -1,2 C 0,4 C 3,2 km/h (1 Bft)
03.05.2023 00:31 0,5 C -1,1 C 89 % 1029,1 hPa 0,0 l/m 1,6 km/h (1 Bft) N 360 0 min 0,0 UV-I 0 W/m -1,1 C 0,5 C 1,6 km/h (1 Bft)
03.05.2023 00:32 0,6 C -1,1 C 89 % 1029,0 hPa 0,0 l/m 1,6 km/h (1 Bft) N 360 0 min 0,0 UV-I 0 W/m -1,0 C 0,6 C 4,8 km/h (1 Bft)
03.05.2023 00:33 0,7 C -1,1 C 89 % 1029,1 hPa 0,0 l/m 1,6 km/h (1 Bft) N 360 0 min 0,0 UV-I 0 W/m -0,9 C 0,7 C 3,2 km/h (1 Bft)
03.05.2023 00:34 0,8 C -1,1 C 89 % 1029,0 hPa 0,0 l/m 0,0 km/h (0 Bft) N 360 0 min 0,0 UV-I 0 W/m -0,8 C 0,8 C 1,6 km/h (1 Bft)
03.05.2023 00:35 0,8 C -1,1 C 89 % 1029,1 hPa 0,0 l/m 1,6 km/h (1 Bft) N 360 0 min 0,0 UV-I 0 W/m -0,8 C 0,8 C 1,6 km/h (1 Bft)
03.05.2023 00:36 0,9 C -1,1 C 89 % 1029,0 hPa 0,0 l/m 0,0 km/h (0 Bft) N 360 0 min 0,0 UV-I 0 W/m -0,7 C 0,9 C 1,6 km/h (1 Bft)
03.05.2023 00:37 0,9 C -1,7 C 89 % 1029,0 hPa 0,0 l/m 0,0 km/h (0 Bft) N 360 0 min 0,0 UV-I 0 W/m -0,7 C 0,9 C 1,6 km/h (1 Bft)
03.05.2023 00:38 0,9 C -1,7 C 89 % 1029,2 hPa 0,0 l/m 0,0 km/h (0 Bft) N 0 0 min 0,0 UV-I 0 W/m -0,7 C 0,9 C 0,0 km/h (0 Bft)
03.05.2023 00:39 0,9 C -1,7 C 89 % 1029,1 hPa 0,0 l/m 0,0 km/h (0 Bft) N 0 0 min 0,0 UV-I 0 W/m -0,7 C 0,9 C 0,0 km/h (0 Bft)
03.05.2023 00:40 0,9 C -1,1 C 89 % 1029,1 hPa 0,0 l/m 0,0 km/h (0 Bft) N 0 0 min 0,0 UV-I 0 W/m -0,7 C 0,9 C 0,0 km/h (0 Bft)
03.05.2023 00:41 0,8 C -1,1 C 88 % 1029,0 hPa 0,0 l/m 0,0 km/h (0 Bft) N 0 0 min 0,0 UV-I 0 W/m -1,0 C 0,8 C 0,0 km/h (0 Bft)
03.05.2023 00:42 0,8 C -1,7 C 89 % 1029,1 hPa 0,0 l/m 0,0 km/h (0 Bft) N 0 0 min 0,0 UV-I 0 W/m -0,8 C 0,8 C 0,0 km/h (0 Bft)
03.05.2023 00:43 0,8 C -1,7 C 89 % 1029,1 hPa 0,0 l/m 0,0 km/h (0 Bft) N 0 0 min 0,0 UV-I 0 W/m -0,8 C 0,8 C 0,0 km/h (0 Bft)
03.05.2023 00:44 0,8 C -1,7 C 89 % 1029,2 hPa 0,0 l/m 0,0 km/h (0 Bft) N 0 0 min 0,0 UV-I 0 W/m -0,8 C 0,8 C 0,0 km/h (0 Bft)
03.05.2023 00:45 0,9 C -1,7 C 89 % 1029,2 hPa 0,0 l/m 0,0 km/h (0 Bft) N 0 0 min 0,0 UV-I 0 W/m -0,7 C 0,9 C 0,0 km/h (0 Bft)
03.05.2023 00:46 0,9 C -1,7 C 89 % 1029,2 hPa 0,0 l/m 0,0 km/h (0 Bft) N 360 0 min 0,0 UV-I 0 W/m -0,7 C 0,9 C 1,6 km/h (1 Bft)
03.05.2023 00:47 0,9 C -1,7 C 89 % 1029,2 hPa 0,0 l/m 0,0 km/h (0 Bft) N 0 0 min 0,0 UV-I 0 W/m -0,7 C 0,9 C 0,0 km/h (0 Bft)
03.05.2023 00:48 0,9 C -1,7 C 89 % 1029,3 hPa 0,0 l/m 0,0 km/h (0 Bft) N 0 0 min 0,0 UV-I 0 W/m -0,7 C 0,9 C 0,0 km/h (0 Bft)
03.05.2023 00:49 1,0 C -1,7 C 89 % 1029,1 hPa 0,0 l/m 0,0 km/h (0 Bft) N 0 0 min 0,0 UV-I 0 W/m -0,6 C 1,0 C 0,0 km/h (0 Bft)
03.05.2023 00:50 1,0 C -1,7 C 89 % 1029,3 hPa 0,0 l/m 0,0 km/h (0 Bft) N 0 0 min 0,0 UV-I 0 W/m -0,6 C 1,0 C 0,0 km/h (0 Bft)
03.05.2023 00:51 1,1 C -1,7 C 89 % 1029,3 hPa 0,0 l/m 0,0 km/h (0 Bft) N 0 0 min 0,0 UV-I 0 W/m -0,5 C 1,1 C 0,0 km/h (0 Bft)
03.05.2023 00:52 1,1 C -1,1 C 89 % 1029,3 hPa 0,0 l/m 0,0 km/h (0 Bft) N 360 0 min 0,0 UV-I 0 W/m -0,5 C 1,1 C 1,6 km/h (1 Bft)
03.05.2023 00:53 1,2 C -1,1 C 89 % 1029,2 hPa 0,0 l/m 0,0 km/h (0 Bft) N 360 0 min 0,0 UV-I 0 W/m -0,4 C 1,2 C 1,6 km/h (1 Bft)
03.05.2023 00:54 1,3 C -1,1 C 89 % 1029,2 hPa 0,0 l/m 1,6 km/h (1 Bft) N 360 0 min 0,0 UV-I 0 W/m -0,3 C 1,3 C 3,2 km/h (1 Bft)
03.05.2023 00:55 1,3 C -1,1 C 89 % 1029,2 hPa 0,0 l/m 0,0 km/h (0 Bft) N 360 0 min 0,0 UV-I 0 W/m -0,3 C 1,3 C 1,6 km/h (1 Bft)
03.05.2023 00:56 1,3 C -1,1 C 89 % 1029,2 hPa 0,0 l/m 0,0 km/h (0 Bft) N 0 0 min 0,0 UV-I 0 W/m -0,3 C 1,3 C 0,0 km/h (0 Bft)
03.05.2023 00:57 1,3 C -1,1 C 89 % 1029,2 hPa 0,0 l/m 0,0 km/h (0 Bft) N 0 0 min 0,0 UV-I 0 W/m -0,3 C 1,3 C 0,0 km/h (0 Bft)
03.05.2023 00:58 1,3 C -1,1 C 88 % 1029,2 hPa 0,0 l/m 0,0 km/h (0 Bft) N 0 0 min 0,0 UV-I 0 W/m -0,5 C 1,3 C 0,0 km/h (0 Bft)
03.05.2023 00:59 1,3 C -1,1 C 88 % 1029,2 hPa 0,0 l/m 0,0 km/h (0 Bft) N 360 0 min 0,0 UV-I 0 W/m -0,5 C 1,3 C 1,6 km/h (1 Bft)
03.05.2023 01:00 1,4 C -1,1 C 88 % 1029,1 hPa 0,0 l/m 0,0 km/h (0 Bft) N 0 0 min 0,0 UV-I 0 W/m -0,4 C 1,4 C 0,0 km/h (0 Bft)
03.05.2023 01:01 1,4 C -1,1 C 88 % 1029,2 hPa 0,0 l/m 0,0 km/h (0 Bft) N 0 0 min 0,0 UV-I 0 W/m -0,4 C 1,4 C 0,0 km/h (0 Bft)
03.05.2023 01:02 1,4 C -1,7 C 88 % 1029,2 hPa 0,0 l/m 0,0 km/h (0 Bft) N 360 0 min 0,0 UV-I 0 W/m -0,4 C 1,4 C 1,6 km/h (1 Bft)
03.05.2023 01:03 1,4 C -1,1 C 88 % 1029,1 hPa 0,0 l/m 0,0 km/h (0 Bft) N 360 0 min 0,0 UV-I 0 W/m -0,4 C 1,4 C 1,6 km/h (1 Bft)
03.05.2023 01:04 1,4 C -1,1 C 88 % 1029,2 hPa 0,0 l/m 0,0 km/h (0 Bft) N 0 0 min 0,0 UV-I 0 W/m -0,4 C 1,4 C 0,0 km/h (0 Bft)
03.05.2023 01:05 1,4 C -1,1 C 88 % 1029,2 hPa 0,0 l/m 0,0 km/h (0 Bft) N 0 0 min 0,0 UV-I 0 W/m -0,4 C 1,4 C 0,0 km/h (0 Bft)
03.05.2023 01:06 1,4 C -1,1 C 88 % 1029,2 hPa 0,0 l/m 0,0 km/h (0 Bft) N 0 0 min 0,0 UV-I 0 W/m -0,4 C 1,4 C 0,0 km/h (0 Bft)
03.05.2023 01:07 1,4 C -1,1 C 88 % 1029,2 hPa 0,0 l/m 0,0 km/h (0 Bft) N 0 0 min 0,0 UV-I 0 W/m -0,4 C 1,4 C 0,0 km/h (0 Bft)
03.05.2023 01:08 1,4 C -1,1 C 88 % 1029,1 hPa 0,0 l/m 0,0 km/h (0 Bft) N 0 0 min 0,0 UV-I 0 W/m -0,4 C 1,4 C 0,0 km/h (0 Bft)
03.05.2023 01:09 1,4 C -1,1 C 88 % 1029,0 hPa 0,0 l/m 1,6 km/h (1 Bft) N 360 0 min 0,0 UV-I 0 W/m -0,4 C 1,4 C 3,2 km/h (1 Bft)
03.05.2023 01:10 1,4 C -1,1 C 88 % 1029,0 hPa 0,0 l/m 3,2 km/h (1 Bft) N 360 0 min 0,0 UV-I 0 W/m -0,4 C 1,4 C 4,8 km/h (1 Bft)
03.05.2023 01:11 1,4 C -1,1 C 88 % 1029,0 hPa 0,0 l/m 3,2 km/h (1 Bft) N 360 0 min 0,0 UV-I 0 W/m -0,4 C 1,4 C 4,8 km/h (1 Bft)
03.05.2023 01:12 1,5 C -1,1 C 88 % 1029,0 hPa 0,0 l/m 1,6 km/h (1 Bft) N 360 0 min 0,0 UV-I 0 W/m -0,3 C 1,5 C 3,2 km/h (1 Bft)
03.05.2023 01:13 1,6 C -1,1 C 88 % 1029,0 hPa 0,0 l/m 3,2 km/h (1 Bft) N 360 0 min 0,0 UV-I 0 W/m -0,2 C 1,6 C 3,2 km/h (1 Bft)
03.05.2023 01:14 1,6 C -1,1 C 88 % 1028,9 hPa 0,0 l/m 1,6 km/h (1 Bft) N 360 0 min 0,0 UV-I 0 W/m -0,2 C 1,6 C 3,2 km/h (1 Bft)
03.05.2023 01:15 1,7 C -1,1 C 88 % 1029,0 hPa 0,0 l/m 1,6 km/h (1 Bft) N 360 0 min 0,0 UV-I 0 W/m -0,1 C 1,7 C 3,2 km/h (1 Bft)
03.05.2023 01:16 1,6 C -1,1 C 87 % 1028,9 hPa 0,0 l/m 1,6 km/h (1 Bft) N 360 0 min 0,0 UV-I 0 W/m -0,3 C 1,6 C 3,2 km/h (1 Bft)
03.05.2023 01:17 1,6 C -1,1 C 87 % 1028,9 hPa 0,0 l/m 1,6 km/h (1 Bft) N 360 0 min 0,0 UV-I 0 W/m -0,3 C 1,6 C 3,2 km/h (1 Bft)
03.05.2023 01:18 1,6 C -1,1 C 87 % 1028,9 hPa 0,0 l/m 1,6 km/h (1 Bft) N 360 0 min 0,0 UV-I 0 W/m -0,3 C 1,6 C 3,2 km/h (1 Bft)
03.05.2023 01:19 1,6 C -1,1 C 87 % 1028,9 hPa 0,0 l/m 1,6 km/h (1 Bft) N 360 0 min 0,0 UV-I 0 W/m -0,3 C 1,6 C 3,2 km/h (1 Bft)
03.05.2023 01:20 1,7 C -1,1 C 87 % 1029,1 hPa 0,0 l/m 1,6 km/h (1 Bft) N 360 0 min 0,0 UV-I 0 W/m -0,2 C 1,7 C 3,2 km/h (1 Bft)
03.05.2023 01:21 1,7 C -1,1 C 87 % 1028,9 hPa 0,0 l/m 1,6 km/h (1 Bft) N 360 0 min 0,0 UV-I 0 W/m -0,2 C 1,7 C 3,2 km/h (1 Bft)
03.05.2023 01:22 1,7 C -1,1 C 87 % 1029,0 hPa 0,0 l/m 1,6 km/h (1 Bft) N 360 0 min 0,0 UV-I 0 W/m -0,2 C 1,7 C 3,2 km/h (1 Bft)
03.05.2023 01:23 1,7 C -1,1 C 87 % 1028,9 hPa 0,0 l/m 1,6 km/h (1 Bft) N 360 0 min 0,0 UV-I 0 W/m -0,2 C 1,7 C 3,2 km/h (1 Bft)
03.05.2023 01:24 1,7 C -1,1 C 87 % 1029,0 hPa 0,0 l/m 1,6 km/h (1 Bft) N 360 0 min 0,0 UV-I 0 W/m -0,2 C 1,7 C 3,2 km/h (1 Bft)
03.05.2023 01:25 1,7 C -1,1 C 87 % 1028,9 hPa 0,0 l/m 1,6 km/h (1 Bft) N 360 0 min 0,0 UV-I 0 W/m -0,2 C 1,7 C 3,2 km/h (1 Bft)
03.05.2023 01:26 1,7 C -1,1 C 87 % 1028,9 hPa 0,0 l/m 3,2 km/h (1 Bft) N 360 0 min 0,0 UV-I 0 W/m -0,2 C 1,7 C 3,2 km/h (1 Bft)
03.05.2023 01:27 1,7 C -1,1 C 87 % 1028,9 hPa 0,0 l/m 3,2 km/h (1 Bft) N 360 0 min 0,0 UV-I 0 W/m -0,2 C 1,7 C 3,2 km/h (1 Bft)
03.05.2023 01:28 1,6 C -1,1 C 87 % 1028,9 hPa 0,0 l/m 1,6 km/h (1 Bft) N 360 0 min 0,0 UV-I 0 W/m -0,3 C 1,6 C 3,2 km/h (1 Bft)
03.05.2023 01:29 1,4 C -1,1 C 87 % 1028,9 hPa 0,0 l/m 1,6 km/h (1 Bft) N 360 0 min 0,0 UV-I 0 W/m -0,5 C 1,4 C 3,2 km/h (1 Bft)
03.05.2023 01:30 1,3 C -1,1 C 86 % 1028,9 hPa 0,0 l/m 1,6 km/h (1 Bft) N 360 0 min 0,0 UV-I 0 W/m -0,8 C 1,3 C 3,2 km/h (1 Bft)
03.05.2023 01:31 1,2 C -1,1 C 86 % 1028,8 hPa 0,0 l/m 3,2 km/h (1 Bft) N 360 0 min 0,0 UV-I 0 W/m -0,9 C 1,2 C 3,2 km/h (1 Bft)
03.05.2023 01:32 1,1 C -1,1 C 86 % 1028,9 hPa 0,0 l/m 1,6 km/h (1 Bft) N 360 0 min 0,0 UV-I 0 W/m -1,0 C 1,1 C 3,2 km/h (1 Bft)
03.05.2023 01:33 1,0 C -1,1 C 86 % 1028,8 hPa 0,0 l/m 1,6 km/h (1 Bft) N 360 0 min 0,0 UV-I 0 W/m -1,1 C 1,0 C 3,2 km/h (1 Bft)
03.05.2023 01:34 1,0 C -1,1 C 87 % 1028,8 hPa 0,0 l/m 1,6 km/h (1 Bft) N 360 0 min 0,0 UV-I 0 W/m -0,9 C 1,0 C 3,2 km/h (1 Bft)
03.05.2023 01:35 1,1 C -1,1 C 87 % 1028,9 hPa 0,0 l/m 3,2 km/h (1 Bft) N 360 0 min 0,0 UV-I 0 W/m -0,8 C 1,1 C 3,2 km/h (1 Bft)
03.05.2023 01:36 1,1 C -1,1 C 87 % 1028,8 hPa 0,0 l/m 3,2 km/h (1 Bft) N 360 0 min 0,0 UV-I 0 W/m -0,8 C 1,1 C 4,8 km/h (1 Bft)
03.05.2023 01:37 1,1 C -1,1 C 88 % 1028,8 hPa 0,0 l/m 3,2 km/h (1 Bft) N 360 0 min 0,0 UV-I 0 W/m -0,7 C 1,1 C 4,8 km/h (1 Bft)
03.05.2023 01:38 1,2 C -1,1 C 88 % 1028,8 hPa 0,0 l/m 3,2 km/h (1 Bft) N 360 0 min 0,0 UV-I 0 W/m -0,6 C 1,2 C 4,8 km/h (1 Bft)
03.05.2023 01:39 1,2 C -1,1 C 88 % 1028,8 hPa 0,0 l/m 3,2 km/h (1 Bft) N 360 0 min 0,0 UV-I 0 W/m -0,6 C 1,2 C 4,8 km/h (1 Bft)
03.05.2023 01:40 1,2 C -1,1 C 88 % 1028,8 hPa 0,0 l/m 3,2 km/h (1 Bft) N 360 0 min 0,0 UV-I 0 W/m -0,6 C 1,2 C 4,8 km/h (1 Bft)
03.05.2023 01:41 1,2 C -1,1 C 88 % 1028,8 hPa 0,0 l/m 4,8 km/h (1 Bft) N 360 0 min 0,0 UV-I 0 W/m -0,6 C 1,2 C 6,4 km/h (2 Bft)
03.05.2023 01:42 1,3 C -1,1 C 88 % 1028,7 hPa 0,0 l/m 4,8 km/h (1 Bft) N 360 0 min 0,0 UV-I 0 W/m -0,5 C 1,3 C 6,4 km/h (2 Bft)
03.05.2023 01:43 1,3 C -1,1 C 88 % 1028,7 hPa 0,0 l/m 3,2 km/h (1 Bft) N 360 0 min 0,0 UV-I 0 W/m -0,5 C 1,3 C 6,4 km/h (2 Bft)
03.05.2023 01:44 1,2 C -1,1 C 88 % 1028,7 hPa 0,0 l/m 3,2 km/h (1 Bft) N 360 0 min 0,0 UV-I 0 W/m -0,6 C 1,2 C 4,8 km/h (1 Bft)
03.05.2023 01:45 1,2 C -1,1 C 88 % 1028,6 hPa 0,0 l/m 3,2 km/h (1 Bft) N 360 0 min 0,0 UV-I 0 W/m -0,6 C 1,2 C 3,2 km/h (1 Bft)
03.05.2023 01:46 1,1 C -1,1 C 88 % 1028,7 hPa 0,0 l/m 1,6 km/h (1 Bft) N 360 0 min 0,0 UV-I 0 W/m -0,7 C 1,1 C 3,2 km/h (1 Bft)
03.05.2023 01:47 1,1 C -1,1 C 88 % 1028,7 hPa 0,0 l/m 1,6 km/h (1 Bft) N 360 0 min 0,0 UV-I 0 W/m -0,7 C 1,1 C 3,2 km/h (1 Bft)
03.05.2023 01:48 1,1 C -1,7 C 88 % 1028,7 hPa 0,0 l/m 1,6 km/h (1 Bft) N 360 0 min 0,0 UV-I 0 W/m -0,7 C 1,1 C 1,6 km/h (1 Bft)
03.05.2023 01:49 1,1 C -1,7 C 88 % 1028,7 hPa 0,0 l/m 3,2 km/h (1 Bft) N 360 0 min 0,0 UV-I 0 W/m -0,7 C 1,1 C 3,2 km/h (1 Bft)
03.05.2023 01:50 1,1 C -1,1 C 88 % 1028,7 hPa 0,0 l/m 3,2 km/h (1 Bft) N 360 0 min 0,0 UV-I 0 W/m -0,7 C 1,1 C 3,2 km/h (1 Bft)
03.05.2023 01:51 1,1 C -1,1 C 88 % 1028,8 hPa 0,0 l/m 3,2 km/h (1 Bft) N 360 0 min 0,0 UV-I 0 W/m -0,7 C 1,1 C 3,2 km/h (1 Bft)
03.05.2023 01:52 1,1 C -1,1 C 88 % 1028,8 hPa 0,0 l/m 3,2 km/h (1 Bft) N 360 0 min 0,0 UV-I 0 W/m -0,7 C 1,1 C 4,8 km/h (1 Bft)
03.05.2023 01:53 1,1 C -1,1 C 88 % 1028,7 hPa 0,0 l/m 3,2 km/h (1 Bft) N 360 0 min 0,0 UV-I 0 W/m -0,7 C 1,1 C 4,8 km/h (1 Bft)
03.05.2023 01:54 1,1 C -1,1 C 88 % 1028,6 hPa 0,0 l/m 3,2 km/h (1 Bft) N 360 0 min 0,0 UV-I 0 W/m -0,7 C 1,1 C 3,2 km/h (1 Bft)
03.05.2023 01:55 1,2 C -1,1 C 88 % 1028,6 hPa 0,0 l/m 3,2 km/h (1 Bft) N 360 0 min 0,0 UV-I 0 W/m -0,6 C 1,2 C 4,8 km/h (1 Bft)
03.05.2023 01:56 1,1 C -1,1 C 88 % 1028,6 hPa 0,0 l/m 1,6 km/h (1 Bft) N 360 0 min 0,0 UV-I 0 W/m -0,7 C 1,1 C 3,2 km/h (1 Bft)
03.05.2023 01:57 1,1 C -1,1 C 88 % 1028,6 hPa 0,0 l/m 1,6 km/h (1 Bft) N 360 0 min 0,0 UV-I 0 W/m -0,7 C 1,1 C 3,2 km/h (1 Bft)
03.05.2023 01:58 1,1 C -1,1 C 88 % 1028,7 hPa 0,0 l/m 3,2 km/h (1 Bft) N 360 0 min 0,0 UV-I 0 W/m -0,7 C 1,1 C 4,8 km/h (1 Bft)
03.05.2023 01:59 1,0 C -1,1 C 88 % 1028,6 hPa 0,0 l/m 3,2 km/h (1 Bft) N 360 0 min 0,0 UV-I 0 W/m -0,8 C 1,0 C 4,8 km/h (1 Bft)
03.05.2023 02:00 0,9 C -1,1 C 88 % 1028,6 hPa 0,0 l/m 3,2 km/h (1 Bft) N 360 0 min 0,0 UV-I 0 W/m -0,9 C 0,9 C 4,8 km/h (1 Bft)
03.05.2023 02:01 0,8 C -1,1 C 88 % 1028,7 hPa 0,0 l/m 3,2 km/h (1 Bft) N 360 0 min 0,0 UV-I 0 W/m -1,0 C 0,8 C 4,8 km/h (1 Bft)
03.05.2023 02:02 0,7 C -1,1 C 88 % 1028,7 hPa 0,0 l/m 3,2 km/h (1 Bft) N 360 0 min 0,0 UV-I 0 W/m -1,1 C 0,7 C 4,8 km/h (1 Bft)
03.05.2023 02:03 0,7 C -1,7 C 88 % 1028,7 hPa 0,0 l/m 3,2 km/h (1 Bft) N 360 0 min 0,0 UV-I 0 W/m -1,1 C 0,7 C 3,2 km/h (1 Bft)
03.05.2023 02:04 0,6 C -1,7 C 88 % 1028,8 hPa 0,0 l/m 3,2 km/h (1 Bft) N 360 0 min 0,0 UV-I 0 W/m -1,2 C 0,6 C 4,8 km/h (1 Bft)
03.05.2023 02:05 0,4 C -1,7 C 88 % 1028,7 hPa 0,0 l/m 3,2 km/h (1 Bft) N 360 0 min 0,0 UV-I 0 W/m -1,3 C 0,4 C 3,2 km/h (1 Bft)
03.05.2023 02:06 0,4 C -1,7 C 88 % 1028,8 hPa 0,0 l/m 3,2 km/h (1 Bft) N 360 0 min 0,0 UV-I 0 W/m -1,3 C 0,4 C 4,8 km/h (1 Bft)
03.05.2023 02:07 0,3 C -2,2 C 88 % 1028,8 hPa 0,0 l/m 3,2 km/h (1 Bft) N 360 0 min 0,0 UV-I 0 W/m -1,4 C 0,3 C 3,2 km/h (1 Bft)
03.05.2023 02:08 0,3 C -1,7 C 88 % 1028,7 hPa 0,0 l/m 3,2 km/h (1 Bft) N 360 0 min 0,0 UV-I 0 W/m -1,4 C 0,3 C 3,2 km/h (1 Bft)
03.05.2023 02:09 0,3 C -1,7 C 88 % 1028,7 hPa 0,0 l/m 1,6 km/h (1 Bft) N 360 0 min 0,0 UV-I 0 W/m -1,4 C 0,3 C 3,2 km/h (1 Bft)
03.05.2023 02:10 0,3 C -1,7 C 89 % 1028,7 hPa 0,0 l/m 3,2 km/h (1 Bft) N 360 0 min 0,0 UV-I 0 W/m -1,3 C 0,3 C 3,2 km/h (1 Bft)
03.05.2023 02:11 0,3 C -1,7 C 89 % 1028,7 hPa 0,0 l/m 3,2 km/h (1 Bft) N 360 0 min 0,0 UV-I 0 W/m -1,3 C 0,3 C 3,2 km/h (1 Bft)
03.05.2023 02:12 0,4 C -2,2 C 89 % 1028,8 hPa 0,0 l/m 1,6 km/h (1 Bft) N 360 0 min 0,0 UV-I 0 W/m -1,2 C 0,4 C 1,6 km/h (1 Bft)
03.05.2023 02:13 0,3 C -2,2 C 89 % 1028,8 hPa 0,0 l/m 1,6 km/h (1 Bft) N 360 0 min 0,0 UV-I 0 W/m -1,3 C 0,3 C 1,6 km/h (1 Bft)
03.05.2023 02:14 0,3 C -2,2 C 88 % 1028,7 hPa 0,0 l/m 1,6 km/h (1 Bft) N 360 0 min 0,0 UV-I 0 W/m -1,4 C 0,3 C 3,2 km/h (1 Bft)
03.05.2023 02:15 0,3 C -1,7 C 88 % 1028,7 hPa 0,0 l/m 1,6 km/h (1 Bft) N 360 0 min 0,0 UV-I 0 W/m -1,4 C 0,3 C 3,2 km/h (1 Bft)
03.05.2023 02:16 0,2 C -1,7 C 88 % 1028,6 hPa 0,0 l/m 3,2 km/h (1 Bft) N 360 0 min 0,0 UV-I 0 W/m -1,5 C 0,2 C 3,2 km/h (1 Bft)
03.05.2023 02:17 0,2 C -1,7 C 88 % 1028,6 hPa 0,0 l/m 3,2 km/h (1 Bft) N 360 0 min 0,0 UV-I 0 W/m -1,5 C 0,2 C 3,2 km/h (1 Bft)
03.05.2023 02:18 0,2 C -1,7 C 88 % 1028,7 hPa 0,0 l/m 3,2 km/h (1 Bft) N 360 0 min 0,0 UV-I 0 W/m -1,5 C 0,2 C 3,2 km/h (1 Bft)
03.05.2023 02:19 0,2 C -1,7 C 89 % 1028,7 hPa 0,0 l/m 3,2 km/h (1 Bft) N 360 0 min 0,0 UV-I 0 W/m -1,4 C 0,2 C 4,8 km/h (1 Bft)
03.05.2023 02:20 0,2 C -1,7 C 89 % 1028,6 hPa 0,0 l/m 1,6 km/h (1 Bft) N 360 0 min 0,0 UV-I 0 W/m -1,4 C 0,2 C 3,2 km/h (1 Bft)
03.05.2023 02:21 0,1 C -1,7 C 89 % 1028,6 hPa 0,0 l/m 0,0 km/h (0 Bft) N 360 0 min 0,0 UV-I 0 W/m -1,5 C 0,1 C 1,6 km/h (1 Bft)
03.05.2023 02:22 0,1 C -2,2 C 89 % 1028,6 hPa 0,0 l/m 1,6 km/h (1 Bft) N 360 0 min 0,0 UV-I 0 W/m -1,5 C 0,1 C 4,8 km/h (1 Bft)
03.05.2023 02:23 0,1 C -2,2 C 89 % 1028,6 hPa 0,0 l/m 0,0 km/h (0 Bft) N 360 0 min 0,0 UV-I 0 W/m -1,5 C 0,1 C 1,6 km/h (1 Bft)
03.05.2023 02:24 0,0 C -2,2 C 89 % 1028,6 hPa 0,0 l/m 1,6 km/h (1 Bft) N 360 0 min 0,0 UV-I 0 W/m -1,6 C 0,0 C 1,6 km/h (1 Bft)
03.05.2023 02:25 0,0 C -2,2 C 89 % 1028,5 hPa 0,0 l/m 0,0 km/h (0 Bft) N 360 0 min 0,0 UV-I 0 W/m -1,6 C 0,0 C 1,6 km/h (1 Bft)
03.05.2023 02:26 0,0 C -2,2 C 89 % 1028,5 hPa 0,0 l/m 0,0 km/h (0 Bft) N 360 0 min 0,0 UV-I 0 W/m -1,6 C 0,0 C 1,6 km/h (1 Bft)
03.05.2023 02:27 -0,1 C -2,2 C 89 % 1028,6 hPa 0,0 l/m 0,0 km/h (0 Bft) N 0 0 min 0,0 UV-I 0 W/m -1,7 C -0,1 C 0,0 km/h (0 Bft)
03.05.2023 02:28 -0,1 C -2,2 C 89 % 1028,6 hPa 0,0 l/m 0,0 km/h (0 Bft) N 0 0 min 0,0 UV-I 0 W/m -1,7 C -0,1 C 0,0 km/h (0 Bft)
03.05.2023 02:29 -0,1 C -2,2 C 89 % 1028,5 hPa 0,0 l/m 0,0 km/h (0 Bft) N 0 0 min 0,0 UV-I 0 W/m -1,7 C -0,1 C 0,0 km/h (0 Bft)
03.05.2023 02:30 -0,1 C -2,2 C 89 % 1028,5 hPa 0,0 l/m 0,0 km/h (0 Bft) N 0 0 min 0,0 UV-I 0 W/m -1,7 C -0,1 C 0,0 km/h (0 Bft)
03.05.2023 02:31 -0,1 C -2,2 C 89 % 1028,5 hPa 0,0 l/m 0,0 km/h (0 Bft) N 0 0 min 0,0 UV-I 0 W/m -1,7 C -0,1 C 0,0 km/h (0 Bft)
03.05.2023 02:32 -0,1 C -2,2 C 89 % 1028,6 hPa 0,0 l/m 0,0 km/h (0 Bft) N 0 0 min 0,0 UV-I 0 W/m -1,7 C -0,1 C 0,0 km/h (0 Bft)
03.05.2023 02:33 -0,1 C -2,2 C 89 % 1028,5 hPa 0,0 l/m 0,0 km/h (0 Bft) N 0 0 min 0,0 UV-I 0 W/m -1,7 C -0,1 C 0,0 km/h (0 Bft)
03.05.2023 02:34 -0,1 C -2,2 C 89 % 1028,5 hPa 0,0 l/m 0,0 km/h (0 Bft) N 0 0 min 0,0 UV-I 0 W/m -1,7 C -0,1 C 0,0 km/h (0 Bft)
03.05.2023 02:35 -0,1 C -2,2 C 89 % 1028,5 hPa 0,0 l/m 0,0 km/h (0 Bft) N 0 0 min 0,0 UV-I 0 W/m -1,7 C -0,1 C 0,0 km/h (0 Bft)
03.05.2023 02:36 -0,1 C -2,2 C 89 % 1028,5 hPa 0,0 l/m 0,0 km/h (0 Bft) N 0 0 min 0,0 UV-I 0 W/m -1,7 C -0,1 C 0,0 km/h (0 Bft)
03.05.2023 02:37 -0,1 C -2,2 C 89 % 1028,5 hPa 0,0 l/m 0,0 km/h (0 Bft) N 0 0 min 0,0 UV-I 0 W/m -1,7 C -0,1 C 0,0 km/h (0 Bft)
03.05.2023 02:38 -0,2 C -2,2 C 89 % 1028,5 hPa 0,0 l/m 0,0 km/h (0 Bft) N 0 0 min 0,0 UV-I 0 W/m -1,8 C -0,2 C 0,0 km/h (0 Bft)
03.05.2023 02:39 -0,2 C -2,2 C 89 % 1028,5 hPa 0,0 l/m 0,0 km/h (0 Bft) N 360 0 min 0,0 UV-I 0 W/m -1,8 C -0,2 C 1,6 km/h (1 Bft)
03.05.2023 02:40 -0,2 C -2,2 C 89 % 1028,5 hPa 0,0 l/m 1,6 km/h (1 Bft) N 360 0 min 0,0 UV-I 0 W/m -1,8 C -0,2 C 3,2 km/h (1 Bft)
03.05.2023 02:41 -0,2 C -2,2 C 89 % 1028,5 hPa 0,0 l/m 3,2 km/h (1 Bft) N 360 0 min 0,0 UV-I 0 W/m -1,8 C -0,2 C 3,2 km/h (1 Bft)
03.05.2023 02:42 -0,1 C -2,2 C 89 % 1028,5 hPa 0,0 l/m 3,2 km/h (1 Bft) N 360 0 min 0,0 UV-I 0 W/m -1,7 C -0,1 C 4,8 km/h (1 Bft)
03.05.2023 02:43 -0,1 C -2,2 C 89 % 1028,5 hPa 0,0 l/m 1,6 km/h (1 Bft) N 360 0 min 0,0 UV-I 0 W/m -1,7 C -0,1 C 3,2 km/h (1 Bft)
03.05.2023 02:44 -0,1 C -2,2 C 90 % 1028,5 hPa 0,0 l/m 1,6 km/h (1 Bft) N 360 0 min 0,0 UV-I 0 W/m -1,5 C -0,1 C 1,6 km/h (1 Bft)
03.05.2023 02:45 0,0 C -2,2 C 90 % 1028,5 hPa 0,0 l/m 1,6 km/h (1 Bft) N 360 0 min 0,0 UV-I 0 W/m -1,4 C 0,0 C 3,2 km/h (1 Bft)
03.05.2023 02:46 0,0 C -2,2 C 90 % 1028,5 hPa 0,0 l/m 3,2 km/h (1 Bft) N 360 0 min 0,0 UV-I 0 W/m -1,4 C 0,0 C 3,2 km/h (1 Bft)
03.05.2023 02:47 0,1 C -2,2 C 90 % 1028,5 hPa 0,0 l/m 3,2 km/h (1 Bft) N 360 0 min 0,0 UV-I 0 W/m -1,3 C 0,1 C 3,2 km/h (1 Bft)
03.05.2023 02:48 0,2 C -2,2 C 90 % 1028,5 hPa 0,0 l/m 1,6 km/h (1 Bft) N 360 0 min 0,0 UV-I 0 W/m -1,2 C 0,2 C 3,2 km/h (1 Bft)
03.05.2023 02:49 0,2 C -2,2 C 90 % 1028,5 hPa 0,0 l/m 0,0 km/h (0 Bft) N 360 0 min 0,0 UV-I 0 W/m -1,2 C 0,2 C 1,6 km/h (1 Bft)
03.05.2023 02:50 0,2 C -2,2 C 89 % 1028,5 hPa 0,0 l/m 0,0 km/h (0 Bft) N 0 0 min 0,0 UV-I 0 W/m -1,4 C 0,2 C 0,0 km/h (0 Bft)
03.05.2023 02:51 0,0 C -2,2 C 89 % 1028,5 hPa 0,0 l/m 0,0 km/h (0 Bft) N 0 0 min 0,0 UV-I 0 W/m -1,6 C 0,0 C 0,0 km/h (0 Bft)
03.05.2023 02:52 -0,1 C -2,2 C 89 % 1028,6 hPa 0,0 l/m 0,0 km/h (0 Bft) N 0 0 min 0,0 UV-I 0 W/m -1,7 C -0,1 C 0,0 km/h (0 Bft)
03.05.2023 02:53 -0,3 C -2,8 C 89 % 1028,6 hPa 0,0 l/m 0,0 km/h (0 Bft) N 0 0 min 0,0 UV-I 0 W/m -1,9 C -0,3 C 0,0 km/h (0 Bft)
03.05.2023 02:54 -0,3 C -2,8 C 89 % 1028,5 hPa 0,0 l/m 0,0 km/h (0 Bft) N 360 0 min 0,0 UV-I 0 W/m -1,9 C -0,3 C 1,6 km/h (1 Bft)
03.05.2023 02:55 -0,4 C -2,8 C 89 % 1028,5 hPa 0,0 l/m 0,0 km/h (0 Bft) N 0 0 min 0,0 UV-I 0 W/m -2,0 C -0,4 C 0,0 km/h (0 Bft)
03.05.2023 02:56 -0,4 C -2,8 C 89 % 1028,5 hPa 0,0 l/m 0,0 km/h (0 Bft) N 360 0 min 0,0 UV-I 0 W/m -2,0 C -0,4 C 1,6 km/h (1 Bft)
03.05.2023 02:57 -0,4 C -2,2 C 89 % 1028,6 hPa 0,0 l/m 0,0 km/h (0 Bft) N 0 0 min 0,0 UV-I 0 W/m -2,0 C -0,4 C 0,0 km/h (0 Bft)
03.05.2023 02:58 -0,4 C -2,8 C 89 % 1028,6 hPa 0,0 l/m 0,0 km/h (0 Bft) N 360 0 min 0,0 UV-I 0 W/m -2,0 C -0,4 C 1,6 km/h (1 Bft)
03.05.2023 02:59 -0,4 C -2,8 C 89 % 1028,5 hPa 0,0 l/m 0,0 km/h (0 Bft) N 360 0 min 0,0 UV-I 0 W/m -2,0 C -0,4 C 1,6 km/h (1 Bft)
03.05.2023 03:00 -0,4 C -2,8 C 89 % 1028,5 hPa 0,0 l/m 0,0 km/h (0 Bft) N 0 0 min 0,0 UV-I 0 W/m -2,0 C -0,4 C 0,0 km/h (0 Bft)
03.05.2023 03:01 -0,4 C -2,8 C 90 % 1028,6 hPa 0,0 l/m 0,0 km/h (0 Bft) N 0 0 min 0,0 UV-I 0 W/m -1,8 C -0,4 C 0,0 km/h (0 Bft)
03.05.2023 03:02 -0,4 C -2,8 C 90 % 1028,6 hPa 0,0 l/m 0,0 km/h (0 Bft) N 0 0 min 0,0 UV-I 0 W/m -1,8 C -0,4 C 0,0 km/h (0 Bft)
03.05.2023 03:03 -0,5 C -2,8 C 89 % 1028,6 hPa 0,0 l/m 0,0 km/h (0 Bft) N 0 0 min 0,0 UV-I 0 W/m -2,1 C -0,5 C 0,0 km/h (0 Bft)
03.05.2023 03:04 -0,5 C -2,8 C 89 % 1028,6 hPa 0,0 l/m 0,0 km/h (0 Bft) N 360 0 min 0,0 UV-I 0 W/m -2,1 C -0,5 C 1,6 km/h (1 Bft)
03.05.2023 03:05 -0,6 C -2,8 C 89 % 1028,5 hPa 0,0 l/m 0,0 km/h (0 Bft) N 360 0 min 0,0 UV-I 0 W/m -2,2 C -0,6 C 1,6 km/h (1 Bft)
03.05.2023 03:06 -0,7 C -2,2 C 89 % 1028,6 hPa 0,0 l/m 0,0 km/h (0 Bft) N 360 0 min 0,0 UV-I 0 W/m -2,3 C -0,7 C 1,6 km/h (1 Bft)
03.05.2023 03:07 -0,7 C -2,8 C 89 % 1028,6 hPa 0,0 l/m 0,0 km/h (0 Bft) N 0 0 min 0,0 UV-I 0 W/m -2,3 C -0,7 C 0,0 km/h (0 Bft)
03.05.2023 03:08 -0,7 C -2,8 C 89 % 1028,6 hPa 0,0 l/m 0,0 km/h (0 Bft) N 0 0 min 0,0 UV-I 0 W/m -2,3 C -0,7 C 0,0 km/h (0 Bft)
03.05.2023 03:09 -0,7 C -2,8 C 90 % 1028,6 hPa 0,0 l/m 0,0 km/h (0 Bft) N 0 0 min 0,0 UV-I 0 W/m -2,1 C -0,7 C 0,0 km/h (0 Bft)
03.05.2023 03:10 -0,7 C -2,8 C 90 % 1028,6 hPa 0,0 l/m 0,0 km/h (0 Bft) N 360 0 min 0,0 UV-I 0 W/m -2,1 C -0,7 C 1,6 km/h (1 Bft)
03.05.2023 03:11 -0,7 C -2,8 C 89 % 1028,5 hPa 0,0 l/m 1,6 km/h (1 Bft) N 360 0 min 0,0 UV-I 0 W/m -2,3 C -0,7 C 1,6 km/h (1 Bft)
03.05.2023 03:12 -0,8 C -2,8 C 89 % 1028,7 hPa 0,0 l/m 1,6 km/h (1 Bft) N 360 0 min 0,0 UV-I 0 W/m -2,4 C -0,8 C 1,6 km/h (1 Bft)
03.05.2023 03:13 -0,9 C -2,8 C 89 % 1028,6 hPa 0,0 l/m 1,6 km/h (1 Bft) N 360 0 min 0,0 UV-I 0 W/m -2,5 C -0,9 C 1,6 km/h (1 Bft)
03.05.2023 03:14 -0,8 C -2,8 C 90 % 1028,6 hPa 0,0 l/m 1,6 km/h (1 Bft) N 360 0 min 0,0 UV-I 0 W/m -2,2 C -0,8 C 1,6 km/h (1 Bft)
03.05.2023 03:15 -0,8 C -2,8 C 90 % 1028,5 hPa 0,0 l/m 0,0 km/h (0 Bft) N 360 0 min 0,0 UV-I 0 W/m -2,2 C -0,8 C 1,6 km/h (1 Bft)
03.05.2023 03:16 -0,8 C -2,8 C 90 % 1028,6 hPa 0,0 l/m 0,0 km/h (0 Bft) N 360 0 min 0,0 UV-I 0 W/m -2,2 C -0,8 C 1,6 km/h (1 Bft)
03.05.2023 03:17 -0,7 C -2,8 C 90 % 1028,5 hPa 0,0 l/m 0,0 km/h (0 Bft) N 360 0 min 0,0 UV-I 0 W/m -2,1 C -0,7 C 1,6 km/h (1 Bft)
03.05.2023 03:18 -0,7 C -2,8 C 90 % 1028,5 hPa 0,0 l/m 0,0 km/h (0 Bft) N 0 0 min 0,0 UV-I 0 W/m -2,1 C -0,7 C 0,0 km/h (0 Bft)
03.05.2023 03:19 -0,7 C -2,2 C 90 % 1028,5 hPa 0,0 l/m 0,0 km/h (0 Bft) N 0 0 min 0,0 UV-I 0 W/m -2,1 C -0,7 C 0,0 km/h (0 Bft)
03.05.2023 03:20 -0,7 C -2,2 C 90 % 1028,5 hPa 0,0 l/m 0,0 km/h (0 Bft) N 0 0 min 0,0 UV-I 0 W/m -2,1 C -0,7 C 0,0 km/h (0 Bft)
03.05.2023 03:21 -0,7 C -2,2 C 90 % 1028,5 hPa 0,0 l/m 0,0 km/h (0 Bft) N 0 0 min 0,0 UV-I 0 W/m -2,1 C -0,7 C 0,0 km/h (0 Bft)
03.05.2023 03:22 -0,8 C -2,2 C 90 % 1028,6 hPa 0,0 l/m 0,0 km/h (0 Bft) N 0 0 min 0,0 UV-I 0 W/m -2,2 C -0,8 C 0,0 km/h (0 Bft)
03.05.2023 03:23 -0,8 C -2,8 C 90 % 1028,6 hPa 0,0 l/m 0,0 km/h (0 Bft) N 0 0 min 0,0 UV-I 0 W/m -2,2 C -0,8 C 0,0 km/h (0 Bft)
03.05.2023 03:24 -0,8 C -2,2 C 89 % 1028,6 hPa 0,0 l/m 0,0 km/h (0 Bft) N 0 0 min 0,0 UV-I 0 W/m -2,4 C -0,8 C 0,0 km/h (0 Bft)
03.05.2023 03:25 -0,9 C -2,8 C 90 % 1028,5 hPa 0,0 l/m 0,0 km/h (0 Bft) N 0 0 min 0,0 UV-I 0 W/m -2,3 C -0,9 C 0,0 km/h (0 Bft)
03.05.2023 03:26 -0,8 C -2,8 C 90 % 1028,5 hPa 0,0 l/m 0,0 km/h (0 Bft) N 0 0 min 0,0 UV-I 0 W/m -2,2 C -0,8 C 0,0 km/h (0 Bft)
03.05.2023 03:27 -0,7 C -2,8 C 90 % 1028,5 hPa 0,0 l/m 0,0 km/h (0 Bft) N 0 0 min 0,0 UV-I 0 W/m -2,1 C -0,7 C 0,0 km/h (0 Bft)
03.05.2023 03:28 -0,7 C -2,8 C 90 % 1028,5 hPa 0,0 l/m 0,0 km/h (0 Bft) N 0 0 min 0,0 UV-I 0 W/m -2,1 C -0,7 C 0,0 km/h (0 Bft)
03.05.2023 03:29 -0,7 C -2,8 C 90 % 1028,5 hPa 0,0 l/m 0,0 km/h (0 Bft) N 0 0 min 0,0 UV-I 0 W/m -2,1 C -0,7 C 0,0 km/h (0 Bft)
03.05.2023 03:30 -0,7 C -2,8 C 90 % 1028,5 hPa 0,0 l/m 0,0 km/h (0 Bft) N 0 0 min 0,0 UV-I 0 W/m -2,1 C -0,7 C 0,0 km/h (0 Bft)
03.05.2023 03:31 -0,7 C -2,8 C 90 % 1028,5 hPa 0,0 l/m 0,0 km/h (0 Bft) N 0 0 min 0,0 UV-I 0 W/m -2,1 C -0,7 C 0,0 km/h (0 Bft)
03.05.2023 03:32 -0,7 C -2,8 C 90 % 1028,5 hPa 0,0 l/m 0,0 km/h (0 Bft) N 0 0 min 0,0 UV-I 0 W/m -2,1 C -0,7 C 0,0 km/h (0 Bft)
03.05.2023 03:33 -0,7 C -2,8 C 90 % 1028,5 hPa 0,0 l/m 0,0 km/h (0 Bft) N 0 0 min 0,0 UV-I 0 W/m -2,1 C -0,7 C 0,0 km/h (0 Bft)
03.05.2023 03:34 -0,7 C -2,8 C 90 % 1028,4 hPa 0,0 l/m 0,0 km/h (0 Bft) N 360 0 min 0,0 UV-I 0 W/m -2,1 C -0,7 C 1,6 km/h (1 Bft)
03.05.2023 03:35 -0,7 C -2,8 C 90 % 1028,5 hPa 0,0 l/m 0,0 km/h (0 Bft) N 0 0 min 0,0 UV-I 0 W/m -2,1 C -0,7 C 0,0 km/h (0 Bft)
03.05.2023 03:36 -0,8 C -2,8 C 90 % 1028,5 hPa 0,0 l/m 0,0 km/h (0 Bft) N 0 0 min 0,0 UV-I 0 W/m -2,2 C -0,8 C 0,0 km/h (0 Bft)
03.05.2023 03:37 -0,9 C -2,8 C 90 % 1028,6 hPa 0,0 l/m 0,0 km/h (0 Bft) N 0 0 min 0,0 UV-I 0 W/m -2,3 C -0,9 C 0,0 km/h (0 Bft)
03.05.2023 03:38 -0,9 C -2,8 C 90 % 1028,4 hPa 0,0 l/m 0,0 km/h (0 Bft) N 0 0 min 0,0 UV-I 0 W/m -2,3 C -0,9 C 0,0 km/h (0 Bft)
03.05.2023 03:39 -0,9 C -2,8 C 90 % 1028,5 hPa 0,0 l/m 0,0 km/h (0 Bft) N 0 0 min 0,0 UV-I 0 W/m -2,3 C -0,9 C 0,0 km/h (0 Bft)
03.05.2023 03:40 -0,9 C -2,8 C 90 % 1028,5 hPa 0,0 l/m 0,0 km/h (0 Bft) N 0 0 min 0,0 UV-I 0 W/m -2,3 C -0,9 C 0,0 km/h (0 Bft)
03.05.2023 03:41 -0,9 C -2,8 C 90 % 1028,4 hPa 0,0 l/m 0,0 km/h (0 Bft) N 0 0 min 0,0 UV-I 0 W/m -2,3 C -0,9 C 0,0 km/h (0 Bft)
03.05.2023 03:42 -0,9 C -2,8 C 90 % 1028,4 hPa 0,0 l/m 0,0 km/h (0 Bft) N 0 0 min 0,0 UV-I 0 W/m -2,3 C -0,9 C 0,0 km/h (0 Bft)
03.05.2023 03:43 -0,9 C -2,8 C 90 % 1028,5 hPa 0,0 l/m 0,0 km/h (0 Bft) N 0 0 min 0,0 UV-I 0 W/m -2,3 C -0,9 C 0,0 km/h (0 Bft)
03.05.2023 03:44 -0,9 C -2,8 C 90 % 1028,4 hPa 0,0 l/m 0,0 km/h (0 Bft) N 0 0 min 0,0 UV-I 0 W/m -2,3 C -0,9 C 0,0 km/h (0 Bft)
03.05.2023 03:45 -0,9 C -2,8 C 90 % 1028,5 hPa 0,0 l/m 0,0 km/h (0 Bft) N 0 0 min 0,0 UV-I 0 W/m -2,3 C -0,9 C 0,0 km/h (0 Bft)
03.05.2023 03:46 -0,9 C -3,3 C 90 % 1028,5 hPa 0,0 l/m 0,0 km/h (0 Bft) N 0 0 min 0,0 UV-I 0 W/m -2,3 C -0,9 C 0,0 km/h (0 Bft)
03.05.2023 03:47 -1,0 C -3,3 C 90 % 1028,5 hPa 0,0 l/m 0,0 km/h (0 Bft) N 0 0 min 0,0 UV-I 0 W/m -2,4 C -1,0 C 0,0 km/h (0 Bft)
03.05.2023 03:48 -1,1 C -3,3 C 90 % 1028,5 hPa 0,0 l/m 0,0 km/h (0 Bft) N 0 0 min 0,0 UV-I 0 W/m -2,5 C -1,1 C 0,0 km/h (0 Bft)
03.05.2023 03:49 -1,2 C -3,3 C 89 % 1028,5 hPa 0,0 l/m 0,0 km/h (0 Bft) N 0 0 min 0,0 UV-I 0 W/m -2,8 C -1,2 C 0,0 km/h (0 Bft)
03.05.2023 03:50 -1,3 C -3,3 C 90 % 1028,5 hPa 0,0 l/m 0,0 km/h (0 Bft) N 0 0 min 0,0 UV-I 0 W/m -2,7 C -1,3 C 0,0 km/h (0 Bft)
03.05.2023 03:51 -1,3 C -3,3 C 90 % 1028,5 hPa 0,0 l/m 0,0 km/h (0 Bft) N 0 0 min 0,0 UV-I 0 W/m -2,7 C -1,3 C 0,0 km/h (0 Bft)
03.05.2023 03:52 -1,3 C -2,8 C 90 % 1028,6 hPa 0,0 l/m 0,0 km/h (0 Bft) N 0 0 min 0,0 UV-I 0 W/m -2,7 C -1,3 C 0,0 km/h (0 Bft)
03.05.2023 03:53 -1,3 C -2,8 C 90 % 1028,5 hPa 0,0 l/m 0,0 km/h (0 Bft) N 0 0 min 0,0 UV-I 0 W/m -2,7 C -1,3 C 0,0 km/h (0 Bft)
03.05.2023 03:54 -1,2 C -2,8 C 90 % 1028,5 hPa 0,0 l/m 0,0 km/h (0 Bft) N 0 0 min 0,0 UV-I 0 W/m -2,6 C -1,2 C 0,0 km/h (0 Bft)
03.05.2023 03:55 -1,2 C -2,8 C 90 % 1028,5 hPa 0,0 l/m 0,0 km/h (0 Bft) N 0 0 min 0,0 UV-I 0 W/m -2,6 C -1,2 C 0,0 km/h (0 Bft)
03.05.2023 03:56 -1,2 C -2,8 C 90 % 1028,5 hPa 0,0 l/m 0,0 km/h (0 Bft) N 0 0 min 0,0 UV-I 0 W/m -2,6 C -1,2 C 0,0 km/h (0 Bft)
03.05.2023 03:57 -1,2 C -2,8 C 90 % 1028,5 hPa 0,0 l/m 0,0 km/h (0 Bft) N 0 0 min 0,0 UV-I 0 W/m -2,6 C -1,2 C 0,0 km/h (0 Bft)
03.05.2023 03:58 -1,2 C -2,8 C 90 % 1028,5 hPa 0,0 l/m 0,0 km/h (0 Bft) N 0 0 min 0,0 UV-I 0 W/m -2,6 C -1,2 C 0,0 km/h (0 Bft)
03.05.2023 03:59 -1,1 C -2,8 C 90 % 1028,5 hPa 0,0 l/m 0,0 km/h (0 Bft) N 0 0 min 0,0 UV-I 0 W/m -2,5 C -1,1 C 0,0 km/h (0 Bft)
03.05.2023 04:00 -1,1 C -2,8 C 91 % 1028,5 hPa 0,0 l/m 0,0 km/h (0 Bft) N 0 0 min 0,0 UV-I 0 W/m -2,4 C -1,1 C 0,0 km/h (0 Bft)
03.05.2023 04:01 -1,0 C -2,8 C 91 % 1028,6 hPa 0,0 l/m 0,0 km/h (0 Bft) N 0 0 min 0,0 UV-I 0 W/m -2,3 C -1,0 C 0,0 km/h (0 Bft)
03.05.2023 04:02 -1,0 C -2,8 C 90 % 1028,6 hPa 0,0 l/m 0,0 km/h (0 Bft) N 0 0 min 0,0 UV-I 0 W/m -2,4 C -1,0 C 0,0 km/h (0 Bft)
03.05.2023 04:03 -1,1 C -2,8 C 90 % 1028,6 hPa 0,0 l/m 0,0 km/h (0 Bft) N 0 0 min 0,0 UV-I 0 W/m -2,5 C -1,1 C 0,0 km/h (0 Bft)
03.05.2023 04:04 -1,1 C -2,8 C 90 % 1028,6 hPa 0,0 l/m 0,0 km/h (0 Bft) N 0 0 min 0,0 UV-I 0 W/m -2,5 C -1,1 C 0,0 km/h (0 Bft)
03.05.2023 04:05 -1,1 C -2,8 C 90 % 1028,5 hPa 0,0 l/m 0,0 km/h (0 Bft) N 0 0 min 0,0 UV-I 0 W/m -2,5 C -1,1 C 0,0 km/h (0 Bft)
03.05.2023 04:06 -1,1 C -3,3 C 90 % 1028,6 hPa 0,0 l/m 0,0 km/h (0 Bft) N 0 0 min 0,0 UV-I 0 W/m -2,5 C -1,1 C 0,0 km/h (0 Bft)
03.05.2023 04:07 -1,1 C -3,3 C 90 % 1028,6 hPa 0,0 l/m 0,0 km/h (0 Bft) N 0 0 min 0,0 UV-I 0 W/m -2,5 C -1,1 C 0,0 km/h (0 Bft)
03.05.2023 04:08 -1,1 C -3,3 C 90 % 1028,7 hPa 0,0 l/m 0,0 km/h (0 Bft) N 0 0 min 0,0 UV-I 0 W/m -2,5 C -1,1 C 0,0 km/h (0 Bft)
03.05.2023 04:09 -1,1 C -3,3 C 90 % 1028,7 hPa 0,0 l/m 0,0 km/h (0 Bft) N 0 0 min 0,0 UV-I 0 W/m -2,5 C -1,1 C 0,0 km/h (0 Bft)
03.05.2023 04:10 -1,2 C -3,3 C 90 % 1028,6 hPa 0,0 l/m 0,0 km/h (0 Bft) N 0 0 min 0,0 UV-I 0 W/m -2,6 C -1,2 C 0,0 km/h (0 Bft)
03.05.2023 04:11 -1,3 C -3,3 C 90 % 1028,6 hPa 0,0 l/m 0,0 km/h (0 Bft) N 0 0 min 0,0 UV-I 0 W/m -2,7 C -1,3 C 0,0 km/h (0 Bft)
03.05.2023 04:12 -1,4 C -3,3 C 90 % 1028,6 hPa 0,0 l/m 0,0 km/h (0 Bft) N 0 0 min 0,0 UV-I 0 W/m -2,8 C -1,4 C 0,0 km/h (0 Bft)
03.05.2023 04:13 -1,4 C -3,3 C 90 % 1028,7 hPa 0,0 l/m 0,0 km/h (0 Bft) N 0 0 min 0,0 UV-I 0 W/m -2,8 C -1,4 C 0,0 km/h (0 Bft)
03.05.2023 04:14 -1,4 C -3,3 C 90 % 1028,6 hPa 0,0 l/m 0,0 km/h (0 Bft) N 0 0 min 0,0 UV-I 0 W/m -2,8 C -1,4 C 0,0 km/h (0 Bft)
03.05.2023 04:15 -1,3 C -3,3 C 90 % 1028,8 hPa 0,0 l/m 0,0 km/h (0 Bft) N 0 0 min 0,0 UV-I 0 W/m -2,7 C -1,3 C 0,0 km/h (0 Bft)
03.05.2023 04:16 -1,3 C -3,3 C 91 % 1028,6 hPa 0,0 l/m 0,0 km/h (0 Bft) N 0 0 min 0,0 UV-I 0 W/m -2,6 C -1,3 C 0,0 km/h (0 Bft)
03.05.2023 04:17 -1,2 C -3,3 C 91 % 1028,8 hPa 0,0 l/m 0,0 km/h (0 Bft) N 0 0 min 0,0 UV-I 0 W/m -2,5 C -1,2 C 0,0 km/h (0 Bft)
03.05.2023 04:18 -1,2 C -3,3 C 90 % 1028,8 hPa 0,0 l/m 0,0 km/h (0 Bft) N 0 0 min 0,0 UV-I 0 W/m -2,6 C -1,2 C 0,0 km/h (0 Bft)
03.05.2023 04:19 -1,2 C -3,3 C 90 % 1028,7 hPa 0,0 l/m 0,0 km/h (0 Bft) N 0 0 min 0,0 UV-I 0 W/m -2,6 C -1,2 C 0,0 km/h (0 Bft)
03.05.2023 04:20 -1,3 C -3,3 C 90 % 1028,7 hPa 0,0 l/m 0,0 km/h (0 Bft) N 0 0 min 0,0 UV-I 0 W/m -2,7 C -1,3 C 0,0 km/h (0 Bft)
03.05.2023 04:21 -1,3 C -3,3 C 90 % 1028,7 hPa 0,0 l/m 0,0 km/h (0 Bft) N 0 0 min 0,0 UV-I 0 W/m -2,7 C -1,3 C 0,0 km/h (0 Bft)
03.05.2023 04:22 -1,4 C -3,3 C 90 % 1028,7 hPa 0,0 l/m 0,0 km/h (0 Bft) N 0 0 min 0,0 UV-I 0 W/m -2,8 C -1,4 C 0,0 km/h (0 Bft)
03.05.2023 04:23 -1,4 C -3,3 C 90 % 1028,7 hPa 0,0 l/m 0,0 km/h (0 Bft) N 0 0 min 0,0 UV-I 0 W/m -2,8 C -1,4 C 0,0 km/h (0 Bft)
03.05.2023 04:24 -1,4 C -3,3 C 90 % 1028,7 hPa 0,0 l/m 0,0 km/h (0 Bft) N 0 0 min 0,0 UV-I 0 W/m -2,8 C -1,4 C 0,0 km/h (0 Bft)
03.05.2023 04:25 -1,4 C -3,3 C 90 % 1028,8 hPa 0,0 l/m 0,0 km/h (0 Bft) N 0 0 min 0,0 UV-I 0 W/m -2,8 C -1,4 C 0,0 km/h (0 Bft)
03.05.2023 04:26 -1,3 C -3,3 C 90 % 1028,7 hPa 0,0 l/m 0,0 km/h (0 Bft) N 0 0 min 0,0 UV-I 0 W/m -2,7 C -1,3 C 0,0 km/h (0 Bft)
03.05.2023 04:27 -1,3 C -3,3 C 90 % 1028,7 hPa 0,0 l/m 0,0 km/h (0 Bft) N 0 0 min 0,0 UV-I 0 W/m -2,7 C -1,3 C 0,0 km/h (0 Bft)
03.05.2023 04:28 -1,3 C -3,3 C 90 % 1028,7 hPa 0,0 l/m 0,0 km/h (0 Bft) N 0 0 min 0,0 UV-I 0 W/m -2,7 C -1,3 C 0,0 km/h (0 Bft)
03.05.2023 04:29 -1,3 C -3,3 C 90 % 1028,7 hPa 0,0 l/m 0,0 km/h (0 Bft) N 0 0 min 0,0 UV-I 0 W/m -2,7 C -1,3 C 0,0 km/h (0 Bft)
03.05.2023 04:30 -1,3 C -3,3 C 90 % 1028,7 hPa 0,0 l/m 0,0 km/h (0 Bft) N 0 0 min 0,0 UV-I 0 W/m -2,7 C -1,3 C 0,0 km/h (0 Bft)
03.05.2023 04:31 -1,3 C -3,3 C 91 % 1028,7 hPa 0,0 l/m 0,0 km/h (0 Bft) N 0 0 min 0,0 UV-I 0 W/m -2,6 C -1,3 C 0,0 km/h (0 Bft)
03.05.2023 04:32 -1,3 C -3,3 C 91 % 1028,6 hPa 0,0 l/m 0,0 km/h (0 Bft) N 0 0 min 0,0 UV-I 0 W/m -2,6 C -1,3 C 0,0 km/h (0 Bft)
03.05.2023 04:33 -1,2 C -3,3 C 91 % 1028,6 hPa 0,0 l/m 0,0 km/h (0 Bft) N 0 0 min 0,0 UV-I 0 W/m -2,5 C -1,2 C 0,0 km/h (0 Bft)
03.05.2023 04:34 -1,3 C -3,3 C 91 % 1028,6 hPa 0,0 l/m 0,0 km/h (0 Bft) N 0 0 min 0,0 UV-I 0 W/m -2,6 C -1,3 C 0,0 km/h (0 Bft)
03.05.2023 04:35 -1,3 C -3,3 C 90 % 1028,7 hPa 0,0 l/m 0,0 km/h (0 Bft) N 0 0 min 0,0 UV-I 0 W/m -2,7 C -1,3 C 0,0 km/h (0 Bft)
03.05.2023 04:36 -1,3 C -3,3 C 90 % 1028,7 hPa 0,0 l/m 0,0 km/h (0 Bft) N 0 0 min 0,0 UV-I 0 W/m -2,7 C -1,3 C 0,0 km/h (0 Bft)
03.05.2023 04:37 -1,3 C -3,3 C 90 % 1028,7 hPa 0,0 l/m 0,0 km/h (0 Bft) N 0 0 min 0,0 UV-I 0 W/m -2,7 C -1,3 C 0,0 km/h (0 Bft)
03.05.2023 04:38 -1,3 C -3,3 C 90 % 1028,7 hPa 0,0 l/m 0,0 km/h (0 Bft) N 0 0 min 0,0 UV-I 0 W/m -2,7 C -1,3 C 0,0 km/h (0 Bft)
03.05.2023 04:39 -1,3 C -3,3 C 91 % 1028,8 hPa 0,0 l/m 0,0 km/h (0 Bft) N 0 0 min 0,0 UV-I 0 W/m -2,6 C -1,3 C 0,0 km/h (0 Bft)
03.05.2023 04:40 -1,3 C -3,3 C 91 % 1028,8 hPa 0,0 l/m 0,0 km/h (0 Bft) N 0 0 min 0,0 UV-I 0 W/m -2,6 C -1,3 C 0,0 km/h (0 Bft)
03.05.2023 04:41 -1,3 C -3,3 C 90 % 1028,7 hPa 0,0 l/m 0,0 km/h (0 Bft) N 0 0 min 0,0 UV-I 0 W/m -2,7 C -1,3 C 0,0 km/h (0 Bft)
03.05.2023 04:42 -1,4 C -3,3 C 90 % 1028,8 hPa 0,0 l/m 0,0 km/h (0 Bft) N 0 0 min 0,0 UV-I 0 W/m -2,8 C -1,4 C 0,0 km/h (0 Bft)
03.05.2023 04:43 -1,5 C -3,3 C 90 % 1028,8 hPa 0,0 l/m 0,0 km/h (0 Bft) N 0 0 min 0,0 UV-I 0 W/m -2,9 C -1,5 C 0,0 km/h (0 Bft)
03.05.2023 04:44 -1,5 C -3,3 C 90 % 1029,0 hPa 0,0 l/m 0,0 km/h (0 Bft) N 0 0 min 0,0 UV-I 0 W/m -2,9 C -1,5 C 0,0 km/h (0 Bft)
03.05.2023 04:45 -1,5 C -3,3 C 90 % 1028,9 hPa 0,0 l/m 0,0 km/h (0 Bft) N 0 0 min 0,0 UV-I 0 W/m -2,9 C -1,5 C 0,0 km/h (0 Bft)
03.05.2023 04:46 -1,5 C -3,9 C 91 % 1028,9 hPa 0,0 l/m 0,0 km/h (0 Bft) N 0 0 min 0,0 UV-I 0 W/m -2,8 C -1,5 C 0,0 km/h (0 Bft)
03.05.2023 04:47 -1,4 C -3,3 C 91 % 1029,0 hPa 0,0 l/m 0,0 km/h (0 Bft) N 0 0 min 0,0 UV-I 0 W/m -2,7 C -1,4 C 0,0 km/h (0 Bft)
03.05.2023 04:48 -1,4 C -3,3 C 90 % 1028,9 hPa 0,0 l/m 0,0 km/h (0 Bft) N 0 0 min 0,0 UV-I 0 W/m -2,8 C -1,4 C 0,0 km/h (0 Bft)
03.05.2023 04:49 -1,4 C -3,3 C 90 % 1028,9 hPa 0,0 l/m 0,0 km/h (0 Bft) N 0 0 min 0,0 UV-I 0 W/m -2,8 C -1,4 C 0,0 km/h (0 Bft)
03.05.2023 04:50 -1,4 C -3,3 C 90 % 1028,9 hPa 0,0 l/m 0,0 km/h (0 Bft) N 0 0 min 0,0 UV-I 0 W/m -2,8 C -1,4 C 0,0 km/h (0 Bft)
03.05.2023 04:51 -1,4 C -3,3 C 90 % 1028,9 hPa 0,0 l/m 0,0 km/h (0 Bft) N 0 0 min 0,0 UV-I 0 W/m -2,8 C -1,4 C 0,0 km/h (0 Bft)
03.05.2023 04:52 -1,5 C -3,3 C 91 % 1028,9 hPa 0,0 l/m 0,0 km/h (0 Bft) N 0 0 min 0,0 UV-I 0 W/m -2,8 C -1,5 C 0,0 km/h (0 Bft)
03.05.2023 04:53 -1,5 C -3,3 C 90 % 1029,0 hPa 0,0 l/m 0,0 km/h (0 Bft) N 0 0 min 0,0 UV-I 0 W/m -2,9 C -1,5 C 0,0 km/h (0 Bft)
03.05.2023 04:54 -1,6 C -3,3 C 90 % 1028,9 hPa 0,0 l/m 0,0 km/h (0 Bft) N 0 0 min 0,0 UV-I 0 W/m -3,0 C -1,6 C 0,0 km/h (0 Bft)
03.05.2023 04:55 -1,6 C -3,3 C 90 % 1028,9 hPa 0,0 l/m 0,0 km/h (0 Bft) N 0 0 min 0,0 UV-I 0 W/m -3,0 C -1,6 C 0,0 km/h (0 Bft)
03.05.2023 04:56 -1,6 C -3,3 C 90 % 1028,9 hPa 0,0 l/m 0,0 km/h (0 Bft) N 0 0 min 0,0 UV-I 0 W/m -3,0 C -1,6 C 0,0 km/h (0 Bft)
03.05.2023 04:57 -1,6 C -3,3 C 90 % 1028,9 hPa 0,0 l/m 0,0 km/h (0 Bft) N 0 0 min 0,0 UV-I 0 W/m -3,0 C -1,6 C 0,0 km/h (0 Bft)
03.05.2023 04:58 -1,5 C -3,3 C 91 % 1028,8 hPa 0,0 l/m 0,0 km/h (0 Bft) N 0 0 min 0,0 UV-I 0 W/m -2,8 C -1,5 C 0,0 km/h (0 Bft)
03.05.2023 04:59 -1,5 C -3,3 C 91 % 1028,9 hPa 0,0 l/m 0,0 km/h (0 Bft) N 0 0 min 0,0 UV-I 0 W/m -2,8 C -1,5 C 0,0 km/h (0 Bft)
03.05.2023 05:00 -1,5 C -3,3 C 91 % 1028,8 hPa 0,0 l/m 0,0 km/h (0 Bft) N 0 0 min 0,0 UV-I 0 W/m -2,8 C -1,5 C 0,0 km/h (0 Bft)
03.05.2023 05:01 -1,4 C -3,3 C 91 % 1028,9 hPa 0,0 l/m 0,0 km/h (0 Bft) N 0 0 min 0,0 UV-I 0 W/m -2,7 C -1,4 C 0,0 km/h (0 Bft)
03.05.2023 05:02 -1,4 C -3,3 C 91 % 1028,8 hPa 0,0 l/m 0,0 km/h (0 Bft) N 0 0 min 0,0 UV-I 0 W/m -2,7 C -1,4 C 0,0 km/h (0 Bft)
03.05.2023 05:03 -1,4 C -3,3 C 91 % 1028,8 hPa 0,0 l/m 0,0 km/h (0 Bft) N 0 0 min 0,0 UV-I 0 W/m -2,7 C -1,4 C 0,0 km/h (0 Bft)
03.05.2023 05:04 -1,4 C -3,3 C 91 % 1028,8 hPa 0,0 l/m 0,0 km/h (0 Bft) N 0 0 min 0,0 UV-I 0 W/m -2,7 C -1,4 C 0,0 km/h (0 Bft)
03.05.2023 05:05 -1,5 C -3,3 C 90 % 1028,8 hPa 0,0 l/m 0,0 km/h (0 Bft) N 0 0 min 0,0 UV-I 0 W/m -2,9 C -1,5 C 0,0 km/h (0 Bft)
03.05.2023 05:06 -1,6 C -3,3 C 90 % 1028,8 hPa 0,0 l/m 0,0 km/h (0 Bft) N 0 0 min 0,0 UV-I 0 W/m -3,0 C -1,6 C 0,0 km/h (0 Bft)
03.05.2023 05:07 -1,7 C -3,3 C 90 % 1028,7 hPa 0,0 l/m 0,0 km/h (0 Bft) N 0 0 min 0,0 UV-I 0 W/m -3,1 C -1,7 C 0,0 km/h (0 Bft)
03.05.2023 05:08 -1,8 C -3,3 C 90 % 1028,7 hPa 0,0 l/m 0,0 km/h (0 Bft) N 0 0 min 0,0 UV-I 0 W/m -3,2 C -1,8 C 0,0 km/h (0 Bft)
03.05.2023 05:09 -1,8 C -3,3 C 90 % 1028,8 hPa 0,0 l/m 0,0 km/h (0 Bft) N 0 0 min 0,0 UV-I 0 W/m -3,2 C -1,8 C 0,0 km/h (0 Bft)
03.05.2023 05:10 -1,9 C -3,3 C 90 % 1028,8 hPa 0,0 l/m 0,0 km/h (0 Bft) N 0 0 min 0,0 UV-I 0 W/m -3,3 C -1,9 C 0,0 km/h (0 Bft)
03.05.2023 05:11 -1,9 C -3,3 C 90 % 1028,7 hPa 0,0 l/m 0,0 km/h (0 Bft) N 0 0 min 0,0 UV-I 0 W/m -3,3 C -1,9 C 0,0 km/h (0 Bft)
03.05.2023 05:12 -1,9 C -3,9 C 90 % 1028,8 hPa 0,0 l/m 0,0 km/h (0 Bft) N 0 0 min 0,0 UV-I 0 W/m -3,3 C -1,9 C 0,0 km/h (0 Bft)
03.05.2023 05:13 -1,9 C -3,9 C 90 % 1028,7 hPa 0,0 l/m 0,0 km/h (0 Bft) N 0 0 min 0,0 UV-I 0 W/m -3,3 C -1,9 C 0,0 km/h (0 Bft)
03.05.2023 05:14 -1,9 C -3,9 C 90 % 1028,7 hPa 0,0 l/m 0,0 km/h (0 Bft) N 0 0 min 0,0 UV-I 0 W/m -3,3 C -1,9 C 0,0 km/h (0 Bft)
03.05.2023 05:15 -2,0 C -3,9 C 90 % 1028,7 hPa 0,0 l/m 0,0 km/h (0 Bft) N 0 0 min 0,0 UV-I 0 W/m -3,4 C -2,0 C 0,0 km/h (0 Bft)
03.05.2023 05:16 -2,0 C -3,9 C 90 % 1028,7 hPa 0,0 l/m 0,0 km/h (0 Bft) N 0 0 min 0,0 UV-I 0 W/m -3,4 C -2,0 C 0,0 km/h (0 Bft)
03.05.2023 05:17 -2,1 C -3,9 C 90 % 1028,8 hPa 0,0 l/m 0,0 km/h (0 Bft) N 0 0 min 0,0 UV-I 0 W/m -3,5 C -2,1 C 0,0 km/h (0 Bft)
03.05.2023 05:18 -2,1 C -3,9 C 90 % 1028,7 hPa 0,0 l/m 0,0 km/h (0 Bft) N 0 0 min 0,0 UV-I 0 W/m -3,5 C -2,1 C 0,0 km/h (0 Bft)
03.05.2023 05:19 -2,2 C -3,9 C 90 % 1028,7 hPa 0,0 l/m 0,0 km/h (0 Bft) N 0 0 min 0,0 UV-I 0 W/m -3,6 C -2,2 C 0,0 km/h (0 Bft)
03.05.2023 05:20 -2,2 C -3,3 C 90 % 1028,6 hPa 0,0 l/m 0,0 km/h (0 Bft) N 0 0 min 0,0 UV-I 0 W/m -3,6 C -2,2 C 0,0 km/h (0 Bft)
03.05.2023 05:21 -2,1 C -3,3 C 90 % 1028,6 hPa 0,0 l/m 0,0 km/h (0 Bft) N 0 0 min 0,0 UV-I 0 W/m -3,5 C -2,1 C 0,0 km/h (0 Bft)
03.05.2023 05:22 -2,1 C -3,3 C 91 % 1028,6 hPa 0,0 l/m 0,0 km/h (0 Bft) N 0 0 min 0,0 UV-I 0 W/m -3,4 C -2,1 C 0,0 km/h (0 Bft)
03.05.2023 05:23 -2,1 C -3,3 C 91 % 1028,6 hPa 0,0 l/m 0,0 km/h (0 Bft) N 0 0 min 0,0 UV-I 0 W/m -3,4 C -2,1 C 0,0 km/h (0 Bft)
03.05.2023 05:24 -2,2 C -3,9 C 91 % 1028,5 hPa 0,0 l/m 0,0 km/h (0 Bft) N 0 0 min 0,0 UV-I 0 W/m -3,5 C -2,2 C 0,0 km/h (0 Bft)
03.05.2023 05:25 -2,2 C -3,9 C 90 % 1028,5 hPa 0,0 l/m 0,0 km/h (0 Bft) N 0 0 min 0,0 UV-I 0 W/m -3,6 C -2,2 C 0,0 km/h (0 Bft)
03.05.2023 05:26 -2,2 C -3,9 C 90 % 1028,5 hPa 0,0 l/m 0,0 km/h (0 Bft) N 360 0 min 0,0 UV-I 0 W/m -3,6 C -2,2 C 1,6 km/h (1 Bft)
03.05.2023 05:27 -2,3 C -3,9 C 90 % 1028,5 hPa 0,0 l/m 1,6 km/h (1 Bft) N 360 0 min 0,0 UV-I 0 W/m -3,7 C -2,3 C 1,6 km/h (1 Bft)
03.05.2023 05:28 -2,3 C -3,9 C 90 % 1028,5 hPa 0,0 l/m 1,6 km/h (1 Bft) N 360 0 min 0,0 UV-I 0 W/m -3,7 C -2,3 C 1,6 km/h (1 Bft)
03.05.2023 05:29 -2,3 C -3,9 C 90 % 1028,6 hPa 0,0 l/m 0,0 km/h (0 Bft) N 360 0 min 0,0 UV-I 0 W/m -3,7 C -2,3 C 1,6 km/h (1 Bft)
03.05.2023 05:30 -2,2 C -3,9 C 90 % 1028,6 hPa 0,0 l/m 0,0 km/h (0 Bft) N 0 0 min 0,0 UV-I 0 W/m -3,6 C -2,2 C 0,0 km/h (0 Bft)
03.05.2023 05:31 -2,2 C -3,9 C 91 % 1028,6 hPa 0,0 l/m 0,0 km/h (0 Bft) N 0 0 min 0,0 UV-I 0 W/m -3,5 C -2,2 C 0,0 km/h (0 Bft)
03.05.2023 05:32 -2,2 C -3,9 C 91 % 1028,5 hPa 0,0 l/m 0,0 km/h (0 Bft) N 0 0 min 0,0 UV-I 0 W/m -3,5 C -2,2 C 0,0 km/h (0 Bft)
03.05.2023 05:33 -2,2 C -3,9 C 91 % 1028,6 hPa 0,0 l/m 0,0 km/h (0 Bft) N 0 0 min 0,0 UV-I 0 W/m -3,5 C -2,2 C 0,0 km/h (0 Bft)
03.05.2023 05:34 -2,2 C -3,9 C 91 % 1028,6 hPa 0,0 l/m 0,0 km/h (0 Bft) N 0 0 min 0,0 UV-I 0 W/m -3,5 C -2,2 C 0,0 km/h (0 Bft)
03.05.2023 05:35 -2,2 C -3,9 C 91 % 1028,6 hPa 0,0 l/m 0,0 km/h (0 Bft) N 0 0 min 0,0 UV-I 0 W/m -3,5 C -2,2 C 0,0 km/h (0 Bft)
03.05.2023 05:36 -2,2 C -3,9 C 91 % 1028,7 hPa 0,0 l/m 0,0 km/h (0 Bft) N 0 0 min 0,0 UV-I 0 W/m -3,5 C -2,2 C 0,0 km/h (0 Bft)
03.05.2023 05:37 -2,2 C -3,9 C 91 % 1028,6 hPa 0,0 l/m 0,0 km/h (0 Bft) N 0 0 min 0,0 UV-I 0 W/m -3,5 C -2,2 C 0,0 km/h (0 Bft)
03.05.2023 05:38 -2,2 C -3,9 C 91 % 1028,5 hPa 0,0 l/m 0,0 km/h (0 Bft) N 0 0 min 0,0 UV-I 0 W/m -3,5 C -2,2 C 0,0 km/h (0 Bft)
03.05.2023 05:39 -2,2 C -3,9 C 90 % 1028,6 hPa 0,0 l/m 0,0 km/h (0 Bft) N 360 0 min 0,0 UV-I 0 W/m -3,6 C -2,2 C 1,6 km/h (1 Bft)
03.05.2023 05:40 -2,2 C -3,9 C 90 % 1028,6 hPa 0,0 l/m 0,0 km/h (0 Bft) N 0 0 min 0,0 UV-I 0 W/m -3,6 C -2,2 C 0,0 km/h (0 Bft)
03.05.2023 05:41 -2,2 C -3,9 C 91 % 1028,6 hPa 0,0 l/m 0,0 km/h (0 Bft) N 0 0 min 0,0 UV-I 0 W/m -3,5 C -2,2 C 0,0 km/h (0 Bft)
03.05.2023 05:42 -2,2 C -3,9 C 91 % 1028,6 hPa 0,0 l/m 0,0 km/h (0 Bft) N 0 0 min 0,0 UV-I 0 W/m -3,5 C -2,2 C 0,0 km/h (0 Bft)
03.05.2023 05:43 -2,2 C -3,9 C 91 % 1028,6 hPa 0,0 l/m 0,0 km/h (0 Bft) N 0 0 min 0,0 UV-I 0 W/m -3,5 C -2,2 C 0,0 km/h (0 Bft)
03.05.2023 05:44 -2,2 C -3,9 C 91 % 1028,6 hPa 0,0 l/m 0,0 km/h (0 Bft) N 0 0 min 0,0 UV-I 0 W/m -3,5 C -2,2 C 0,0 km/h (0 Bft)
03.05.2023 05:45 -2,2 C -3,3 C 91 % 1028,5 hPa 0,0 l/m 0,0 km/h (0 Bft) N 0 0 min 0,0 UV-I 0 W/m -3,5 C -2,2 C 0,0 km/h (0 Bft)
03.05.2023 05:46 -2,2 C -3,3 C 91 % 1028,5 hPa 0,0 l/m 0,0 km/h (0 Bft) N 360 0 min 0,0 UV-I 0 W/m -3,5 C -2,2 C 1,6 km/h (1 Bft)
03.05.2023 05:47 -2,2 C -3,3 C 90 % 1028,5 hPa 0,0 l/m 1,6 km/h (1 Bft) N 360 0 min 0,0 UV-I 0 W/m -3,6 C -2,2 C 1,6 km/h (1 Bft)
03.05.2023 05:48 -2,2 C -3,9 C 90 % 1028,5 hPa 0,0 l/m 1,6 km/h (1 Bft) N 360 0 min 0,0 UV-I 0 W/m -3,6 C -2,2 C 1,6 km/h (1 Bft)
03.05.2023 05:49 -2,3 C -3,9 C 90 % 1028,6 hPa 0,0 l/m 1,6 km/h (1 Bft) N 360 0 min 0,0 UV-I 0 W/m -3,7 C -2,3 C 1,6 km/h (1 Bft)
03.05.2023 05:50 -2,3 C -3,9 C 91 % 1028,6 hPa 0,0 l/m 0,0 km/h (0 Bft) N 360 0 min 0,0 UV-I 0 W/m -3,6 C -2,3 C 1,6 km/h (1 Bft)
03.05.2023 05:51 -2,2 C -3,9 C 91 % 1028,5 hPa 0,0 l/m 1,6 km/h (1 Bft) N 360 0 min 0,0 UV-I 0 W/m -3,5 C -2,2 C 1,6 km/h (1 Bft)
03.05.2023 05:52 -2,3 C -3,9 C 91 % 1028,5 hPa 0,0 l/m 1,6 km/h (1 Bft) N 360 0 min 0,0 UV-I 0 W/m -3,6 C -2,3 C 1,6 km/h (1 Bft)
03.05.2023 05:53 -2,3 C -3,9 C 91 % 1028,4 hPa 0,0 l/m 1,6 km/h (1 Bft) N 360 0 min 0,0 UV-I 0 W/m -3,6 C -2,3 C 1,6 km/h (1 Bft)
03.05.2023 05:54 -2,2 C -3,9 C 91 % 1028,5 hPa 0,0 l/m 0,0 km/h (0 Bft) N 360 0 min 0,0 UV-I 0 W/m -3,5 C -2,2 C 1,6 km/h (1 Bft)
03.05.2023 05:55 -2,2 C -3,9 C 91 % 1028,4 hPa 0,0 l/m 0,0 km/h (0 Bft) N 360 0 min 0,0 UV-I 0 W/m -3,5 C -2,2 C 1,6 km/h (1 Bft)
03.05.2023 05:56 -2,2 C -3,9 C 91 % 1028,4 hPa 0,0 l/m 0,0 km/h (0 Bft) N 360 0 min 0,0 UV-I 0 W/m -3,5 C -2,2 C 3,2 km/h (1 Bft)
03.05.2023 05:57 -2,2 C -3,9 C 91 % 1028,4 hPa 0,0 l/m 1,6 km/h (1 Bft) N 360 0 min 0,0 UV-I 0 W/m -3,5 C -2,2 C 3,2 km/h (1 Bft)
03.05.2023 05:58 -2,1 C -3,3 C 91 % 1028,4 hPa 0,0 l/m 1,6 km/h (1 Bft) N 360 0 min 0,0 UV-I 0 W/m -3,4 C -2,1 C 3,2 km/h (1 Bft)
03.05.2023 05:59 -2,1 C -3,3 C 91 % 1028,4 hPa 0,0 l/m 1,6 km/h (1 Bft) N 360 0 min 0,0 UV-I 0 W/m -3,4 C -2,1 C 3,2 km/h (1 Bft)
03.05.2023 06:00 -2,1 C -3,3 C 91 % 1028,4 hPa 0,0 l/m 1,6 km/h (1 Bft) N 360 0 min 0,0 UV-I 0 W/m -3,4 C -2,1 C 3,2 km/h (1 Bft)
03.05.2023 06:01 -2,1 C -3,9 C 91 % 1028,4 hPa 0,0 l/m 1,6 km/h (1 Bft) N 360 0 min 0,0 UV-I 0 W/m -3,4 C -2,1 C 3,2 km/h (1 Bft)
03.05.2023 06:02 -2,1 C -3,9 C 91 % 1028,3 hPa 0,0 l/m 1,6 km/h (1 Bft) N 360 0 min 0,0 UV-I 0 W/m -3,4 C -2,1 C 3,2 km/h (1 Bft)
03.05.2023 06:03 -2,1 C -3,9 C 91 % 1028,4 hPa 0,0 l/m 1,6 km/h (1 Bft) N 360 0 min 0,0 UV-I 0 W/m -3,4 C -2,1 C 3,2 km/h (1 Bft)
03.05.2023 06:04 -2,1 C -3,9 C 91 % 1028,5 hPa 0,0 l/m 1,6 km/h (1 Bft) N 360 0 min 0,0 UV-I 0 W/m -3,4 C -2,1 C 1,6 km/h (1 Bft)
03.05.2023 06:05 -2,2 C -3,9 C 91 % 1028,3 hPa 0,0 l/m 1,6 km/h (1 Bft) N 360 0 min 0,0 UV-I 0 W/m -3,5 C -2,2 C 3,2 km/h (1 Bft)
03.05.2023 06:06 -2,2 C -3,9 C 91 % 1028,5 hPa 0,0 l/m 1,6 km/h (1 Bft) N 360 0 min 0,0 UV-I 0 W/m -3,5 C -2,2 C 1,6 km/h (1 Bft)
03.05.2023 06:07 -2,3 C -3,9 C 90 % 1028,5 hPa 0,0 l/m 0,0 km/h (0 Bft) N 360 0 min 0,0 UV-I 0 W/m -3,7 C -2,3 C 1,6 km/h (1 Bft)
03.05.2023 06:08 -2,3 C -3,9 C 90 % 1028,4 hPa 0,0 l/m 0,0 km/h (0 Bft) N 360 0 min 0,0 UV-I 0 W/m -3,7 C -2,3 C 1,6 km/h (1 Bft)
03.05.2023 06:09 -2,4 C -4,4 C 90 % 1028,4 hPa 0,0 l/m 0,0 km/h (0 Bft) N 360 0 min 0,0 UV-I 5 W/m -3,8 C -2,4 C 1,6 km/h (1 Bft)
03.05.2023 06:10 -2,6 C -4,4 C 90 % 1028,4 hPa 0,0 l/m 0,0 km/h (0 Bft) N 360 0 min 0,0 UV-I 5 W/m -4,0 C -2,6 C 1,6 km/h (1 Bft)
03.05.2023 06:11 -2,6 C -3,9 C 90 % 1028,3 hPa 0,0 l/m 0,0 km/h (0 Bft) N 360 0 min 0,0 UV-I 5 W/m -4,0 C -2,6 C 1,6 km/h (1 Bft)
03.05.2023 06:12 -2,7 C -3,9 C 90 % 1028,3 hPa 0,0 l/m 1,6 km/h (1 Bft) N 360 0 min 0,0 UV-I 5 W/m -4,1 C -2,7 C 1,6 km/h (1 Bft)
03.05.2023 06:13 -2,6 C -3,9 C 90 % 1028,3 hPa 0,0 l/m 1,6 km/h (1 Bft) N 360 0 min 0,0 UV-I 5 W/m -4,0 C -2,6 C 3,2 km/h (1 Bft)
03.05.2023 06:14 -2,7 C -3,9 C 91 % 1028,2 hPa 0,0 l/m 1,6 km/h (1 Bft) N 360 0 min 0,0 UV-I 7 W/m -4,0 C -2,7 C 3,2 km/h (1 Bft)
03.05.2023 06:15 -2,6 C -3,9 C 91 % 1028,3 hPa 0,0 l/m 3,2 km/h (1 Bft) N 360 0 min 0,0 UV-I 7 W/m -3,9 C -2,6 C 3,2 km/h (1 Bft)
03.05.2023 06:16 -2,6 C -3,3 C 91 % 1028,3 hPa 0,0 l/m 3,2 km/h (1 Bft) N 360 0 min 0,0 UV-I 7 W/m -3,9 C -2,6 C 3,2 km/h (1 Bft)
03.05.2023 06:17 -2,6 C -3,3 C 91 % 1028,2 hPa 0,0 l/m 3,2 km/h (1 Bft) N 360 0 min 0,0 UV-I 7 W/m -3,9 C -2,6 C 4,8 km/h (1 Bft)
03.05.2023 06:18 -2,7 C -3,3 C 91 % 1028,2 hPa 0,0 l/m 3,2 km/h (1 Bft) N 360 0 min 0,0 UV-I 9 W/m -4,0 C -2,7 C 4,8 km/h (1 Bft)
03.05.2023 06:19 -2,7 C -3,3 C 91 % 1028,1 hPa 0,0 l/m 3,2 km/h (1 Bft) N 360 0 min 0,0 UV-I 9 W/m -4,0 C -2,7 C 4,8 km/h (1 Bft)
03.05.2023 06:20 -2,7 C -3,3 C 91 % 1028,2 hPa 0,0 l/m 1,6 km/h (1 Bft) N 360 0 min 0,0 UV-I 9 W/m -4,0 C -2,7 C 3,2 km/h (1 Bft)
03.05.2023 06:21 -2,7 C -3,9 C 91 % 1028,1 hPa 0,0 l/m 3,2 km/h (1 Bft) N 360 0 min 0,0 UV-I 9 W/m -4,0 C -2,7 C 3,2 km/h (1 Bft)
03.05.2023 06:22 -2,7 C -3,9 C 91 % 1028,2 hPa 0,0 l/m 3,2 km/h (1 Bft) N 360 0 min 0,0 UV-I 9 W/m -4,0 C -2,7 C 4,8 km/h (1 Bft)
03.05.2023 06:23 -2,7 C -3,9 C 91 % 1028,2 hPa 0,0 l/m 3,2 km/h (1 Bft) N 360 0 min 0,0 UV-I 11 W/m -4,0 C -2,7 C 4,8 km/h (1 Bft)
03.05.2023 06:24 -2,7 C -3,9 C 91 % 1028,1 hPa 0,0 l/m 4,8 km/h (1 Bft) N 360 0 min 0,0 UV-I 11 W/m -4,0 C -2,7 C 6,4 km/h (2 Bft)
03.05.2023 06:25 -2,6 C -3,9 C 91 % 1028,2 hPa 0,0 l/m 4,8 km/h (1 Bft) N-NO 22 0 min 0,0 UV-I 11 W/m -3,9 C -2,6 C 6,4 km/h (2 Bft)
03.05.2023 06:26 -2,5 C -3,9 C 91 % 1028,1 hPa 0,0 l/m 4,8 km/h (1 Bft) N-NO 22 0 min 0,0 UV-I 11 W/m -3,8 C -2,5 C 4,8 km/h (1 Bft)
03.05.2023 06:27 -2,6 C -3,9 C 91 % 1028,2 hPa 0,0 l/m 3,2 km/h (1 Bft) N-NO 22 0 min 0,0 UV-I 11 W/m -3,9 C -2,6 C 6,4 km/h (2 Bft)
03.05.2023 06:28 -2,5 C -3,9 C 91 % 1028,3 hPa 0,0 l/m 4,8 km/h (1 Bft) N-NO 22 0 min 0,0 UV-I 12 W/m -3,8 C -2,5 C 6,4 km/h (2 Bft)
03.05.2023 06:29 -2,3 C -3,9 C 91 % 1028,2 hPa 0,0 l/m 4,8 km/h (1 Bft) N-NO 22 0 min 0,0 UV-I 12 W/m -3,6 C -2,3 C 6,4 km/h (2 Bft)
03.05.2023 06:30 -2,2 C -3,9 C 91 % 1028,2 hPa 0,0 l/m 4,8 km/h (1 Bft) N 360 0 min 0,0 UV-I 12 W/m -3,5 C -2,2 C 4,8 km/h (1 Bft)
03.05.2023 06:31 -1,9 C -3,9 C 92 % 1028,2 hPa 0,0 l/m 3,2 km/h (1 Bft) N 360 0 min 0,0 UV-I 14 W/m -3,0 C -1,9 C 3,2 km/h (1 Bft)
03.05.2023 06:32 -1,8 C -3,9 C 91 % 1028,2 hPa 0,0 l/m 3,2 km/h (1 Bft) N 360 0 min 0,0 UV-I 14 W/m -3,1 C -1,8 C 4,8 km/h (1 Bft)
03.05.2023 06:33 -1,8 C -3,9 C 92 % 1028,2 hPa 0,0 l/m 3,2 km/h (1 Bft) N 360 0 min 0,0 UV-I 14 W/m -2,9 C -1,8 C 4,8 km/h (1 Bft)
03.05.2023 06:34 -1,8 C -3,9 C 91 % 1028,2 hPa 0,0 l/m 3,2 km/h (1 Bft) N 360 0 min 0,0 UV-I 14 W/m -3,1 C -1,8 C 4,8 km/h (1 Bft)
03.05.2023 06:35 -2,0 C -3,3 C 91 % 1028,3 hPa 0,0 l/m 4,8 km/h (1 Bft) N 360 0 min 0,0 UV-I 16 W/m -3,3 C -2,0 C 6,4 km/h (2 Bft)
03.05.2023 06:36 -1,9 C -3,9 C 91 % 1028,3 hPa 0,0 l/m 4,8 km/h (1 Bft) N 360 0 min 0,0 UV-I 16 W/m -3,2 C -1,9 C 8,0 km/h (2 Bft)
03.05.2023 06:37 -1,7 C -3,3 C 91 % 1028,3 hPa 0,0 l/m 4,8 km/h (1 Bft) N-NO 22 0 min 0,0 UV-I 16 W/m -3,0 C -1,7 C 8,0 km/h (2 Bft)
03.05.2023 06:38 -1,5 C -3,3 C 92 % 1028,4 hPa 0,0 l/m 6,4 km/h (2 Bft) N 360 0 min 0,0 UV-I 16 W/m -2,6 C -1,5 C 8,0 km/h (2 Bft)
03.05.2023 06:39 -1,4 C -3,3 C 92 % 1028,4 hPa 0,0 l/m 4,8 km/h (1 Bft) N-NO 22 0 min 0,0 UV-I 18 W/m -2,5 C -1,4 C 6,4 km/h (2 Bft)
03.05.2023 06:40 -1,3 C -3,3 C 92 % 1028,4 hPa 0,0 l/m 4,8 km/h (1 Bft) N-NO 22 0 min 0,0 UV-I 18 W/m -2,4 C -1,3 C 6,4 km/h (2 Bft)
03.05.2023 06:41 -1,2 C -3,3 C 92 % 1028,4 hPa 0,0 l/m 4,8 km/h (1 Bft) N-NO 22 0 min 0,0 UV-I 18 W/m -2,3 C -1,2 C 6,4 km/h (2 Bft)
03.05.2023 06:42 -1,1 C -3,3 C 92 % 1028,5 hPa 0,0 l/m 3,2 km/h (1 Bft) N-NO 22 0 min 0,0 UV-I 19 W/m -2,2 C -1,1 C 4,8 km/h (1 Bft)
03.05.2023 06:43 -1,1 C -2,8 C 91 % 1028,5 hPa 0,0 l/m 1,6 km/h (1 Bft) N-NO 22 0 min 0,0 UV-I 19 W/m -2,4 C -1,1 C 3,2 km/h (1 Bft)
03.05.2023 06:44 -1,1 C -2,8 C 91 % 1028,5 hPa 0,0 l/m 3,2 km/h (1 Bft) N-NO 22 0 min 0,0 UV-I 21 W/m -2,4 C -1,1 C 6,4 km/h (2 Bft)
03.05.2023 06:45 -1,1 C -2,8 C 91 % 1028,6 hPa 0,0 l/m 4,8 km/h (1 Bft) N-NO 22 0 min 0,0 UV-I 21 W/m -2,4 C -1,1 C 4,8 km/h (1 Bft)
03.05.2023 06:46 -1,1 C -2,8 C 91 % 1028,6 hPa 0,0 l/m 3,2 km/h (1 Bft) N-NO 22 0 min 0,0 UV-I 22 W/m -2,4 C -1,1 C 6,4 km/h (2 Bft)
03.05.2023 06:47 -1,2 C -2,8 C 91 % 1028,7 hPa 0,0 l/m 3,2 km/h (1 Bft) N 360 0 min 0,0 UV-I 23 W/m -2,5 C -1,2 C 4,8 km/h (1 Bft)
03.05.2023 06:48 -1,2 C -2,8 C 91 % 1028,7 hPa 0,0 l/m 4,8 km/h (1 Bft) N-NO 22 0 min 0,0 UV-I 25 W/m -2,5 C -1,2 C 4,8 km/h (1 Bft)
03.05.2023 06:49 -1,2 C -2,8 C 91 % 1028,8 hPa 0,0 l/m 3,2 km/h (1 Bft) N-NO 22 0 min 0,0 UV-I 25 W/m -2,5 C -1,2 C 4,8 km/h (1 Bft)
03.05.2023 06:50 -1,2 C -2,8 C 91 % 1028,7 hPa 0,0 l/m 4,8 km/h (1 Bft) N-NO 22 0 min 0,0 UV-I 25 W/m -2,5 C -1,2 C 6,4 km/h (2 Bft)
03.05.2023 06:51 -1,2 C -2,8 C 91 % 1028,8 hPa 0,0 l/m 3,2 km/h (1 Bft) N 360 0 min 0,0 UV-I 25 W/m -2,5 C -1,2 C 4,8 km/h (1 Bft)
03.05.2023 06:52 -1,1 C -2,8 C 91 % 1028,6 hPa 0,0 l/m 3,2 km/h (1 Bft) N 360 0 min 0,0 UV-I 26 W/m -2,4 C -1,1 C 4,8 km/h (1 Bft)
03.05.2023 06:53 -1,2 C -2,8 C 91 % 1028,8 hPa 0,0 l/m 3,2 km/h (1 Bft) N 360 0 min 0,0 UV-I 30 W/m -2,5 C -1,2 C 4,8 km/h (1 Bft)
03.05.2023 06:54 -1,3 C -2,8 C 91 % 1028,8 hPa 0,0 l/m 3,2 km/h (1 Bft) N 360 0 min 0,0 UV-I 32 W/m -2,6 C -1,3 C 4,8 km/h (1 Bft)
03.05.2023 06:55 -1,5 C -2,8 C 90 % 1028,8 hPa 0,0 l/m 3,2 km/h (1 Bft) N 360 0 min 0,0 UV-I 33 W/m -2,9 C -1,5 C 4,8 km/h (1 Bft)
03.05.2023 06:56 -1,6 C -2,8 C 91 % 1028,8 hPa 0,0 l/m 3,2 km/h (1 Bft) N 360 0 min 0,0 UV-I 35 W/m -2,9 C -1,6 C 4,8 km/h (1 Bft)
03.05.2023 06:57 -1,6 C -2,8 C 91 % 1028,8 hPa 0,0 l/m 3,2 km/h (1 Bft) N 360 0 min 0,0 UV-I 35 W/m -2,9 C -1,6 C 4,8 km/h (1 Bft)
03.05.2023 06:58 -1,7 C -2,8 C 91 % 1028,8 hPa 0,0 l/m 1,6 km/h (1 Bft) N 360 0 min 0,0 UV-I 38 W/m -3,0 C -1,7 C 3,2 km/h (1 Bft)
03.05.2023 06:59 -1,8 C -3,3 C 91 % 1028,8 hPa 0,0 l/m 1,6 km/h (1 Bft) N 360 0 min 0,0 UV-I 40 W/m -3,1 C -1,8 C 3,2 km/h (1 Bft)
03.05.2023 07:00 -1,8 C -2,8 C 90 % 1028,8 hPa 0,0 l/m 1,6 km/h (1 Bft) N 360 0 min 0,0 UV-I 42 W/m -3,2 C -1,8 C 4,8 km/h (1 Bft)
03.05.2023 07:01 -1,9 C -2,8 C 91 % 1028,8 hPa 0,0 l/m 1,6 km/h (1 Bft) N 360 0 min 0,0 UV-I 44 W/m -3,2 C -1,9 C 3,2 km/h (1 Bft)
03.05.2023 07:02 -1,9 C -2,8 C 91 % 1028,8 hPa 0,0 l/m 3,2 km/h (1 Bft) N 360 0 min 0,0 UV-I 47 W/m -3,2 C -1,9 C 4,8 km/h (1 Bft)
03.05.2023 07:03 -1,9 C -2,8 C 91 % 1028,7 hPa 0,0 l/m 1,6 km/h (1 Bft) N 360 0 min 0,0 UV-I 49 W/m -3,2 C -1,9 C 3,2 km/h (1 Bft)
03.05.2023 07:04 -1,9 C -2,8 C 91 % 1028,8 hPa 0,0 l/m 3,2 km/h (1 Bft) N 360 0 min 0,0 UV-I 52 W/m -3,2 C -1,9 C 4,8 km/h (1 Bft)
03.05.2023 07:05 -1,9 C -2,8 C 91 % 1028,7 hPa 0,0 l/m 3,2 km/h (1 Bft) N 360 0 min 0,0 UV-I 44 W/m -3,2 C -1,9 C 3,2 km/h (1 Bft)
03.05.2023 07:06 -1,9 C -2,8 C 91 % 1028,7 hPa 0,0 l/m 3,2 km/h (1 Bft) N 360 0 min 0,0 UV-I 40 W/m -3,2 C -1,9 C 4,8 km/h (1 Bft)
03.05.2023 07:07 -1,9 C -2,8 C 91 % 1028,8 hPa 0,0 l/m 1,6 km/h (1 Bft) N 360 0 min 0,0 UV-I 39 W/m -3,2 C -1,9 C 3,2 km/h (1 Bft)
03.05.2023 07:08 -1,9 C -2,8 C 91 % 1028,7 hPa 0,0 l/m 3,2 km/h (1 Bft) N 360 0 min 0,0 UV-I 32 W/m -3,2 C -1,9 C 3,2 km/h (1 Bft)
03.05.2023 07:09 -1,8 C -2,8 C 91 % 1028,7 hPa 0,0 l/m 3,2 km/h (1 Bft) N 360 0 min 0,0 UV-I 32 W/m -3,1 C -1,8 C 4,8 km/h (1 Bft)
03.05.2023 07:10 -1,6 C -2,8 C 91 % 1028,7 hPa 0,0 l/m 3,2 km/h (1 Bft) N 360 0 min 0,0 UV-I 33 W/m -2,9 C -1,6 C 4,8 km/h (1 Bft)
03.05.2023 07:11 -1,4 C -2,8 C 91 % 1028,7 hPa 0,0 l/m 4,8 km/h (1 Bft) N 360 0 min 0,0 UV-I 32 W/m -2,7 C -1,4 C 4,8 km/h (1 Bft)
03.05.2023 07:12 -1,2 C -2,2 C 92 % 1028,7 hPa 0,0 l/m 4,8 km/h (1 Bft) N 360 0 min 0,0 UV-I 32 W/m -2,3 C -1,2 C 4,8 km/h (1 Bft)
03.05.2023 07:13 -0,9 C -2,2 C 92 % 1028,7 hPa 0,0 l/m 4,8 km/h (1 Bft) N 360 0 min 0,0 UV-I 32 W/m -2,0 C -0,9 C 6,4 km/h (2 Bft)
03.05.2023 07:14 -0,8 C -2,2 C 92 % 1028,6 hPa 0,0 l/m 4,8 km/h (1 Bft) N 360 0 min 0,0 UV-I 32 W/m -1,9 C -0,8 C 6,4 km/h (2 Bft)
03.05.2023 07:15 -0,7 C -2,8 C 92 % 1028,6 hPa 0,0 l/m 4,8 km/h (1 Bft) N 360 0 min 0,0 UV-I 32 W/m -1,8 C -0,7 C 4,8 km/h (1 Bft)
03.05.2023 07:16 -0,7 C -2,2 C 92 % 1028,6 hPa 0,0 l/m 3,2 km/h (1 Bft) N 360 0 min 0,0 UV-I 32 W/m -1,8 C -0,7 C 6,4 km/h (2 Bft)
03.05.2023 07:17 -0,8 C -2,2 C 91 % 1028,7 hPa 0,0 l/m 1,6 km/h (1 Bft) N 360 0 min 0,0 UV-I 32 W/m -2,1 C -0,8 C 1,6 km/h (1 Bft)
03.05.2023 07:18 -1,0 C -2,2 C 91 % 1028,7 hPa 0,0 l/m 3,2 km/h (1 Bft) N 360 0 min 0,0 UV-I 32 W/m -2,3 C -1,0 C 6,4 km/h (2 Bft)
03.05.2023 07:19 -1,0 C -2,2 C 91 % 1028,6 hPa 0,0 l/m 4,8 km/h (1 Bft) N 360 0 min 0,0 UV-I 32 W/m -2,3 C -1,0 C 6,4 km/h (2 Bft)
03.05.2023 07:20 -0,9 C -2,2 C 91 % 1028,6 hPa 0,0 l/m 6,4 km/h (2 Bft) N-NO 22 0 min 0,0 UV-I 32 W/m -2,2 C -0,9 C 8,0 km/h (2 Bft)
03.05.2023 07:21 -0,8 C -2,2 C 91 % 1028,7 hPa 0,0 l/m 6,4 km/h (2 Bft) N-NO 22 0 min 0,0 UV-I 32 W/m -2,1 C -0,8 C 8,0 km/h (2 Bft)
03.05.2023 07:22 -0,6 C -2,2 C 92 % 1028,7 hPa 0,0 l/m 4,8 km/h (1 Bft) N-NO 22 0 min 0,0 UV-I 32 W/m -1,7 C -0,6 C 6,4 km/h (2 Bft)
03.05.2023 07:23 -0,6 C -1,7 C 92 % 1028,9 hPa 0,0 l/m 4,8 km/h (1 Bft) N 360 0 min 0,0 UV-I 33 W/m -1,7 C -0,6 C 4,8 km/h (1 Bft)
03.05.2023 07:24 -0,6 C -1,7 C 91 % 1028,8 hPa 0,0 l/m 4,8 km/h (1 Bft) N 360 0 min 0,0 UV-I 35 W/m -1,9 C -0,6 C 6,4 km/h (2 Bft)
03.05.2023 07:25 -0,6 C -1,7 C 91 % 1028,9 hPa 0,0 l/m 6,4 km/h (2 Bft) N 360 0 min 0,0 UV-I 39 W/m -1,9 C -0,6 C 12,9 km/h (3 Bft)
03.05.2023 07:26 -0,4 C -1,7 C 91 % 1028,9 hPa 0,0 l/m 8,0 km/h (2 Bft) N 360 0 min 0,0 UV-I 44 W/m -1,7 C -2,1 C 11,3 km/h (2 Bft)
03.05.2023 07:27 -0,1 C -1,7 C 92 % 1028,9 hPa 0,0 l/m 6,4 km/h (2 Bft) N-NO 22 0 min 0,0 UV-I 51 W/m -1,2 C -0,1 C 12,9 km/h (3 Bft)
03.05.2023 07:28 0,1 C -1,1 C 92 % 1029,0 hPa 0,0 l/m 6,4 km/h (2 Bft) N 360 0 min 0,0 UV-I 60 W/m -1,0 C 0,1 C 11,3 km/h (2 Bft)
03.05.2023 07:29 0,3 C -1,1 C 92 % 1029,0 hPa 0,0 l/m 4,8 km/h (1 Bft) N 360 0 min 0,0 UV-I 69 W/m -0,8 C 0,3 C 8,0 km/h (2 Bft)
03.05.2023 07:30 0,4 C -1,1 C 92 % 1028,9 hPa 0,0 l/m 6,4 km/h (2 Bft) N 360 0 min 0,0 UV-I 93 W/m -0,7 C 0,4 C 8,0 km/h (2 Bft)
03.05.2023 07:31 0,6 C -1,1 C 92 % 1029,0 hPa 0,0 l/m 6,4 km/h (2 Bft) N 360 0 min 0,0 UV-I 109 W/m -0,5 C 0,6 C 9,7 km/h (2 Bft)
03.05.2023 07:32 0,7 C -1,1 C 92 % 1029,0 hPa 0,0 l/m 8,0 km/h (2 Bft) N-NO 22 1 min 0,0 UV-I 118 W/m -0,4 C -0,9 C 11,3 km/h (2 Bft)
03.05.2023 07:33 0,8 C -1,1 C 92 % 1029,0 hPa 0,0 l/m 4,8 km/h (1 Bft) N-NO 22 1 min 0,5 UV-I 124 W/m -0,3 C 0,8 C 6,4 km/h (2 Bft)
03.05.2023 07:34 0,9 C -0,6 C 92 % 1029,0 hPa 0,0 l/m 4,8 km/h (1 Bft) N-NO 22 1 min 0,5 UV-I 128 W/m -0,2 C 0,9 C 6,4 km/h (2 Bft)
03.05.2023 07:35 1,0 C -0,6 C 91 % 1029,0 hPa 0,0 l/m 4,8 km/h (1 Bft) N 360 1 min 0,5 UV-I 134 W/m -0,3 C 1,0 C 6,4 km/h (2 Bft)
03.05.2023 07:36 1,1 C -0,6 C 91 % 1029,2 hPa 0,0 l/m 4,8 km/h (1 Bft) N 360 1 min 0,5 UV-I 139 W/m -0,2 C 1,1 C 6,4 km/h (2 Bft)
03.05.2023 07:37 1,1 C -0,6 C 91 % 1029,1 hPa 0,0 l/m 4,8 km/h (1 Bft) N-NO 22 1 min 0,5 UV-I 146 W/m -0,2 C 1,1 C 6,4 km/h (2 Bft)
03.05.2023 07:38 1,2 C -0,6 C 91 % 1029,1 hPa 0,0 l/m 3,2 km/h (1 Bft) N-NO 22 1 min 0,5 UV-I 149 W/m -0,1 C 1,2 C 4,8 km/h (1 Bft)
03.05.2023 07:39 1,2 C -0,6 C 91 % 1029,2 hPa 0,0 l/m 4,8 km/h (1 Bft) N-NO 22 1 min 0,5 UV-I 150 W/m -0,1 C 1,2 C 6,4 km/h (2 Bft)
03.05.2023 07:42 1,4 C -0,6 C 91 % 1029,2 hPa 0,0 l/m 5,4 km/h (1 Bft) N-NO 15 3 min 0,5 UV-I 142 W/m 0,1 C 1,4 C 8,0 km/h (2 Bft)
03.05.2023 07:45 1,7 C 0,0 C 91 % 1029,2 hPa 0,0 l/m 5,2 km/h (1 Bft) N-NO 17 3 min 0,6 UV-I 142 W/m 0,4 C 1,7 C 8,0 km/h (2 Bft)
03.05.2023 07:48 1,9 C 0,0 C 90 % 1029,2 hPa 0,0 l/m 4,7 km/h (1 Bft) N-NO 19 3 min 0,6 UV-I 139 W/m 0,4 C 1,9 C 8,0 km/h (2 Bft)
03.05.2023 07:51 2,2 C 0,6 C 90 % 1029,2 hPa 0,0 l/m 4,3 km/h (1 Bft) N-NO 19 3 min 0,6 UV-I 144 W/m 0,7 C 2,2 C 6,4 km/h (2 Bft)
03.05.2023 07:54 2,3 C 0,6 C 89 % 1029,2 hPa 0,0 l/m 5,9 km/h (2 Bft) NO 35 3 min 0,7 UV-I 159 W/m 0,7 C 2,3 C 8,0 km/h (2 Bft)
03.05.2023 07:57 2,5 C 1,1 C 89 % 1029,2 hPa 0,0 l/m 6,3 km/h (2 Bft) N-NO 19 3 min 0,7 UV-I 177 W/m 0,9 C 2,5 C 8,0 km/h (2 Bft)
03.05.2023 08:00 2,7 C 2,2 C 88 % 1029,2 hPa 0,0 l/m 8,6 km/h (2 Bft) N-NO 26 3 min 0,7 UV-I 196 W/m 0,9 C 0,7 C 12,9 km/h (3 Bft)
03.05.2023 08:03 2,8 C 2,2 C 88 % 1029,3 hPa 0,0 l/m 9,0 km/h (2 Bft) N-NO 21 3 min 0,8 UV-I 204 W/m 1,0 C 0,4 C 12,9 km/h (3 Bft)
03.05.2023 08:06 3,1 C 2,8 C 87 % 1029,2 hPa 0,0 l/m 8,9 km/h (2 Bft) NO 35 3 min 0,8 UV-I 213 W/m 1,2 C 0,8 C 12,9 km/h (3 Bft)
03.05.2023 08:09 3,2 C 3,3 C 87 % 1029,4 hPa 0,0 l/m 7,6 km/h (2 Bft) N-NO 22 3 min 0,8 UV-I 221 W/m 1,2 C 2,1 C 11,3 km/h (2 Bft)
03.05.2023 08:12 3,3 C 3,3 C 86 % 1029,4 hPa 0,0 l/m 6,5 km/h (2 Bft) N-NO 26 3 min 0,9 UV-I 229 W/m 1,2 C 3,2 C 11,3 km/h (2 Bft)
03.05.2023 08:15 3,5 C 3,9 C 86 % 1029,4 hPa 0,0 l/m 6,6 km/h (2 Bft) N-NO 32 3 min 0,9 UV-I 237 W/m 1,4 C 3,3 C 12,9 km/h (3 Bft)
03.05.2023 08:18 3,8 C 3,9 C 85 % 1029,4 hPa 0,0 l/m 7,7 km/h (2 Bft) N-NO 27 3 min 1,0 UV-I 245 W/m 1,5 C 2,6 C 14,5 km/h (3 Bft)
03.05.2023 08:21 4,1 C 4,4 C 85 % 1029,3 hPa 0,0 l/m 10,5 km/h (2 Bft) NO 40 3 min 1,0 UV-I 253 W/m 1,8 C 0,7 C 14,5 km/h (3 Bft)
03.05.2023 08:24 4,2 C 4,4 C 84 % 1029,3 hPa 0,0 l/m 11,1 km/h (2 Bft) N-NO 30 3 min 1,0 UV-I 260 W/m 1,7 C 0,4 C 16,1 km/h (3 Bft)
03.05.2023 08:27 4,4 C 4,4 C 83 % 1029,4 hPa 0,0 l/m 11,4 km/h (2 Bft) N-NO 23 3 min 1,1 UV-I 267 W/m 1,8 C 0,4 C 17,7 km/h (3 Bft)
03.05.2023 08:30 4,5 C 4,4 C 82 % 1029,3 hPa 0,0 l/m 12,1 km/h (2 Bft) NO 36 3 min 1,1 UV-I 276 W/m 1,7 C 0,1 C 16,1 km/h (3 Bft)
03.05.2023 08:33 4,7 C 4,4 C 81 % 1029,4 hPa 0,0 l/m 12,5 km/h (3 Bft) NO 38 3 min 1,2 UV-I 284 W/m 1,7 C 0,1 C 17,7 km/h (3 Bft)
03.05.2023 08:36 4,8 C 4,4 C 80 % 1029,3 hPa 0,0 l/m 11,4 km/h (2 Bft) NO 41 3 min 1,2 UV-I 293 W/m 1,6 C 0,9 C 17,7 km/h (3 Bft)
03.05.2023 08:39 4,8 C 4,4 C 79 % 1029,3 hPa 0,0 l/m 11,8 km/h (2 Bft) N-NO 28 3 min 1,3 UV-I 301 W/m 1,5 C 0,7 C 17,7 km/h (3 Bft)
03.05.2023 08:42 5,0 C 5,0 C 78 % 1029,4 hPa 0,0 l/m 12,9 km/h (3 Bft) NO 42 3 min 1,2 UV-I 310 W/m 1,5 C 0,2 C 17,7 km/h (3 Bft)
03.05.2023 08:45 5,0 C 5,0 C 78 % 1029,3 hPa 0,0 l/m 11,9 km/h (2 Bft) NO 56 3 min 1,3 UV-I 289 W/m 1,5 C 0,8 C 17,7 km/h (3 Bft)
03.05.2023 08:48 5,3 C 5,6 C 79 % 1029,3 hPa 0,0 l/m 10,2 km/h (2 Bft) NO 42 3 min 1,4 UV-I 317 W/m 2,0 C 2,3 C 17,7 km/h (3 Bft)
03.05.2023 08:51 5,4 C 6,1 C 78 % 1029,3 hPa 0,0 l/m 11,7 km/h (2 Bft) NO 45 3 min 1,4 UV-I 341 W/m 1,9 C 1,4 C 16,1 km/h (3 Bft)
03.05.2023 08:54 5,6 C 6,7 C 78 % 1029,2 hPa 0,0 l/m 11,8 km/h (2 Bft) NO 38 3 min 1,4 UV-I 336 W/m 2,1 C 1,6 C 17,7 km/h (3 Bft)
03.05.2023 08:57 5,6 C 6,7 C 76 % 1029,3 hPa 0,0 l/m 12,8 km/h (3 Bft) N-NO 30 3 min 1,4 UV-I 340 W/m 1,7 C 1,0 C 17,7 km/h (3 Bft)
03.05.2023 09:00 5,6 C 6,7 C 76 % 1029,4 hPa 0,0 l/m 14,5 km/h (3 Bft) N-NO 21 3 min 1,6 UV-I 378 W/m 1,7 C 0,1 C 19,3 km/h (3 Bft)
03.05.2023 09:03 5,8 C 6,7 C 76 % 1029,4 hPa 0,0 l/m 12,9 km/h (3 Bft) NO 36 3 min 1,6 UV-I 387 W/m 1,9 C 1,2 C 17,7 km/h (3 Bft)
03.05.2023 09:06 5,8 C 6,7 C 76 % 1029,3 hPa 0,0 l/m 14,2 km/h (3 Bft) NO 40 3 min 1,7 UV-I 400 W/m 1,9 C 0,5 C 17,7 km/h (3 Bft)
03.05.2023 09:09 5,9 C 6,7 C 75 % 1029,3 hPa 0,0 l/m 11,2 km/h (2 Bft) NO 41 3 min 1,7 UV-I 395 W/m 1,8 C 2,3 C 16,1 km/h (3 Bft)
03.05.2023 09:12 6,1 C 7,2 C 75 % 1029,3 hPa 0,0 l/m 11,4 km/h (2 Bft) NO 53 3 min 1,8 UV-I 383 W/m 2,0 C 2,4 C 19,3 km/h (3 Bft)
03.05.2023 09:15 6,2 C 7,2 C 75 % 1029,3 hPa 0,0 l/m 13,8 km/h (3 Bft) NO 41 3 min 1,8 UV-I 399 W/m 2,1 C 1,1 C 19,3 km/h (3 Bft)
03.05.2023 09:18 6,3 C 7,2 C 74 % 1029,3 hPa 0,0 l/m 14,5 km/h (3 Bft) N-NO 30 3 min 1,6 UV-I 279 W/m 2,0 C 0,9 C 20,9 km/h (4 Bft)
03.05.2023 09:21 6,2 C 7,2 C 73 % 1029,2 hPa 0,0 l/m 12,6 km/h (3 Bft) O-NO 58 3 min 1,9 UV-I 311 W/m 1,7 C 1,8 C 17,7 km/h (3 Bft)
03.05.2023 09:24 6,3 C 7,2 C 73 % 1029,3 hPa 0,0 l/m 13,4 km/h (3 Bft) N-NO 33 3 min 1,9 UV-I 406 W/m 1,8 C 1,5 C 24,1 km/h (4 Bft)
03.05.2023 09:27 6,4 C 7,2 C 73 % 1029,3 hPa 0,0 l/m 13,8 km/h (3 Bft) NO 56 3 min 2,0 UV-I 415 W/m 1,9 C 1,4 C 19,3 km/h (3 Bft)
03.05.2023 09:30 6,5 C 7,2 C 72 % 1029,3 hPa 0,0 l/m 12,2 km/h (2 Bft) O-NO 61 3 min 2,0 UV-I 376 W/m 1,8 C 2,4 C 17,7 km/h (3 Bft)
03.05.2023 09:33 6,4 C 7,2 C 72 % 1029,3 hPa 0,0 l/m 14,1 km/h (3 Bft) N-NO 32 3 min 1,9 UV-I 362 W/m 1,7 C 1,2 C 19,3 km/h (3 Bft)
03.05.2023 09:36 6,7 C 7,8 C 73 % 1029,2 hPa 0,0 l/m 12,3 km/h (3 Bft) O-NO 61 3 min 2,1 UV-I 342 W/m 2,2 C 2,5 C 20,9 km/h (4 Bft)
03.05.2023 09:39 6,8 C 8,3 C 72 % 1029,2 hPa 0,0 l/m 10,5 km/h (2 Bft) O-NO 58 3 min 2,1 UV-I 339 W/m 2,1 C 3,7 C 16,1 km/h (3 Bft)
03.05.2023 09:42 6,8 C 8,3 C 72 % 1029,2 hPa 0,0 l/m 14,8 km/h (3 Bft) O-NO 64 3 min 2,2 UV-I 371 W/m 2,1 C 1,4 C 20,9 km/h (4 Bft)
03.05.2023 09:45 6,9 C 7,8 C 73 % 1029,1 hPa 0,0 l/m 11,6 km/h (2 Bft) N-NO 30 3 min 2,3 UV-I 397 W/m 2,4 C 3,2 C 17,7 km/h (3 Bft)
03.05.2023 09:48 7,4 C 8,3 C 72 % 1029,2 hPa 0,0 l/m 12,1 km/h (2 Bft) NO 53 3 min 2,4 UV-I 409 W/m 2,7 C 3,5 C 19,3 km/h (3 Bft)
03.05.2023 09:51 7,3 C 8,3 C 70 % 1029,2 hPa 0,0 l/m 13,0 km/h (3 Bft) O-NO 62 3 min 2,4 UV-I 418 W/m 2,2 C 2,9 C 20,9 km/h (4 Bft)
03.05.2023 09:54 7,3 C 8,3 C 69 % 1029,2 hPa 0,0 l/m 14,1 km/h (3 Bft) O-NO 78 3 min 2,4 UV-I 411 W/m 2,0 C 2,3 C 20,9 km/h (4 Bft)
03.05.2023 09:57 7,3 C 8,3 C 69 % 1029,1 hPa 0,0 l/m 13,4 km/h (3 Bft) O-NO 67 3 min 2,6 UV-I 449 W/m 2,0 C 2,7 C 20,9 km/h (4 Bft)
03.05.2023 10:00 7,3 C 7,8 C 69 % 1029,1 hPa 0,0 l/m 15,8 km/h (3 Bft) NO 56 3 min 2,6 UV-I 457 W/m 2,0 C 1,5 C 24,1 km/h (4 Bft)
03.05.2023 10:03 7,4 C 8,3 C 70 % 1029,1 hPa 0,0 l/m 15,3 km/h (3 Bft) O 84 3 min 2,7 UV-I 482 W/m 2,3 C 1,8 C 24,1 km/h (4 Bft)
03.05.2023 10:06 7,7 C 8,3 C 70 % 1029,1 hPa 0,0 l/m 12,3 km/h (3 Bft) N-NO 23 3 min 2,7 UV-I 499 W/m 2,6 C 3,7 C 19,3 km/h (3 Bft)
03.05.2023 10:09 7,7 C 8,9 C 69 % 1028,9 hPa 0,0 l/m 11,9 km/h (2 Bft) NO 42 3 min 2,8 UV-I 518 W/m 2,4 C 3,9 C 22,5 km/h (4 Bft)
03.05.2023 10:12 8,1 C 9,4 C 70 % 1028,9 hPa 0,0 l/m 9,8 km/h (2 Bft) N-NO 33 3 min 2,8 UV-I 534 W/m 3,0 C 5,6 C 17,7 km/h (3 Bft)
03.05.2023 10:15 8,0 C 9,4 C 68 % 1028,9 hPa 0,0 l/m 12,1 km/h (2 Bft) O-NO 69 3 min 2,9 UV-I 535 W/m 2,5 C 4,2 C 20,9 km/h (4 Bft)
03.05.2023 10:18 7,9 C 10,0 C 69 % 1028,9 hPa 0,0 l/m 13,5 km/h (3 Bft) NO 55 3 min 2,9 UV-I 558 W/m 2,6 C 3,3 C 17,7 km/h (3 Bft)
03.05.2023 10:21 7,9 C 10,0 C 69 % 1029,0 hPa 0,0 l/m 10,7 km/h (2 Bft) NO 46 3 min 3,0 UV-I 576 W/m 2,6 C 4,8 C 19,3 km/h (3 Bft)
03.05.2023 10:24 7,9 C 9,4 C 68 % 1029,0 hPa 0,0 l/m 13,3 km/h (3 Bft) NO 46 3 min 3,1 UV-I 582 W/m 2,4 C 3,4 C 20,9 km/h (4 Bft)
03.05.2023 10:27 8,1 C 10,0 C 69 % 1028,9 hPa 0,0 l/m 14,5 km/h (3 Bft) N-NO 30 3 min 3,1 UV-I 597 W/m 2,8 C 3,1 C 20,9 km/h (4 Bft)
03.05.2023 10:30 8,2 C 10,6 C 68 % 1028,9 hPa 0,0 l/m 14,2 km/h (3 Bft) O-NO 60 3 min 3,1 UV-I 597 W/m 2,7 C 3,3 C 20,9 km/h (4 Bft)
03.05.2023 10:33 8,3 C 10,6 C 68 % 1028,9 hPa 0,0 l/m 13,1 km/h (3 Bft) O-NO 57 3 min 3,2 UV-I 619 W/m 2,7 C 4,0 C 19,3 km/h (3 Bft)
03.05.2023 10:36 8,4 C 11,1 C 67 % 1028,9 hPa 0,0 l/m 12,6 km/h (3 Bft) NO 36 3 min 3,3 UV-I 629 W/m 2,6 C 4,4 C 24,1 km/h (4 Bft)
03.05.2023 10:39 8,4 C 11,1 C 66 % 1028,9 hPa 0,0 l/m 15,4 km/h (3 Bft) NO 42 3 min 3,4 UV-I 635 W/m 2,4 C 3,0 C 22,5 km/h (4 Bft)
03.05.2023 10:42 8,5 C 11,7 C 67 % 1028,9 hPa 0,0 l/m 12,6 km/h (3 Bft) O-NO 67 3 min 3,4 UV-I 634 W/m 2,7 C 4,5 C 20,9 km/h (4 Bft)
03.05.2023 10:45 8,4 C 11,7 C 67 % 1028,9 hPa 0,0 l/m 17,2 km/h (3 Bft) NO 53 3 min 3,4 UV-I 634 W/m 2,6 C 2,3 C 22,5 km/h (4 Bft)
03.05.2023 10:48 8,6 C 12,8 C 67 % 1029,0 hPa 0,0 l/m 12,0 km/h (2 Bft) O-NO 63 3 min 3,5 UV-I 649 W/m 2,8 C 4,9 C 20,9 km/h (4 Bft)
03.05.2023 10:51 8,7 C 13,9 C 66 % 1028,9 hPa 0,0 l/m 11,6 km/h (2 Bft) N-NO 28 3 min 3,6 UV-I 654 W/m 2,7 C 5,2 C 17,7 km/h (3 Bft)
03.05.2023 10:54 8,8 C 13,9 C 66 % 1028,9 hPa 0,0 l/m 14,5 km/h (3 Bft) O 87 3 min 3,6 UV-I 652 W/m 2,8 C 3,9 C 24,1 km/h (4 Bft)
03.05.2023 10:57 8,9 C 15,0 C 66 % 1029,0 hPa 0,0 l/m 12,8 km/h (3 Bft) NO 54 3 min 3,7 UV-I 678 W/m 2,9 C 4,8 C 19,3 km/h (3 Bft)
03.05.2023 11:00 9,1 C 16,1 C 67 % 1028,9 hPa 0,0 l/m 8,6 km/h (2 Bft) O 96 3 min 3,7 UV-I 667 W/m 3,3 C 7,5 C 17,7 km/h (3 Bft)
03.05.2023 11:03 9,2 C 15,6 C 65 % 1028,9 hPa 0,0 l/m 12,3 km/h (3 Bft) O 82 3 min 3,7 UV-I 675 W/m 3,0 C 5,4 C 19,3 km/h (3 Bft)
03.05.2023 11:06 9,2 C 16,1 C 65 % 1028,9 hPa 0,0 l/m 12,7 km/h (3 Bft) O-NO 69 3 min 3,8 UV-I 686 W/m 3,0 C 5,2 C 19,3 km/h (3 Bft)
03.05.2023 11:09 9,3 C 16,1 C 66 % 1028,9 hPa 0,0 l/m 12,8 km/h (3 Bft) NO 46 3 min 3,9 UV-I 692 W/m 3,3 C 5,3 C 16,1 km/h (3 Bft)
03.05.2023 11:12 9,3 C 16,1 C 66 % 1028,9 hPa 0,0 l/m 9,6 km/h (2 Bft) O-NO 57 3 min 4,0 UV-I 699 W/m 3,3 C 7,1 C 16,1 km/h (3 Bft)
03.05.2023 11:15 9,6 C 16,1 C 65 % 1029,0 hPa 0,0 l/m 9,4 km/h (2 Bft) NO 46 3 min 4,0 UV-I 706 W/m 3,4 C 7,5 C 16,1 km/h (3 Bft)
03.05.2023 11:18 9,6 C 16,1 C 64 % 1029,0 hPa 0,0 l/m 10,6 km/h (2 Bft) NO 54 3 min 4,1 UV-I 713 W/m 3,1 C 6,8 C 17,7 km/h (3 Bft)
03.05.2023 11:21 9,7 C 16,1 C 64 % 1029,0 hPa 0,0 l/m 12,1 km/h (2 Bft) O-NO 58 3 min 4,1 UV-I 714 W/m 3,2 C 6,1 C 22,5 km/h (4 Bft)
03.05.2023 11:24 9,8 C 17,2 C 64 % 1029,0 hPa 0,0 l/m 13,1 km/h (3 Bft) NO 40 3 min 4,2 UV-I 721 W/m 3,3 C 5,7 C 19,3 km/h (3 Bft)
03.05.2023 11:27 10,1 C 17,8 C 64 % 1028,8 hPa 0,0 l/m 10,1 km/h (2 Bft) NO 52 3 min 4,2 UV-I 718 W/m 3,6 C 7,6 C 16,1 km/h (3 Bft)
03.05.2023 11:30 10,3 C 17,8 C 62 % 1029,1 hPa 0,0 l/m 12,9 km/h (3 Bft) O 81 3 min 4,2 UV-I 729 W/m 3,3 C 6,4 C 24,1 km/h (4 Bft)
03.05.2023 11:33 9,8 C 18,3 C 60 % 1028,8 hPa 0,0 l/m 12,2 km/h (2 Bft) N-NO 16 3 min 4,3 UV-I 731 W/m 2,4 C 6,2 C 19,3 km/h (3 Bft)
03.05.2023 11:36 10,1 C 20,0 C 65 % 1028,9 hPa 0,0 l/m 9,4 km/h (2 Bft) N-NO 33 3 min 4,4 UV-I 745 W/m 3,8 C 8,1 C 16,1 km/h (3 Bft)
03.05.2023 11:39 10,4 C 20,0 C 63 % 1028,9 hPa 0,0 l/m 13,2 km/h (3 Bft) O-NO 61 3 min 4,4 UV-I 751 W/m 3,7 C 6,4 C 25,7 km/h (4 Bft)
03.05.2023 11:42 10,7 C 20,0 C 62 % 1028,9 hPa 0,0 l/m 9,8 km/h (2 Bft) NO 38 3 min 4,5 UV-I 751 W/m 3,7 C 8,5 C 17,7 km/h (3 Bft)
03.05.2023 11:45 10,4 C 20,0 C 61 % 1028,7 hPa 0,0 l/m 11,2 km/h (2 Bft) O-NO 69 3 min 4,5 UV-I 757 W/m 3,2 C 7,4 C 19,3 km/h (3 Bft)
03.05.2023 11:48 10,7 C 20,6 C 62 % 1028,7 hPa 0,0 l/m 12,2 km/h (2 Bft) O-NO 59 3 min 4,5 UV-I 754 W/m 3,7 C 7,2 C 20,9 km/h (4 Bft)
03.05.2023 11:51 10,7 C 21,1 C 63 % 1028,7 hPa 0,0 l/m 6,5 km/h (2 Bft) N-NO 30 3 min 4,6 UV-I 766 W/m 3,9 C 10,7 C 11,3 km/h (2 Bft)
03.05.2023 11:54 10,6 C 21,1 C 60 % 1028,8 hPa 0,0 l/m 12,1 km/h (2 Bft) NO 35 3 min 4,6 UV-I 763 W/m 3,2 C 7,2 C 20,9 km/h (4 Bft)
03.05.2023 11:57 10,6 C 21,1 C 62 % 1028,8 hPa 0,0 l/m 11,3 km/h (2 Bft) NO 43 3 min 4,6 UV-I 763 W/m 3,6 C 7,6 C 20,9 km/h (4 Bft)
03.05.2023 12:00 10,9 C 21,7 C 61 % 1028,8 hPa 0,0 l/m 8,6 km/h (2 Bft) O-NO 60 3 min 4,7 UV-I 765 W/m 3,7 C 9,4 C 14,5 km/h (3 Bft)
03.05.2023 12:03 10,9 C 21,7 C 61 % 1028,8 hPa 0,0 l/m 10,5 km/h (2 Bft) O-NO 61 3 min 4,8 UV-I 779 W/m 3,7 C 8,3 C 24,1 km/h (4 Bft)
03.05.2023 12:06 11,1 C 21,7 C 62 % 1028,8 hPa 0,0 l/m 10,8 km/h (2 Bft) N-NO 29 3 min 4,8 UV-I 771 W/m 4,1 C 8,4 C 20,9 km/h (4 Bft)
03.05.2023 12:09 11,1 C 21,1 C 61 % 1028,8 hPa 0,0 l/m 14,8 km/h (3 Bft) NO 49 3 min 4,8 UV-I 781 W/m 3,9 C 6,5 C 20,9 km/h (4 Bft)
03.05.2023 12:12 10,8 C 21,7 C 60 % 1028,7 hPa 0,0 l/m 9,7 km/h (2 Bft) N-NO 29 3 min 4,8 UV-I 777 W/m 3,4 C 8,6 C 16,1 km/h (3 Bft)
03.05.2023 12:15 11,3 C 21,7 C 61 % 1028,7 hPa 0,0 l/m 13,3 km/h (3 Bft) NO 46 3 min 4,9 UV-I 783 W/m 4,1 C 7,4 C 20,9 km/h (4 Bft)
03.05.2023 12:18 11,3 C 20,6 C 58 % 1028,6 hPa 0,0 l/m 15,5 km/h (3 Bft) NO 42 3 min 4,9 UV-I 793 W/m 3,3 C 6,5 C 20,9 km/h (4 Bft)
03.05.2023 12:21 11,1 C 20,6 C 59 % 1028,6 hPa 0,0 l/m 13,3 km/h (3 Bft) NO 45 3 min 4,9 UV-I 792 W/m 3,4 C 7,2 C 20,9 km/h (4 Bft)
03.05.2023 12:24 11,2 C 21,1 C 61 % 1028,5 hPa 0,0 l/m 10,4 km/h (2 Bft) NO 50 3 min 5,0 UV-I 802 W/m 4,0 C 8,7 C 16,1 km/h (3 Bft)
03.05.2023 12:27 11,6 C 21,1 C 58 % 1028,4 hPa 0,0 l/m 13,5 km/h (3 Bft) O-NO 57 3 min 5,0 UV-I 801 W/m 3,6 C 7,7 C 20,9 km/h (4 Bft)
03.05.2023 12:30 11,7 C 21,1 C 59 % 1028,5 hPa 0,0 l/m 13,0 km/h (3 Bft) NO 53 3 min 5,1 UV-I 815 W/m 4,0 C 8,0 C 20,9 km/h (4 Bft)
03.05.2023 12:33 11,7 C 21,7 C 59 % 1028,5 hPa 0,0 l/m 14,6 km/h (3 Bft) O-NO 59 3 min 5,1 UV-I 819 W/m 4,0 C 7,4 C 19,3 km/h (3 Bft)
03.05.2023 12:36 11,6 C 21,7 C 59 % 1028,6 hPa 0,0 l/m 14,6 km/h (3 Bft) NO 54 3 min 5,2 UV-I 821 W/m 3,9 C 7,2 C 24,1 km/h (4 Bft)
03.05.2023 12:39 11,7 C 22,2 C 58 % 1028,5 hPa 0,0 l/m 13,9 km/h (3 Bft) NO 49 3 min 5,2 UV-I 824 W/m 3,7 C 7,6 C 22,5 km/h (4 Bft)
03.05.2023 12:42 11,9 C 22,8 C 58 % 1028,5 hPa 0,0 l/m 14,2 km/h (3 Bft) NO 42 3 min 5,2 UV-I 823 W/m 3,9 C 7,8 C 20,9 km/h (4 Bft)
03.05.2023 12:45 11,7 C 23,3 C 57 % 1028,4 hPa 0,0 l/m 9,9 km/h (2 Bft) N-NO 30 3 min 5,3 UV-I 827 W/m 3,5 C 9,5 C 14,5 km/h (3 Bft)
03.05.2023 12:48 11,8 C 23,9 C 60 % 1028,3 hPa 0,0 l/m 9,8 km/h (2 Bft) NO 38 3 min 5,3 UV-I 826 W/m 4,3 C 9,7 C 14,5 km/h (3 Bft)
03.05.2023 12:51 12,1 C 23,9 C 60 % 1028,4 hPa 0,0 l/m 11,4 km/h (2 Bft) O-NO 78 3 min 5,3 UV-I 830 W/m 4,6 C 9,2 C 17,7 km/h (3 Bft)
03.05.2023 12:54 12,2 C 24,4 C 59 % 1028,4 hPa 0,0 l/m 10,4 km/h (2 Bft) NO 41 3 min 5,3 UV-I 834 W/m 4,4 C 9,8 C 16,1 km/h (3 Bft)
03.05.2023 12:57 12,7 C 24,4 C 58 % 1028,4 hPa 0,0 l/m 11,4 km/h (2 Bft) N-NO 19 3 min 5,4 UV-I 840 W/m 4,7 C 9,9 C 16,1 km/h (3 Bft)
03.05.2023 13:00 12,8 C 25,0 C 55 % 1028,4 hPa 0,0 l/m 14,0 km/h (3 Bft) N-NO 29 3 min 5,4 UV-I 845 W/m 4,0 C 8,9 C 20,9 km/h (4 Bft)
03.05.2023 13:03 12,6 C 24,4 C 57 % 1028,4 hPa 0,0 l/m 14,0 km/h (3 Bft) NO 44 3 min 5,4 UV-I 845 W/m 4,3 C 8,7 C 19,3 km/h (3 Bft)
03.05.2023 13:06 12,6 C 24,4 C 54 % 1028,5 hPa 0,0 l/m 12,3 km/h (3 Bft) N-NO 15 3 min 5,5 UV-I 852 W/m 3,5 C 9,4 C 17,7 km/h (3 Bft)
03.05.2023 13:09 12,7 C 25,0 C 53 % 1028,4 hPa 0,0 l/m 14,9 km/h (3 Bft) N-NO 33 3 min 5,4 UV-I 842 W/m 3,4 C 8,4 C 19,3 km/h (3 Bft)
03.05.2023 13:12 12,8 C 25,6 C 58 % 1028,4 hPa 0,0 l/m 10,6 km/h (2 Bft) N-NO 28 3 min 5,5 UV-I 849 W/m 4,7 C 10,4 C 19,3 km/h (3 Bft)
03.05.2023 13:15 12,9 C 24,4 C 55 % 1028,4 hPa 0,0 l/m 16,4 km/h (3 Bft) N-NO 26 3 min 5,5 UV-I 846 W/m 4,1 C 8,2 C 22,5 km/h (4 Bft)
03.05.2023 13:18 12,9 C 25,0 C 54 % 1028,4 hPa 0,0 l/m 12,9 km/h (3 Bft) NO 45 3 min 5,5 UV-I 842 W/m 3,8 C 9,5 C 19,3 km/h (3 Bft)
03.05.2023 13:21 13,0 C 25,6 C 53 % 1028,3 hPa 0,0 l/m 9,3 km/h (2 Bft) O-NO 68 3 min 5,5 UV-I 849 W/m 3,6 C 11,3 C 16,1 km/h (3 Bft)
03.05.2023 13:24 13,2 C 25,0 C 53 % 1028,3 hPa 0,0 l/m 13,4 km/h (3 Bft) O-NO 57 3 min 5,4 UV-I 840 W/m 3,8 C 9,6 C 19,3 km/h (3 Bft)
03.05.2023 13:27 13,1 C 24,4 C 52 % 1028,2 hPa 0,0 l/m 11,4 km/h (2 Bft) O-NO 73 3 min 5,3 UV-I 817 W/m 3,5 C 10,4 C 17,7 km/h (3 Bft)
03.05.2023 13:30 13,2 C 24,4 C 55 % 1028,2 hPa 0,0 l/m 8,0 km/h (2 Bft) O-NO 59 3 min 5,4 UV-I 833 W/m 4,4 C 12,2 C 17,7 km/h (3 Bft)
03.05.2023 13:33 13,4 C 25,0 C 53 % 1028,1 hPa 0,0 l/m 11,9 km/h (2 Bft) O-NO 63 3 min 5,5 UV-I 852 W/m 4,0 C 10,5 C 19,3 km/h (3 Bft)
03.05.2023 13:36 13,2 C 24,4 C 51 % 1028,2 hPa 0,0 l/m 14,3 km/h (3 Bft) N-NO 27 3 min 5,6 UV-I 857 W/m 3,3 C 9,3 C 19,3 km/h (3 Bft)
03.05.2023 13:39 13,0 C 25,6 C 53 % 1028,1 hPa 0,0 l/m 8,2 km/h (2 Bft) N-NO 20 3 min 5,5 UV-I 859 W/m 3,6 C 11,9 C 16,1 km/h (3 Bft)
03.05.2023 13:42 13,3 C 26,7 C 57 % 1028,1 hPa 0,0 l/m 10,7 km/h (2 Bft) N-NO 33 3 min 5,6 UV-I 856 W/m 5,0 C 10,9 C 19,3 km/h (3 Bft)
03.05.2023 13:45 13,3 C 26,1 C 54 % 1028,1 hPa 0,0 l/m 10,0 km/h (2 Bft) NO 45 3 min 5,5 UV-I 842 W/m 4,2 C 11,2 C 17,7 km/h (3 Bft)
03.05.2023 13:48 13,5 C 25,6 C 52 % 1028,1 hPa 0,0 l/m 12,4 km/h (3 Bft) NO 48 3 min 5,6 UV-I 851 W/m 3,8 C 10,4 C 19,3 km/h (3 Bft)
03.05.2023 13:51 13,3 C 26,1 C 52 % 1028,1 hPa 0,0 l/m 8,1 km/h (2 Bft) N-NO 29 3 min 5,6 UV-I 852 W/m 3,7 C 12,3 C 16,1 km/h (3 Bft)
03.05.2023 13:54 13,6 C 26,1 C 52 % 1028,1 hPa 0,0 l/m 15,2 km/h (3 Bft) N-NO 30 3 min 5,5 UV-I 845 W/m 3,9 C 9,4 C 22,5 km/h (4 Bft)
03.05.2023 13:57 13,5 C 26,7 C 51 % 1028,0 hPa 0,0 l/m 8,6 km/h (2 Bft) N 355 3 min 5,6 UV-I 856 W/m 3,6 C 12,2 C 12,9 km/h (3 Bft)
03.05.2023 14:00 13,7 C 27,2 C 55 % 1028,0 hPa 0,0 l/m 7,7 km/h (2 Bft) N-NO 15 3 min 5,5 UV-I 851 W/m 4,8 C 12,9 C 17,7 km/h (3 Bft)
03.05.2023 14:03 14,0 C 26,1 C 52 % 1028,1 hPa 0,0 l/m 11,1 km/h (2 Bft) N 9 3 min 5,5 UV-I 836 W/m 4,3 C 11,5 C 19,3 km/h (3 Bft)
03.05.2023 14:06 14,1 C 26,1 C 49 % 1028,0 hPa 0,0 l/m 12,9 km/h (3 Bft) N 9 3 min 5,3 UV-I 824 W/m 3,6 C 10,9 C 20,9 km/h (4 Bft)
03.05.2023 14:09 14,0 C 25,6 C 50 % 1028,0 hPa 0,0 l/m 15,1 km/h (3 Bft) NO 41 3 min 5,4 UV-I 818 W/m 3,7 C 9,9 C 20,9 km/h (4 Bft)
03.05.2023 14:12 13,7 C 25,6 C 49 % 1028,0 hPa 0,0 l/m 9,7 km/h (2 Bft) O-NO 63 3 min 5,4 UV-I 840 W/m 3,2 C 11,8 C 16,1 km/h (3 Bft)
03.05.2023 14:15 14,2 C 26,7 C 49 % 1028,0 hPa 0,0 l/m 11,2 km/h (2 Bft) O 82 3 min 5,4 UV-I 826 W/m 3,6 C 11,7 C 16,1 km/h (3 Bft)
03.05.2023 14:18 14,3 C 26,1 C 51 % 1028,1 hPa 0,0 l/m 8,1 km/h (2 Bft) N-NO 32 3 min 5,5 UV-I 843 W/m 4,3 C 13,3 C 16,1 km/h (3 Bft)
03.05.2023 14:21 14,4 C 27,2 C 50 % 1027,9 hPa 0,0 l/m 11,8 km/h (2 Bft) N-NO 28 3 min 5,3 UV-I 819 W/m 4,1 C 11,7 C 17,7 km/h (3 Bft)
03.05.2023 14:24 14,4 C 27,2 C 52 % 1028,0 hPa 0,0 l/m 12,9 km/h (3 Bft) NO 42 3 min 5,4 UV-I 823 W/m 4,7 C 11,2 C 19,3 km/h (3 Bft)
03.05.2023 14:27 14,4 C 27,2 C 50 % 1027,9 hPa 0,0 l/m 11,2 km/h (2 Bft) O 79 3 min 5,4 UV-I 831 W/m 4,1 C 11,9 C 20,9 km/h (4 Bft)
03.05.2023 14:30 14,4 C 26,7 C 50 % 1028,0 hPa 0,0 l/m 12,2 km/h (2 Bft) NO 36 3 min 5,3 UV-I 822 W/m 4,1 C 11,5 C 25,7 km/h (4 Bft)
03.05.2023 14:33 14,5 C 27,8 C 49 % 1027,9 hPa 0,0 l/m 10,5 km/h (2 Bft) O-NO 61 3 min 5,4 UV-I 847 W/m 3,9 C 12,3 C 17,7 km/h (3 Bft)
03.05.2023 14:36 14,6 C 27,8 C 50 % 1027,9 hPa 0,0 l/m 7,7 km/h (2 Bft) N-NO 18 3 min 5,3 UV-I 821 W/m 4,3 C 13,8 C 17,7 km/h (3 Bft)
03.05.2023 14:39 14,4 C 28,9 C 47 % 1027,8 hPa 0,0 l/m 6,5 km/h (2 Bft) NO 36 3 min 5,4 UV-I 828 W/m 3,2 C 14,4 C 17,7 km/h (3 Bft)
03.05.2023 14:42 14,6 C 27,8 C 49 % 1027,7 hPa 0,0 l/m 15,4 km/h (3 Bft) NO 42 3 min 5,3 UV-I 809 W/m 4,0 C 10,6 C 22,5 km/h (4 Bft)
03.05.2023 14:45 14,6 C 27,2 C 49 % 1027,7 hPa 0,0 l/m 11,1 km/h (2 Bft) O-NO 66 3 min 5,3 UV-I 814 W/m 4,0 C 12,2 C 20,9 km/h (4 Bft)
03.05.2023 14:48 14,5 C 26,7 C 49 % 1027,6 hPa 0,0 l/m 8,8 km/h (2 Bft) N-NO 21 3 min 5,3 UV-I 815 W/m 3,9 C 13,2 C 16,1 km/h (3 Bft)
03.05.2023 14:51 14,3 C 26,7 C 49 % 1027,6 hPa 0,0 l/m 10,5 km/h (2 Bft) NO 44 3 min 5,2 UV-I 797 W/m 3,7 C 12,1 C 17,7 km/h (3 Bft)
03.05.2023 14:54 14,6 C 26,7 C 48 % 1027,5 hPa 0,0 l/m 10,4 km/h (2 Bft) O-NO 74 3 min 5,0 UV-I 773 W/m 3,7 C 12,5 C 16,1 km/h (3 Bft)
03.05.2023 14:57 14,2 C 25,6 C 47 % 1027,3 hPa 0,0 l/m 9,1 km/h (2 Bft) O-NO 60 3 min 5,0 UV-I 771 W/m 3,1 C 12,7 C 16,1 km/h (3 Bft)
03.05.2023 15:00 14,7 C 25,6 C 50 % 1027,4 hPa 0,0 l/m 14,9 km/h (3 Bft) NO 41 3 min 5,1 UV-I 803 W/m 4,4 C 10,9 C 24,1 km/h (4 Bft)
03.05.2023 15:03 14,3 C 25,6 C 48 % 1027,3 hPa 0,0 l/m 11,6 km/h (2 Bft) N 360 3 min 5,0 UV-I 782 W/m 3,4 C 11,6 C 20,9 km/h (4 Bft)
03.05.2023 15:06 14,8 C 27,2 C 53 % 1027,4 hPa 0,0 l/m 12,5 km/h (3 Bft) N-NO 31 3 min 5,0 UV-I 798 W/m 5,3 C 11,8 C 20,9 km/h (4 Bft)
03.05.2023 15:09 14,9 C 26,7 C 48 % 1027,2 hPa 0,0 l/m 14,3 km/h (3 Bft) N-NO 27 3 min 5,0 UV-I 790 W/m 4,0 C 11,3 C 22,5 km/h (4 Bft)
03.05.2023 15:12 15,2 C 27,8 C 50 % 1027,2 hPa 0,0 l/m 11,7 km/h (2 Bft) NO 42 3 min 5,0 UV-I 784 W/m 4,8 C 12,6 C 20,9 km/h (4 Bft)
03.05.2023 15:15 14,8 C 27,2 C 47 % 1027,2 hPa 0,0 l/m 15,6 km/h (3 Bft) O-NO 59 3 min 4,8 UV-I 763 W/m 3,6 C 10,8 C 24,1 km/h (4 Bft)
03.05.2023 15:18 14,9 C 26,7 C 47 % 1027,2 hPa 0,0 l/m 13,4 km/h (3 Bft) N 5 3 min 4,8 UV-I 771 W/m 3,7 C 11,6 C 19,3 km/h (3 Bft)
03.05.2023 15:21 15,0 C 26,1 C 46 % 1027,1 hPa 0,0 l/m 15,9 km/h (3 Bft) NO 34 3 min 4,8 UV-I 754 W/m 3,5 C 10,9 C 22,5 km/h (4 Bft)
03.05.2023 15:24 15,2 C 26,7 C 49 % 1027,1 hPa 0,0 l/m 12,7 km/h (3 Bft) O-NO 62 3 min 4,9 UV-I 788 W/m 4,6 C 12,2 C 19,3 km/h (3 Bft)
03.05.2023 15:27 15,1 C 26,7 C 49 % 1027,0 hPa 0,0 l/m 11,0 km/h (2 Bft) O 92 3 min 4,7 UV-I 767 W/m 4,5 C 12,8 C 17,7 km/h (3 Bft)
03.05.2023 15:30 15,1 C 25,6 C 46 % 1027,0 hPa 0,0 l/m 11,1 km/h (2 Bft) O 88 3 min 4,4 UV-I 685 W/m 3,6 C 12,8 C 17,7 km/h (3 Bft)
03.05.2023 15:33 14,8 C 25,6 C 46 % 1026,9 hPa 0,0 l/m 9,1 km/h (2 Bft) O 91 3 min 4,4 UV-I 726 W/m 3,3 C 13,3 C 14,5 km/h (3 Bft)
03.05.2023 15:36 15,2 C 25,6 C 46 % 1026,9 hPa 0,0 l/m 13,5 km/h (3 Bft) NO 40 3 min 4,5 UV-I 725 W/m 3,7 C 11,9 C 19,3 km/h (3 Bft)
03.05.2023 15:39 15,1 C 25,6 C 45 % 1026,9 hPa 0,0 l/m 13,1 km/h (3 Bft) N-NO 19 3 min 4,2 UV-I 690 W/m 3,3 C 12,0 C 19,3 km/h (3 Bft)
03.05.2023 15:42 15,1 C 24,4 C 47 % 1026,8 hPa 0,0 l/m 12,9 km/h (3 Bft) NO 42 3 min 3,9 UV-I 618 W/m 3,9 C 12,0 C 22,5 km/h (4 Bft)
03.05.2023 15:45 15,0 C 23,9 C 45 % 1026,9 hPa 0,0 l/m 11,3 km/h (2 Bft) NO 39 3 min 3,9 UV-I 566 W/m 3,2 C 12,6 C 17,7 km/h (3 Bft)
03.05.2023 15:48 15,3 C 25,6 C 46 % 1026,7 hPa 0,0 l/m 11,2 km/h (2 Bft) NO 36 3 min 4,4 UV-I 741 W/m 3,8 C 12,9 C 20,9 km/h (4 Bft)
03.05.2023 15:51 15,4 C 25,0 C 44 % 1026,7 hPa 0,0 l/m 14,7 km/h (3 Bft) NO 52 3 min 4,3 UV-I 723 W/m 3,2 C 11,8 C 20,9 km/h (4 Bft)
03.05.2023 15:54 15,4 C 26,1 C 44 % 1026,5 hPa 0,0 l/m 11,6 km/h (2 Bft) O-NO 59 3 min 4,3 UV-I 735 W/m 3,2 C 12,9 C 19,3 km/h (3 Bft)
03.05.2023 15:57 15,5 C 25,6 C 46 % 1026,5 hPa 0,0 l/m 11,5 km/h (2 Bft) NO 38 3 min 4,3 UV-I 741 W/m 3,9 C 13,0 C 20,9 km/h (4 Bft)
03.05.2023 16:00 15,4 C 25,6 C 44 % 1026,6 hPa 0,0 l/m 13,3 km/h (3 Bft) NO 35 3 min 4,2 UV-I 732 W/m 3,2 C 12,3 C 19,3 km/h (3 Bft)
03.05.2023 16:03 15,8 C 27,2 C 46 % 1026,5 hPa 0,0 l/m 10,7 km/h (2 Bft) NO 47 3 min 4,2 UV-I 733 W/m 4,2 C 13,7 C 16,1 km/h (3 Bft)
03.05.2023 16:06 15,7 C 27,2 C 43 % 1026,4 hPa 0,0 l/m 15,8 km/h (3 Bft) NO 47 3 min 4,2 UV-I 726 W/m 3,2 C 11,8 C 22,5 km/h (4 Bft)
03.05.2023 16:09 15,6 C 26,7 C 44 % 1026,5 hPa 0,0 l/m 14,5 km/h (3 Bft) O-NO 63 3 min 4,0 UV-I 679 W/m 3,4 C 12,1 C 19,3 km/h (3 Bft)
03.05.2023 16:12 15,6 C 26,1 C 44 % 1026,5 hPa 0,0 l/m 16,5 km/h (3 Bft) N-NO 28 3 min 4,0 UV-I 702 W/m 3,4 C 11,5 C 25,7 km/h (4 Bft)
03.05.2023 16:15 15,6 C 26,7 C 44 % 1026,4 hPa 0,0 l/m 13,4 km/h (3 Bft) O-NO 72 3 min 4,0 UV-I 693 W/m 3,4 C 12,5 C 17,7 km/h (3 Bft)
03.05.2023 16:18 15,7 C 26,7 C 43 % 1026,3 hPa 0,0 l/m 13,0 km/h (3 Bft) NO 46 3 min 4,0 UV-I 702 W/m 3,2 C 12,7 C 22,5 km/h (4 Bft)
03.05.2023 16:21 15,8 C 27,2 C 46 % 1026,3 hPa 0,0 l/m 8,7 km/h (2 Bft) N-NW 346 3 min 4,0 UV-I 699 W/m 4,2 C 14,6 C 14,5 km/h (3 Bft)
03.05.2023 16:24 16,0 C 28,9 C 45 % 1026,2 hPa 0,0 l/m 11,2 km/h (2 Bft) O-NO 63 3 min 3,9 UV-I 691 W/m 4,1 C 13,7 C 20,9 km/h (4 Bft)
03.05.2023 16:27 15,9 C 27,2 C 42 % 1026,2 hPa 0,0 l/m 15,3 km/h (3 Bft) O-NO 67 3 min 3,9 UV-I 699 W/m 3,0 C 12,2 C 25,7 km/h (4 Bft)
03.05.2023 16:30 15,8 C 26,7 C 41 % 1026,3 hPa 0,0 l/m 13,0 km/h (3 Bft) NO 54 3 min 3,8 UV-I 686 W/m 2,6 C 12,8 C 20,9 km/h (4 Bft)
03.05.2023 16:33 15,8 C 26,7 C 43 % 1026,2 hPa 0,0 l/m 7,2 km/h (2 Bft) O-NO 62 3 min 3,6 UV-I 633 W/m 3,3 C 15,4 C 16,1 km/h (3 Bft)
03.05.2023 16:36 16,0 C 26,7 C 41 % 1026,2 hPa 0,0 l/m 12,1 km/h (2 Bft) NO 34 3 min 3,5 UV-I 636 W/m 2,8 C 13,4 C 24,1 km/h (4 Bft)
03.05.2023 16:39 15,9 C 26,1 C 40 % 1026,3 hPa 0,0 l/m 16,4 km/h (3 Bft) NO 53 3 min 3,6 UV-I 677 W/m 2,3 C 11,9 C 22,5 km/h (4 Bft)
03.05.2023 16:42 15,9 C 26,1 C 41 % 1026,2 hPa 0,0 l/m 8,0 km/h (2 Bft) NO 52 3 min 3,5 UV-I 642 W/m 2,7 C 15,0 C 16,1 km/h (3 Bft)
03.05.2023 16:45 16,2 C 27,2 C 43 % 1026,1 hPa 0,0 l/m 10,6 km/h (2 Bft) N-NO 22 3 min 3,4 UV-I 655 W/m 3,6 C 14,2 C 17,7 km/h (3 Bft)
03.05.2023 16:48 16,0 C 26,7 C 41 % 1026,2 hPa 0,0 l/m 15,2 km/h (3 Bft) NO 51 3 min 3,3 UV-I 606 W/m 2,8 C 12,3 C 20,9 km/h (4 Bft)
03.05.2023 16:51 15,9 C 26,7 C 41 % 1026,2 hPa 0,0 l/m 14,4 km/h (3 Bft) N-NO 21 3 min 3,3 UV-I 626 W/m 2,7 C 12,5 C 20,9 km/h (4 Bft)
03.05.2023 16:54 15,7 C 26,7 C 41 % 1026,2 hPa 0,0 l/m 8,9 km/h (2 Bft) O 82 3 min 3,2 UV-I 593 W/m 2,5 C 14,4 C 17,7 km/h (3 Bft)
03.05.2023 16:57 15,8 C 26,7 C 41 % 1026,1 hPa 0,0 l/m 9,5 km/h (2 Bft) N-NO 32 3 min 3,0 UV-I 543 W/m 2,6 C 14,2 C 16,1 km/h (3 Bft)
03.05.2023 17:00 16,0 C 26,1 C 43 % 1026,1 hPa 0,0 l/m 9,3 km/h (2 Bft) N-NO 22 3 min 3,1 UV-I 599 W/m 3,4 C 14,5 C 17,7 km/h (3 Bft)
03.05.2023 17:03 16,0 C 27,2 C 41 % 1026,0 hPa 0,0 l/m 11,1 km/h (2 Bft) NO 51 3 min 3,1 UV-I 585 W/m 2,8 C 13,8 C 17,7 km/h (3 Bft)
03.05.2023 17:07 16,2 C 26,7 C 40 % 1026,0 hPa 0,0 l/m 11,8 km/h (2 Bft) NO 41 4 min 3,0 UV-I 569 W/m 2,6 C 13,7 C 19,3 km/h (3 Bft)
03.05.2023 17:09 16,1 C 27,2 C 39 % 1026,0 hPa 0,0 l/m 10,0 km/h (2 Bft) O-NO 62 2 min 3,0 UV-I 577 W/m 2,1 C 14,3 C 17,7 km/h (3 Bft)
03.05.2023 17:12 16,1 C 27,8 C 40 % 1026,0 hPa 0,0 l/m 11,8 km/h (2 Bft) NO 46 3 min 2,9 UV-I 570 W/m 2,5 C 13,6 C 17,7 km/h (3 Bft)
03.05.2023 17:15 16,1 C 26,7 C 40 % 1026,1 hPa 0,0 l/m 13,0 km/h (3 Bft) NO 44 3 min 2,7 UV-I 542 W/m 2,5 C 13,2 C 19,3 km/h (3 Bft)
03.05.2023 17:18 15,9 C 26,7 C 40 % 1025,9 hPa 0,0 l/m 11,5 km/h (2 Bft) NO 47 3 min 2,7 UV-I 543 W/m 2,3 C 13,5 C 17,7 km/h (3 Bft)
03.05.2023 17:21 15,9 C 27,2 C 42 % 1026,0 hPa 0,0 l/m 12,8 km/h (3 Bft) NO 54 3 min 2,7 UV-I 543 W/m 3,0 C 13,0 C 22,5 km/h (4 Bft)
03.05.2023 17:24 15,8 C 25,6 C 39 % 1026,0 hPa 0,0 l/m 15,9 km/h (3 Bft) O-NO 65 3 min 2,6 UV-I 526 W/m 1,9 C 11,9 C 22,5 km/h (4 Bft)
03.05.2023 17:27 15,8 C 25,6 C 39 % 1025,9 hPa 0,0 l/m 12,3 km/h (3 Bft) O-NO 73 3 min 2,6 UV-I 520 W/m 1,9 C 13,1 C 22,5 km/h (4 Bft)
03.05.2023 17:30 15,8 C 25,6 C 39 % 1026,0 hPa 0,0 l/m 11,4 km/h (2 Bft) NO 34 3 min 2,5 UV-I 512 W/m 1,9 C 13,4 C 20,9 km/h (4 Bft)
03.05.2023 17:33 15,8 C 26,1 C 40 % 1025,9 hPa 0,0 l/m 9,4 km/h (2 Bft) O-NO 66 3 min 2,5 UV-I 507 W/m 2,2 C 14,3 C 16,1 km/h (3 Bft)
03.05.2023 17:36 15,9 C 25,6 C 39 % 1026,0 hPa 0,0 l/m 14,1 km/h (3 Bft) NO 56 3 min 2,4 UV-I 492 W/m 2,0 C 12,6 C 22,5 km/h (4 Bft)
03.05.2023 17:39 15,8 C 25,0 C 39 % 1026,0 hPa 0,0 l/m 13,2 km/h (3 Bft) N-NO 32 3 min 2,3 UV-I 442 W/m 1,9 C 12,8 C 20,9 km/h (4 Bft)
03.05.2023 17:42 16,0 C 25,6 C 41 % 1025,9 hPa 0,0 l/m 9,0 km/h (2 Bft) N-NO 17 3 min 2,2 UV-I 466 W/m 2,8 C 14,7 C 16,1 km/h (3 Bft)
03.05.2023 17:45 15,9 C 24,4 C 38 % 1026,0 hPa 0,0 l/m 15,7 km/h (3 Bft) O-NO 61 3 min 2,2 UV-I 453 W/m 1,6 C 12,1 C 22,5 km/h (4 Bft)
03.05.2023 17:48 15,8 C 24,4 C 38 % 1025,9 hPa 0,0 l/m 12,2 km/h (2 Bft) O-NO 61 3 min 2,1 UV-I 452 W/m 1,5 C 13,1 C 19,3 km/h (3 Bft)
03.05.2023 17:51 15,7 C 23,9 C 37 % 1026,1 hPa 0,0 l/m 16,4 km/h (3 Bft) NO 55 3 min 2,1 UV-I 456 W/m 1,1 C 11,6 C 20,9 km/h (4 Bft)
03.05.2023 17:54 15,7 C 23,9 C 37 % 1026,1 hPa 0,0 l/m 14,0 km/h (3 Bft) O-NO 63 3 min 2,1 UV-I 454 W/m 1,1 C 12,4 C 20,9 km/h (4 Bft)
03.05.2023 17:57 15,7 C 23,3 C 36 % 1025,9 hPa 0,0 l/m 15,9 km/h (3 Bft) NO 51 3 min 2,0 UV-I 436 W/m 0,7 C 11,8 C 22,5 km/h (4 Bft)
03.05.2023 18:00 15,7 C 23,9 C 39 % 1025,9 hPa 0,0 l/m 12,3 km/h (3 Bft) NO 49 3 min 1,9 UV-I 416 W/m 1,8 C 13,0 C 20,9 km/h (4 Bft)
03.05.2023 18:03 15,6 C 22,8 C 36 % 1025,9 hPa 0,0 l/m 15,4 km/h (3 Bft) NO 56 3 min 1,8 UV-I 394 W/m 0,6 C 11,8 C 22,5 km/h (4 Bft)
03.05.2023 18:06 15,6 C 22,8 C 36 % 1025,8 hPa 0,0 l/m 14,9 km/h (3 Bft) O-NO 75 3 min 1,8 UV-I 418 W/m 0,6 C 12,0 C 19,3 km/h (3 Bft)
03.05.2023 18:09 15,6 C 23,3 C 37 % 1025,8 hPa 0,0 l/m 11,6 km/h (2 Bft) O-NO 57 3 min 1,8 UV-I 418 W/m 1,0 C 13,1 C 17,7 km/h (3 Bft)
03.05.2023 18:12 15,6 C 23,9 C 37 % 1025,8 hPa 0,0 l/m 11,4 km/h (2 Bft) O-NO 77 3 min 1,8 UV-I 418 W/m 1,0 C 13,2 C 17,7 km/h (3 Bft)
03.05.2023 18:15 15,6 C 23,9 C 38 % 1025,8 hPa 0,0 l/m 13,6 km/h (3 Bft) NO 44 3 min 1,7 UV-I 404 W/m 1,3 C 12,4 C 19,3 km/h (3 Bft)
03.05.2023 18:18 15,4 C 22,8 C 36 % 1025,8 hPa 0,0 l/m 16,5 km/h (3 Bft) O-NO 61 3 min 1,7 UV-I 394 W/m 0,4 C 11,2 C 22,5 km/h (4 Bft)
03.05.2023 18:21 15,5 C 22,2 C 38 % 1025,8 hPa 0,0 l/m 13,1 km/h (3 Bft) O-NO 59 3 min 1,6 UV-I 366 W/m 1,3 C 12,4 C 19,3 km/h (3 Bft)
03.05.2023 18:24 15,4 C 21,7 C 38 % 1025,8 hPa 0,0 l/m 16,1 km/h (3 Bft) O-NO 67 3 min 1,5 UV-I 356 W/m 1,2 C 11,3 C 20,9 km/h (4 Bft)
03.05.2023 18:27 15,4 C 21,7 C 36 % 1025,8 hPa 0,0 l/m 16,0 km/h (3 Bft) NO 55 3 min 1,5 UV-I 373 W/m 0,4 C 11,4 C 24,1 km/h (4 Bft)
03.05.2023 18:30 15,3 C 21,7 C 36 % 1025,8 hPa 0,0 l/m 14,4 km/h (3 Bft) N-NO 30 3 min 1,5 UV-I 363 W/m 0,3 C 11,8 C 20,9 km/h (4 Bft)
03.05.2023 18:33 15,3 C 22,2 C 37 % 1025,8 hPa 0,0 l/m 9,3 km/h (2 Bft) NO 49 3 min 1,4 UV-I 348 W/m 0,7 C 13,8 C 16,1 km/h (3 Bft)
03.05.2023 18:36 15,4 C 22,2 C 38 % 1025,7 hPa 0,0 l/m 9,4 km/h (2 Bft) NO 44 3 min 1,3 UV-I 335 W/m 1,2 C 13,8 C 17,7 km/h (3 Bft)
03.05.2023 18:39 15,3 C 21,7 C 37 % 1025,8 hPa 0,0 l/m 10,4 km/h (2 Bft) NO 38 3 min 1,3 UV-I 328 W/m 0,7 C 13,3 C 17,7 km/h (3 Bft)
03.05.2023 18:42 15,3 C 20,6 C 36 % 1025,7 hPa 0,0 l/m 14,3 km/h (3 Bft) O-NO 69 3 min 1,2 UV-I 301 W/m 0,3 C 11,8 C 19,3 km/h (3 Bft)
03.05.2023 18:45 15,1 C 20,0 C 36 % 1025,8 hPa 0,0 l/m 13,7 km/h (3 Bft) NO 41 3 min 1,2 UV-I 292 W/m 0,1 C 11,8 C 22,5 km/h (4 Bft)
03.05.2023 18:48 15,1 C 19,4 C 37 % 1025,7 hPa 0,0 l/m 12,6 km/h (3 Bft) NO 46 3 min 1,1 UV-I 276 W/m 0,5 C 12,2 C 19,3 km/h (3 Bft)
03.05.2023 18:51 14,8 C 18,3 C 38 % 1025,8 hPa 0,0 l/m 17,1 km/h (3 Bft) NO 40 3 min 1,0 UV-I 248 W/m 0,6 C 10,3 C 22,5 km/h (4 Bft)
03.05.2023 18:54 14,7 C 17,2 C 38 % 1025,8 hPa 0,0 l/m 14,2 km/h (3 Bft) NO 39 3 min 1,0 UV-I 251 W/m 0,5 C 11,1 C 22,5 km/h (4 Bft)
03.05.2023 18:57 14,7 C 16,1 C 38 % 1025,8 hPa 0,0 l/m 11,6 km/h (2 Bft) N-NO 22 3 min 1,0 UV-I 257 W/m 0,5 C 12,1 C 17,7 km/h (3 Bft)
03.05.2023 19:00 14,7 C 15,0 C 37 % 1025,8 hPa 0,0 l/m 16,0 km/h (3 Bft) NO 44 3 min 0,9 UV-I 239 W/m 0,2 C 10,5 C 24,1 km/h (4 Bft)
03.05.2023 19:03 14,7 C 14,4 C 36 % 1025,6 hPa 0,0 l/m 16,6 km/h (3 Bft) NO 54 3 min 0,9 UV-I 236 W/m -0,2 C 10,3 C 25,7 km/h (4 Bft)
03.05.2023 19:06 14,7 C 14,4 C 36 % 1025,6 hPa 0,0 l/m 12,8 km/h (3 Bft) NO 53 3 min 0,9 UV-I 249 W/m -0,2 C 11,6 C 20,9 km/h (4 Bft)
03.05.2023 19:09 14,7 C 13,9 C 37 % 1025,8 hPa 0,0 l/m 10,6 km/h (2 Bft) NO 53 3 min 0,8 UV-I 225 W/m 0,2 C 12,5 C 17,7 km/h (3 Bft)
03.05.2023 19:12 14,6 C 13,9 C 37 % 1025,8 hPa 0,0 l/m 10,8 km/h (2 Bft) NO 49 3 min 0,8 UV-I 225 W/m 0,1 C 12,3 C 20,9 km/h (4 Bft)
03.05.2023 19:15 14,6 C 14,4 C 36 % 1025,6 hPa 0,0 l/m 12,1 km/h (2 Bft) O-NO 61 3 min 0,7 UV-I 221 W/m -0,3 C 11,8 C 20,9 km/h (4 Bft)
03.05.2023 19:18 14,6 C 15,0 C 36 % 1025,7 hPa 0,0 l/m 13,7 km/h (3 Bft) N-NO 33 3 min 0,7 UV-I 221 W/m -0,3 C 11,2 C 17,7 km/h (3 Bft)
03.05.2023 19:21 14,5 C 15,6 C 37 % 1025,6 hPa 0,0 l/m 10,2 km/h (2 Bft) NO 53 3 min 0,7 UV-I 206 W/m -0,0 C 12,5 C 16,1 km/h (3 Bft)
03.05.2023 19:24 14,4 C 15,6 C 37 % 1025,6 hPa 0,0 l/m 11,8 km/h (2 Bft) NO 36 3 min 0,7 UV-I 207 W/m -0,1 C 11,7 C 17,7 km/h (3 Bft)
03.05.2023 19:27 14,4 C 15,6 C 37 % 1025,7 hPa 0,0 l/m 11,0 km/h (2 Bft) NO 44 3 min 0,6 UV-I 202 W/m -0,1 C 12,0 C 17,7 km/h (3 Bft)
03.05.2023 19:30 14,5 C 15,0 C 37 % 1025,6 hPa 0,0 l/m 14,1 km/h (3 Bft) O-NO 58 3 min 0,6 UV-I 190 W/m -0,0 C 10,9 C 25,7 km/h (4 Bft)
03.05.2023 19:33 14,4 C 14,4 C 39 % 1025,7 hPa 0,0 l/m 12,8 km/h (3 Bft) O-NO 59 3 min 0,6 UV-I 180 W/m 0,6 C 11,3 C 20,9 km/h (4 Bft)
03.05.2023 19:36 14,4 C 13,9 C 37 % 1025,7 hPa 0,0 l/m 14,3 km/h (3 Bft) O-NO 61 3 min 0,5 UV-I 168 W/m -0,1 C 10,7 C 22,5 km/h (4 Bft)
03.05.2023 19:39 14,3 C 13,3 C 38 % 1025,6 hPa 0,0 l/m 14,1 km/h (3 Bft) NO 53 3 min 0,5 UV-I 158 W/m 0,2 C 10,7 C 25,7 km/h (4 Bft)
03.05.2023 19:42 14,2 C 12,8 C 38 % 1025,6 hPa 0,0 l/m 10,7 km/h (2 Bft) N-NO 26 3 min 0,5 UV-I 147 W/m 0,1 C 11,9 C 19,3 km/h (3 Bft)
03.05.2023 19:45 14,1 C 12,2 C 39 % 1025,5 hPa 0,0 l/m 11,5 km/h (2 Bft) O-NO 63 3 min 0,1 UV-I 137 W/m 0,4 C 11,4 C 17,7 km/h (3 Bft)
03.05.2023 19:48 14,0 C 12,2 C 39 % 1025,6 hPa 0,0 l/m 11,4 km/h (2 Bft) O-NO 77 3 min 0,0 UV-I 129 W/m 0,3 C 11,4 C 20,9 km/h (4 Bft)
03.05.2023 19:51 14,1 C 11,7 C 36 % 1025,6 hPa 0,0 l/m 14,0 km/h (3 Bft) O-NO 74 3 min 0,0 UV-I 119 W/m -0,7 C 10,5 C 19,3 km/h (3 Bft)
03.05.2023 19:54 14,0 C 11,7 C 37 % 1025,6 hPa 0,0 l/m 10,6 km/h (2 Bft) O-NO 72 3 min 0,0 UV-I 108 W/m -0,4 C 11,7 C 17,7 km/h (3 Bft)
03.05.2023 19:57 13,8 C 11,1 C 38 % 1025,6 hPa 0,0 l/m 8,0 km/h (2 Bft) O 86 3 min 0,0 UV-I 79 W/m -0,3 C 12,8 C 16,1 km/h (3 Bft)
03.05.2023 20:00 13,7 C 10,6 C 37 % 1025,7 hPa 0,0 l/m 9,3 km/h (2 Bft) O-NO 71 0 min 0,0 UV-I 67 W/m -0,7 C 12,0 C 14,5 km/h (3 Bft)
03.05.2023 20:03 13,6 C 10,6 C 37 % 1025,5 hPa 0,0 l/m 13,0 km/h (3 Bft) O 82 0 min 0,0 UV-I 64 W/m -0,8 C 10,2 C 19,3 km/h (3 Bft)
03.05.2023 20:06 13,6 C 10,6 C 37 % 1025,6 hPa 0,0 l/m 10,8 km/h (2 Bft) O 94 0 min 0,0 UV-I 30 W/m -0,8 C 11,2 C 16,1 km/h (3 Bft)
03.05.2023 20:09 13,5 C 10,6 C 38 % 1025,7 hPa 0,0 l/m 9,0 km/h (2 Bft) O-NO 76 0 min 0,0 UV-I 25 W/m -0,5 C 12,0 C 19,3 km/h (3 Bft)
03.05.2023 20:12 13,4 C 10,6 C 38 % 1025,7 hPa 0,0 l/m 8,7 km/h (2 Bft) O-NO 58 0 min 0,0 UV-I 23 W/m -0,6 C 12,0 C 14,5 km/h (3 Bft)
03.05.2023 20:15 13,3 C 10,0 C 39 % 1025,7 hPa 0,0 l/m 9,9 km/h (2 Bft) NO 54 0 min 0,0 UV-I 20 W/m -0,4 C 11,3 C 17,7 km/h (3 Bft)
03.05.2023 20:18 13,2 C 9,4 C 39 % 1025,7 hPa 0,0 l/m 7,6 km/h (2 Bft) O 81 0 min 0,0 UV-I 17 W/m -0,4 C 12,5 C 14,5 km/h (3 Bft)
03.05.2023 20:21 13,1 C 9,4 C 40 % 1025,7 hPa 0,0 l/m 8,3 km/h (2 Bft) O 90 0 min 0,0 UV-I 16 W/m -0,2 C 11,9 C 12,9 km/h (3 Bft)
03.05.2023 20:24 12,9 C 9,4 C 40 % 1025,7 hPa 0,0 l/m 5,6 km/h (1 Bft) O-NO 71 0 min 0,0 UV-I 14 W/m -0,4 C 12,9 C 11,3 km/h (2 Bft)
03.05.2023 20:27 12,9 C 8,9 C 41 % 1025,6 hPa 0,0 l/m 6,0 km/h (2 Bft) O-NO 63 0 min 0,0 UV-I 13 W/m -0,0 C 12,9 C 11,3 km/h (2 Bft)
03.05.2023 20:30 12,6 C 8,9 C 42 % 1025,7 hPa 0,0 l/m 4,6 km/h (1 Bft) O-NO 65 0 min 0,0 UV-I 12 W/m 0,0 C 12,6 C 11,3 km/h (2 Bft)
03.05.2023 20:33 12,3 C 8,3 C 43 % 1025,7 hPa 0,0 l/m 4,9 km/h (1 Bft) O-NO 65 0 min 0,0 UV-I 11 W/m 0,1 C 12,3 C 9,7 km/h (2 Bft)
03.05.2023 20:36 12,3 C 8,3 C 43 % 1025,8 hPa 0,0 l/m 4,6 km/h (1 Bft) O-NO 78 0 min 0,0 UV-I 10 W/m 0,1 C 12,3 C 8,0 km/h (2 Bft)
03.05.2023 20:39 12,2 C 7,8 C 44 % 1025,8 hPa 0,0 l/m 4,6 km/h (1 Bft) O-NO 62 0 min 0,0 UV-I 8 W/m 0,3 C 12,2 C 11,3 km/h (2 Bft)
03.05.2023 20:42 12,0 C 7,8 C 45 % 1025,8 hPa 0,0 l/m 4,2 km/h (1 Bft) O-NO 67 0 min 0,0 UV-I 7 W/m 0,4 C 12,0 C 8,0 km/h (2 Bft)
03.05.2023 20:45 11,8 C 7,2 C 45 % 1025,8 hPa 0,0 l/m 3,8 km/h (1 Bft) O-NO 67 0 min 0,0 UV-I 5 W/m 0,3 C 11,8 C 6,4 km/h (2 Bft)
03.05.2023 20:48 11,5 C 7,2 C 46 % 1025,7 hPa 0,0 l/m 3,1 km/h (1 Bft) O-NO 67 0 min 0,0 UV-I 5 W/m 0,3 C 11,5 C 4,8 km/h (1 Bft)
03.05.2023 20:51 11,4 C 7,2 C 47 % 1025,6 hPa 0,0 l/m 3,7 km/h (1 Bft) O-NO 67 0 min 0,0 UV-I 0 W/m 0,5 C 11,4 C 4,8 km/h (1 Bft)
03.05.2023 20:54 11,3 C 7,2 C 47 % 1025,7 hPa 0,0 l/m 4,2 km/h (1 Bft) O-NO 67 0 min 0,0 UV-I 0 W/m 0,4 C 11,3 C 4,8 km/h (1 Bft)
03.05.2023 20:57 11,1 C 7,2 C 48 % 1025,7 hPa 0,0 l/m 4,7 km/h (1 Bft) O-NO 60 0 min 0,0 UV-I 0 W/m 0,5 C 11,1 C 6,4 km/h (2 Bft)
03.05.2023 21:00 10,8 C 6,7 C 50 % 1025,6 hPa 0,0 l/m 5,7 km/h (1 Bft) NO 55 0 min 0,0 UV-I 0 W/m 0,8 C 10,8 C 8,0 km/h (2 Bft)
03.05.2023 21:03 10,8 C 6,1 C 50 % 1025,7 hPa 0,0 l/m 5,9 km/h (2 Bft) NO 53 0 min 0,0 UV-I 0 W/m 0,8 C 10,8 C 8,0 km/h (2 Bft)
03.05.2023 21:06 10,7 C 6,1 C 51 % 1025,7 hPa 0,0 l/m 4,9 km/h (1 Bft) NO 53 0 min 0,0 UV-I 0 W/m 1,0 C 10,7 C 6,4 km/h (2 Bft)
03.05.2023 21:09 10,6 C 6,1 C 51 % 1025,7 hPa 0,0 l/m 5,8 km/h (2 Bft) NO 53 0 min 0,0 UV-I 0 W/m 0,9 C 10,6 C 8,0 km/h (2 Bft)
03.05.2023 21:12 10,4 C 5,6 C 51 % 1025,7 hPa 0,0 l/m 4,6 km/h (1 Bft) NO 53 0 min 0,0 UV-I 0 W/m 0,7 C 10,4 C 6,4 km/h (2 Bft)
03.05.2023 21:15 10,2 C 5,6 C 53 % 1025,7 hPa 0,0 l/m 2,1 km/h (1 Bft) NO 53 0 min 0,0 UV-I 0 W/m 1,1 C 10,2 C 4,8 km/h (1 Bft)
03.05.2023 21:18 9,9 C 5,6 C 54 % 1025,7 hPa 0,0 l/m 2,0 km/h (1 Bft) NO 53 0 min 0,0 UV-I 0 W/m 1,0 C 9,9 C 3,2 km/h (1 Bft)
03.05.2023 21:21 9,7 C 5,6 C 55 % 1025,7 hPa 0,0 l/m 0,7 km/h (0 Bft) NO 53 0 min 0,0 UV-I 0 W/m 1,1 C 9,7 C 1,6 km/h (1 Bft)
03.05.2023 21:24 9,4 C 5,6 C 55 % 1025,7 hPa 0,0 l/m 0,2 km/h (0 Bft) NO 53 0 min 0,0 UV-I 0 W/m 0,8 C 9,4 C 1,6 km/h (1 Bft)
03.05.2023 21:27 9,3 C 5,6 C 56 % 1025,7 hPa 0,0 l/m 1,0 km/h (0 Bft) NO 53 0 min 0,0 UV-I 0 W/m 1,0 C 9,3 C 3,2 km/h (1 Bft)
03.05.2023 21:30 9,2 C 5,6 C 57 % 1025,6 hPa 0,0 l/m 1,4 km/h (1 Bft) NO 53 0 min 0,0 UV-I 0 W/m 1,1 C 9,2 C 3,2 km/h (1 Bft)
03.05.2023 21:33 8,9 C 5,6 C 57 % 1025,7 hPa 0,0 l/m 1,4 km/h (1 Bft) NO 53 0 min 0,0 UV-I 0 W/m 0,9 C 8,9 C 3,2 km/h (1 Bft)
03.05.2023 21:36 8,9 C 5,6 C 58 % 1025,7 hPa 0,0 l/m 1,9 km/h (1 Bft) NO 53 0 min 0,0 UV-I 0 W/m 1,1 C 8,9 C 3,2 km/h (1 Bft)
03.05.2023 21:39 8,8 C 5,6 C 59 % 1025,7 hPa 0,0 l/m 1,8 km/h (1 Bft) NO 53 0 min 0,0 UV-I 0 W/m 1,2 C 8,8 C 4,8 km/h (1 Bft)
03.05.2023 21:42 8,6 C 5,6 C 60 % 1025,8 hPa 0,0 l/m 0,0 km/h (0 Bft) NO 53 0 min 0,0 UV-I 0 W/m 1,3 C 8,6 C 1,6 km/h (1 Bft)
03.05.2023 21:45 8,5 C 5,0 C 60 % 1025,8 hPa 0,0 l/m 0,0 km/h (0 Bft) NO 53 0 min 0,0 UV-I 0 W/m 1,2 C 8,5 C 0,0 km/h (0 Bft)
03.05.2023 21:48 8,4 C 5,0 C 61 % 1025,7 hPa 0,0 l/m 0,0 km/h (0 Bft) NO 53 0 min 0,0 UV-I 0 W/m 1,3 C 8,4 C 0,0 km/h (0 Bft)
03.05.2023 21:51 8,4 C 5,0 C 61 % 1025,8 hPa 0,0 l/m 0,1 km/h (0 Bft) NO 53 0 min 0,0 UV-I 0 W/m 1,3 C 8,4 C 1,6 km/h (1 Bft)
03.05.2023 21:54 8,2 C 5,0 C 62 % 1025,8 hPa 0,0 l/m 0,0 km/h (0 Bft) NO 53 0 min 0,0 UV-I 0 W/m 1,4 C 8,2 C 0,0 km/h (0 Bft)
03.05.2023 21:57 8,1 C 5,0 C 63 % 1025,7 hPa 0,0 l/m 0,6 km/h (0 Bft) NO 53 0 min 0,0 UV-I 0 W/m 1,5 C 8,1 C 1,6 km/h (1 Bft)
03.05.2023 22:00 7,9 C 5,0 C 63 % 1025,8 hPa 0,0 l/m 0,0 km/h (0 Bft) NO 53 0 min 0,0 UV-I 0 W/m 1,3 C 7,9 C 1,6 km/h (1 Bft)
03.05.2023 22:03 7,8 C 4,4 C 64 % 1025,7 hPa 0,0 l/m 0,0 km/h (0 Bft) NO 53 0 min 0,0 UV-I 0 W/m 1,4 C 7,8 C 0,0 km/h (0 Bft)
03.05.2023 22:06 7,6 C 4,4 C 65 % 1025,8 hPa 0,0 l/m 0,0 km/h (0 Bft) NO 53 0 min 0,0 UV-I 0 W/m 1,5 C 7,6 C 0,0 km/h (0 Bft)
03.05.2023 22:09 7,3 C 4,4 C 66 % 1025,8 hPa 0,0 l/m 0,0 km/h (0 Bft) NO 53 0 min 0,0 UV-I 0 W/m 1,4 C 7,3 C 0,0 km/h (0 Bft)
03.05.2023 22:12 7,1 C 3,9 C 67 % 1025,8 hPa 0,0 l/m 0,0 km/h (0 Bft) NO 53 0 min 0,0 UV-I 0 W/m 1,4 C 7,1 C 0,0 km/h (0 Bft)
03.05.2023 22:15 6,9 C 3,9 C 67 % 1025,8 hPa 0,0 l/m 0,0 km/h (0 Bft) NO 53 0 min 0,0 UV-I 0 W/m 1,2 C 6,9 C 0,0 km/h (0 Bft)
03.05.2023 22:18 6,9 C 3,9 C 68 % 1025,8 hPa 0,0 l/m 0,0 km/h (0 Bft) NO 53 0 min 0,0 UV-I 0 W/m 1,4 C 6,9 C 0,0 km/h (0 Bft)
03.05.2023 22:21 6,8 C 3,9 C 68 % 1025,8 hPa 0,0 l/m 0,0 km/h (0 Bft) NO 53 0 min 0,0 UV-I 0 W/m 1,3 C 6,8 C 0,0 km/h (0 Bft)
03.05.2023 22:24 6,7 C 3,9 C 69 % 1025,9 hPa 0,0 l/m 0,0 km/h (0 Bft) NO 53 0 min 0,0 UV-I 0 W/m 1,4 C 6,7 C 0,0 km/h (0 Bft)
03.05.2023 22:27 6,7 C 3,9 C 69 % 1025,8 hPa 0,0 l/m 0,2 km/h (0 Bft) NO 53 0 min 0,0 UV-I 0 W/m 1,4 C 6,7 C 1,6 km/h (1 Bft)
03.05.2023 22:30 6,6 C 3,9 C 69 % 1025,7 hPa 0,0 l/m 1,3 km/h (1 Bft) NO 53 0 min 0,0 UV-I 0 W/m 1,3 C 6,6 C 3,2 km/h (1 Bft)
03.05.2023 22:33 6,3 C 3,3 C 70 % 1025,7 hPa 0,0 l/m 1,4 km/h (1 Bft) NO 53 0 min 0,0 UV-I 0 W/m 1,2 C 6,3 C 3,2 km/h (1 Bft)
03.05.2023 22:36 6,2 C 3,3 C 71 % 1025,7 hPa 0,0 l/m 1,2 km/h (1 Bft) NO 53 0 min 0,0 UV-I 0 W/m 1,3 C 6,2 C 1,6 km/h (1 Bft)
03.05.2023 22:39 6,0 C 3,3 C 71 % 1025,7 hPa 0,0 l/m 1,7 km/h (1 Bft) NO 53 0 min 0,0 UV-I 0 W/m 1,1 C 6,0 C 3,2 km/h (1 Bft)
03.05.2023 22:42 5,9 C 3,3 C 72 % 1025,7 hPa 0,0 l/m 1,6 km/h (1 Bft) NO 53 0 min 0,0 UV-I 0 W/m 1,2 C 5,9 C 3,2 km/h (1 Bft)
03.05.2023 22:45 5,9 C 3,3 C 72 % 1025,7 hPa 0,0 l/m 0,7 km/h (0 Bft) NO 53 0 min 0,0 UV-I 0 W/m 1,2 C 5,9 C 1,6 km/h (1 Bft)
03.05.2023 22:48 5,8 C 3,3 C 72 % 1025,7 hPa 0,0 l/m 0,1 km/h (0 Bft) NO 53 0 min 0,0 UV-I 0 W/m 1,2 C 5,8 C 1,6 km/h (1 Bft)
03.05.2023 22:51 5,7 C 2,8 C 73 % 1025,7 hPa 0,0 l/m 0,0 km/h (0 Bft) NO 53 0 min 0,0 UV-I 0 W/m 1,2 C 5,7 C 0,0 km/h (0 Bft)
03.05.2023 22:54 5,6 C 2,8 C 73 % 1025,6 hPa 0,0 l/m 0,1 km/h (0 Bft) NO 53 0 min 0,0 UV-I 0 W/m 1,2 C 5,6 C 1,6 km/h (1 Bft)
03.05.2023 22:57 5,5 C 2,8 C 73 % 1025,6 hPa 0,0 l/m 0,0 km/h (0 Bft) NO 53 0 min 0,0 UV-I 0 W/m 1,1 C 5,5 C 0,0 km/h (0 Bft)
03.05.2023 23:00 5,4 C 2,8 C 74 % 1025,5 hPa 0,0 l/m 0,0 km/h (0 Bft) NO 53 0 min 0,0 UV-I 0 W/m 1,1 C 5,4 C 0,0 km/h (0 Bft)
03.05.2023 23:03 5,4 C 2,8 C 74 % 1025,5 hPa 0,0 l/m 0,4 km/h (0 Bft) NO 53 0 min 0,0 UV-I 0 W/m 1,1 C 5,4 C 3,2 km/h (1 Bft)
03.05.2023 23:06 5,4 C 2,8 C 74 % 1025,6 hPa 0,0 l/m 0,2 km/h (0 Bft) NO 53 0 min 0,0 UV-I 0 W/m 1,1 C 5,4 C 1,6 km/h (1 Bft)
03.05.2023 23:09 5,4 C 2,8 C 74 % 1025,4 hPa 0,0 l/m 0,0 km/h (0 Bft) NO 53 0 min 0,0 UV-I 0 W/m 1,1 C 5,4 C 0,0 km/h (0 Bft)
03.05.2023 23:12 5,5 C 2,8 C 73 % 1025,5 hPa 0,0 l/m 0,0 km/h (0 Bft) NO 53 0 min 0,0 UV-I 0 W/m 1,1 C 5,5 C 0,0 km/h (0 Bft)
03.05.2023 23:15 5,5 C 2,8 C 73 % 1025,4 hPa 0,0 l/m 0,0 km/h (0 Bft) NO 53 0 min 0,0 UV-I 0 W/m 1,1 C 5,5 C 0,0 km/h (0 Bft)
03.05.2023 23:18 5,5 C 2,8 C 74 % 1025,4 hPa 0,0 l/m 0,1 km/h (0 Bft) NO 53 0 min 0,0 UV-I 0 W/m 1,2 C 5,5 C 1,6 km/h (1 Bft)
03.05.2023 23:21 5,3 C 2,8 C 74 % 1025,4 hPa 0,0 l/m 0,1 km/h (0 Bft) NO 53 0 min 0,0 UV-I 0 W/m 1,0 C 5,3 C 1,6 km/h (1 Bft)
03.05.2023 23:24 5,1 C 2,8 C 75 % 1025,3 hPa 0,0 l/m 0,0 km/h (0 Bft) NO 53 0 min 0,0 UV-I 0 W/m 1,0 C 5,1 C 0,0 km/h (0 Bft)
03.05.2023 23:27 4,8 C 2,2 C 75 % 1025,4 hPa 0,0 l/m 0,0 km/h (0 Bft) NO 53 0 min 0,0 UV-I 0 W/m 0,8 C 4,8 C 0,0 km/h (0 Bft)
03.05.2023 23:30 4,8 C 2,2 C 75 % 1025,4 hPa 0,0 l/m 0,0 km/h (0 Bft) NO 53 0 min 0,0 UV-I 0 W/m 0,8 C 4,8 C 0,0 km/h (0 Bft)
03.05.2023 23:33 4,9 C 2,2 C 75 % 1025,4 hPa 0,0 l/m 0,0 km/h (0 Bft) NO 53 0 min 0,0 UV-I 0 W/m 0,8 C 4,9 C 0,0 km/h (0 Bft)
03.05.2023 23:36 4,8 C 2,2 C 75 % 1025,4 hPa 0,0 l/m 0,0 km/h (0 Bft) NO 53 0 min 0,0 UV-I 0 W/m 0,8 C 4,8 C 0,0 km/h (0 Bft)
03.05.2023 23:39 4,8 C 2,2 C 75 % 1025,3 hPa 0,0 l/m 0,0 km/h (0 Bft) NO 53 0 min 0,0 UV-I 0 W/m 0,8 C 4,8 C 0,0 km/h (0 Bft)
03.05.2023 23:42 4,7 C 2,2 C 75 % 1025,3 hPa 0,0 l/m 0,0 km/h (0 Bft) NO 53 0 min 0,0 UV-I 0 W/m 0,7 C 4,7 C 0,0 km/h (0 Bft)
03.05.2023 23:45 4,6 C 2,2 C 76 % 1025,3 hPa 0,0 l/m 0,0 km/h (0 Bft) NO 53 0 min 0,0 UV-I 0 W/m 0,7 C 4,6 C 0,0 km/h (0 Bft)
03.05.2023 23:48 4,4 C 2,2 C 76 % 1025,3 hPa 0,0 l/m 0,0 km/h (0 Bft) NO 53 0 min 0,0 UV-I 0 W/m 0,5 C 4,4 C 0,0 km/h (0 Bft)
03.05.2023 23:51 4,4 C 2,2 C 77 % 1025,3 hPa 0,0 l/m 0,1 km/h (0 Bft) NO 53 0 min 0,0 UV-I 0 W/m 0,7 C 4,4 C 1,6 km/h (1 Bft)
03.05.2023 23:54 4,6 C 2,2 C 77 % 1025,2 hPa 0,0 l/m 0,0 km/h (0 Bft) NO 53 0 min 0,0 UV-I 0 W/m 0,9 C 4,6 C 0,0 km/h (0 Bft)
03.05.2023 23:57 4,6 C 2,2 C 77 % 1025,2 hPa 0,0 l/m 0,0 km/h (0 Bft) NO 53 0 min 0,0 UV-I 0 W/m 0,9 C 4,6 C 0,0 km/h (0 Bft)
03.05.2023 23:58 4,6 C 2,2 C 76 % 1025,2 hPa 0,0 l/m 0,0 km/h (0 Bft) N 0 0 min 0,0 UV-I 0 W/m 0,7 C 4,6 C 0,0 km/h (0 Bft)
03.05.2023 23:59 4,6 C 2,2 C 76 % 1025,1 hPa 0,0 l/m 0,0 km/h (0 Bft) N 0 0 min 0,0 UV-I 0 W/m 0,7 C 4,6 C 0,0 km/h (0 Bft)
_ Min-Zeit 06:12 06:09 17:57 23:59 - 00:00 - - - - - 06:12 06:12 00:00
Minimum _ -2,7 C -4,4 C 36 % 1025,1 hPa - 0,0 km/h (0 Bft) - - - - - -4,1 C -2,7 C 0,0 km/h (0 Bft)
_ Max-Zeit 17:07 14:39 06:31 08:09 00:00 10:45 - - 17:07 13:36 13:39 15:06 16:33 11:39
Maximum _ 16,3 C 28,9 C 92 % 1029,4 hPa 0,0 l/m 17,2 km/h
NO (3 Bft)
- - 4 min 5,6 UV-I 859 W/m 5,3 C 15,4 C 25,7 km/h
NO (4 Bft)
Durchschnitt _ 7,2 C 9,6 C 67 % 1027,7 hPa #0,0 l/m 6,9 km/h (2 Bft) N - #12:26 h 3,2 UV-I 477 W/m 0,8 C 5,6 C 11,1 km/h (2 Bft)